[[{"header":{"parameterUnit":"m.s-1","parameterCategory":1,"la1":31.0,"la2":29.5877,"lo1":-88.7671,"lo2":-86.6584,"dy":0.0162,"dx":0.0185,"nx":115,"ny":88,"refTime":"2023-11-14T18:00:00:Z","depth":0,"parameterNumber":2,"parameterNumberName":"U-component_of_WINDS"},"data":[0.0,0.0,0.0,0.0,0.0,0.0,0.0,0.0,0.0,0.0,0.0,0.0,0.0,0.0,0.0,0.0,0.0,0.0,0.0,0.0,0.0,0.0,0.0,0.0,0.0,0.0,0.0,0.0,0.0,0.0,0.0,0.0,0.0,0.0,0.0,0.0,0.0,0.0,0.0,0.0,0.0,0.0,0.0,0.0,0.0,0.0,0.0,0.0,0.0,0.0,0.0,0.0,0.0,0.0,0.0,0.0,0.0,0.0,0.0,0.0,0.0,0.0,0.0,0.0,0.0,0.0,0.0,0.0,0.0,0.0,0.0,0.0,0.0,0.0,0.0,0.0,0.0,0.0,0.0,0.0,0.0,0.0,0.0,0.0,0.0,0.0,0.0,0.0,0.0,0.0,0.0,0.0,0.0,0.0,0.0,0.0,0.0,0.0,0.0,0.0,0.0,0.0,0.0,0.0,0.0,0.0,0.0,0.0,0.0,0.0,0.0,0.0,0.0,0.0,0.0,0.0,0.0,0.0,0.0,0.0,0.0,0.0,0.0,0.0,0.0,0.0,0.0,0.0,0.0,0.0,0.0,0.0,0.0,0.0,0.0,0.0,0.0,0.0,0.0,0.0,0.0,0.0,0.0,0.0,0.0,0.0,0.0,0.0,0.0,0.0,0.0,0.0,0.0,0.0,0.0,0.0,0.0,0.0,0.0,0.0,0.0,0.0,0.0,0.0,0.0,0.0,0.0,0.0,0.0,0.0,0.0,0.0,0.0,0.0,0.0,0.0,0.0,0.0,0.0,0.0,0.0,0.0,0.0,0.0,0.0,0.0,0.0,0.0,0.0,0.0,0.0,0.0,0.0,0.0,0.0,0.0,0.0,0.0,0.0,0.0,0.0,0.0,0.0,0.0,0.0,0.0,0.0,0.0,0.0,0.0,0.0,0.0,0.0,0.0,0.0,0.0,0.0,0.0,0.0,0.0,0.0,0.0,0.0,0.0,0.0,0.0,0.0,0.0,0.0,0.0,0.0,0.0,0.0,0.0,0.0,0.0,0.0,0.0,0.0,0.0,0.0,0.0,0.0,0.0,0.0,0.0,0.0,0.0,0.0,0.0,0.0,0.0,0.0,0.0,0.0,0.0,0.0,0.0,0.0,0.0,0.0,0.0,0.0,0.0,0.0,0.0,0.0,0.0,0.0,0.0,0.0,0.0,0.0,0.0,0.0,0.0,0.0,0.0,0.0,0.0,0.0,0.0,0.0,0.0,0.0,0.0,0.0,0.0,0.0,0.0,0.0,0.0,0.0,0.0,0.0,0.0,0.0,0.0,0.0,0.0,0.0,0.0,0.0,0.0,0.0,0.0,0.0,0.0,0.0,0.0,0.0,0.0,0.0,0.0,0.0,0.0,0.0,0.0,0.0,0.0,0.0,0.0,0.0,0.0,0.0,0.0,0.0,0.0,0.0,0.0,0.0,0.0,0.0,0.0,0.0,0.0,0.0,0.0,0.0,0.0,0.0,0.0,0.0,0.0,0.0,0.0,0.0,0.0,0.0,0.0,0.0,0.0,0.0,0.0,0.0,0.0,0.0,0.0,0.0,0.0,0.0,0.0,0.0,0.0,0.0,0.0,0.0,0.0,0.0,0.0,0.0,0.0,0.0,0.0,0.0,0.0,0.0,0.0,0.0,0.0,0.0,0.0,0.0,0.0,0.0,0.0,0.0,0.0,0.0,0.0,0.0,0.0,0.0,0.0,0.0,0.0,0.0,0.0,0.0,0.0,0.0,0.0,0.0,0.0,0.0,0.0,0.0,0.0,0.0,0.0,0.0,0.0,0.0,0.0,0.0,0.0,0.0,0.0,0.0,0.0,0.0,0.0,0.0,0.0,0.0,0.0,0.0,0.0,0.0,0.0,0.0,0.0,0.0,0.0,0.0,0.0,0.0,0.0,0.0,0.0,0.0,0.0,0.0,0.0,0.0,0.0,0.0,0.0,0.0,0.0,0.0,0.0,0.0,0.0,0.0,0.0,0.0,0.0,0.0,0.0,0.0,0.0,0.0,0.0,0.0,0.0,0.0,0.0,0.0,0.0,0.0,0.0,0.0,0.0,0.0,0.0,0.0,0.0,0.0,0.0,0.0,0.0,0.0,0.0,0.0,0.0,0.0,0.0,0.0,0.0,0.0,0.0,0.0,0.0,0.0,0.0,0.0,0.0,0.0,0.0,0.0,0.0,0.0,0.0,0.0,0.0,0.0,0.0,0.0,0.0,0.0,0.0,0.0,0.0,0.0,0.0,0.0,0.0,0.0,0.0,0.0,0.0,0.0,0.0,0.0,0.0,0.0,0.0,0.0,0.0,0.0,0.0,0.0,0.0,0.0,0.0,0.0,0.0,0.0,0.0,0.0,0.0,0.0,0.0,0.0,0.0,0.0,0.0,0.0,0.0,0.0,0.0,0.0,0.0,0.0,0.0,0.0,0.0,0.0,0.0,0.0,0.0,0.0,0.0,0.0,0.0,0.0,0.0,0.0,0.0,0.0,0.0,0.0,0.0,0.0,0.0,0.0,0.0,0.0,0.0,0.0,0.0,0.0,0.0,0.0,0.0,0.0,0.0,0.0,0.0,0.0,0.0,0.0,0.0,0.0,0.0,0.0,0.0,0.0,0.0,0.0,0.0,0.0,0.0,0.0,0.0,0.0,0.0,0.0,0.0,0.0,0.0,0.0,0.0,0.0,0.0,0.0,0.0,0.0,0.0,0.0,0.0,0.0,0.0,0.0,0.0,0.0,0.0,0.0,0.0,0.0,0.0,0.0,0.0,0.0,0.0,0.0,0.0,0.0,0.0,0.0,0.0,0.0,0.0,0.0,0.0,0.0,0.0,0.0,0.0,0.0,0.0,0.0,0.0,0.0,0.0,0.0,0.0,0.0,0.0,0.0,0.0,0.0,0.0,0.0,0.0,0.0,0.0,0.0,0.0,0.0,0.0,0.0,0.0,0.0,0.0,0.0,0.0,0.0,0.0,0.0,0.0,0.0,0.0,0.0,0.0,0.0,0.0,0.0,0.0,0.0,0.0,0.0,0.0,0.0,0.0,0.0,0.0,0.0,0.0,0.0,0.0,0.0,0.0,0.0,0.0,0.0,0.0,0.0,0.0,0.0,0.0,0.0,0.0,0.0,0.0,0.0,0.0,0.0,0.0,0.0,0.0,0.0,0.0,0.0,0.0,0.0,0.0,0.0,0.0,0.0,0.0,0.0,0.0,0.0,0.0,0.0,0.0,0.0,0.0,0.0,0.0,0.0,0.0,0.0,0.0,0.0,0.0,0.0,0.0,0.0,0.0,0.0,0.0,0.0,0.0,0.0,0.0,0.0,0.0,0.0,0.0,0.0,0.0,0.0,0.0,0.0,0.0,0.0,0.0,0.0,0.0,0.0,0.0,0.0,0.0,0.0,0.0,0.0,0.0,0.0,0.0,0.0,0.0,0.0,0.0,0.0,0.0,0.0,0.0,0.0,0.0,0.0,0.0,0.0,0.0,0.0,0.0,0.0,0.0,0.0,0.0,0.0,0.0,0.0,0.0,0.0,0.0,0.0,0.0,0.0,0.0,0.0,0.0,0.0,0.0,0.0,0.0,0.0,0.0,0.0,0.0,0.0,0.0,0.0,0.0,0.0,0.0,0.0,0.0,0.0,0.0,0.0,0.0,0.0,0.0,0.0,0.0,0.0,0.0,0.0,0.0,0.0,0.0,0.0,0.0,0.0,0.0,0.0,0.0,0.0,0.0,0.0,0.0,0.0,0.0,0.0,0.0,0.0,0.0,0.0,0.0,0.0,0.0,0.0,0.0,0.0,0.0,0.0,0.0,0.0,0.0,0.0,0.0,0.0,0.0,0.0,0.0,0.0,0.0,0.0,0.0,0.0,0.0,0.0,0.0,0.0,0.0,0.0,0.0,0.0,0.0,0.0,0.0,0.0,0.0,0.0,0.0,0.0,0.0,0.0,0.0,0.0,0.0,0.0,0.0,0.0,0.0,0.0,0.0,0.0,0.0,0.0,0.0,0.0,0.0,0.0,0.0,0.0,0.0,0.0,0.0,0.0,0.0,0.0,0.0,0.0,0.0,0.0,0.0,0.0,0.0,0.0,0.0,0.0,0.0,0.0,0.0,0.0,0.0,0.0,0.0,0.0,0.0,0.0,0.0,0.0,0.0,0.0,0.0,0.0,0.0,0.0,0.0,0.0,0.0,0.0,0.0,0.0,0.0,0.0,0.0,0.0,0.0,0.0,0.0,3.4427,0.0,0.0,0.0,0.0,0.0,0.0,0.0,0.0,0.0,0.0,0.0,0.0,0.0,0.0,0.0,0.0,0.0,0.0,0.0,0.0,0.0,0.0,0.0,0.0,0.0,0.0,0.0,0.0,0.0,0.0,0.0,0.0,0.0,0.0,0.0,0.0,0.0,0.0,0.0,0.0,0.0,0.0,0.0,0.0,0.0,0.0,0.0,0.0,0.0,0.0,0.0,0.0,0.0,0.0,0.0,0.0,0.0,0.0,0.0,0.0,0.0,0.0,0.0,0.0,0.0,0.0,0.0,0.0,0.0,0.0,0.0,0.0,0.0,0.0,0.0,0.0,0.0,0.0,0.0,0.0,0.0,0.0,0.0,0.0,0.0,0.0,0.0,0.0,0.0,0.0,0.0,0.0,0.0,0.0,0.0,0.0,0.0,0.0,0.0,0.0,0.0,0.0,0.0,0.0,0.0,0.0,0.0,0.0,0.0,0.0,3.5704,3.5704,3.5704,3.5278,3.4447,0.0,0.0,0.0,0.0,0.0,0.0,0.0,0.0,0.0,0.0,0.0,0.0,0.0,0.0,0.0,0.0,0.0,0.0,0.0,0.0,0.0,0.0,0.0,0.0,0.0,0.0,0.0,0.0,0.0,0.0,0.0,0.0,0.0,0.0,0.0,0.0,0.0,0.0,0.0,0.0,0.0,0.0,0.0,0.0,0.0,0.0,0.0,0.0,0.0,0.0,0.0,0.0,0.0,0.0,0.0,0.0,0.0,0.0,0.0,0.0,0.0,0.0,0.0,0.0,0.0,0.0,0.0,0.0,0.0,0.0,0.0,0.0,0.0,0.0,0.0,0.0,0.0,0.0,0.0,0.0,0.0,0.0,0.0,0.0,0.0,0.0,0.0,0.0,0.0,0.0,0.0,0.0,0.0,0.0,0.0,0.0,0.0,0.0,0.0,0.0,0.0,0.0,0.0,0.0,0.0,0.0,0.0,0.0,0.0,0.0,0.0,0.0,3.5704,3.5394,3.4737,0.0,0.0,0.0,0.0,0.0,0.0,0.0,0.0,0.0,0.0,0.0,0.0,0.0,0.0,0.0,0.0,0.0,0.0,0.0,0.0,0.0,0.0,0.0,0.0,0.0,0.0,0.0,0.0,0.0,0.0,0.0,0.0,0.0,0.0,0.0,0.0,0.0,0.0,0.0,0.0,0.0,0.0,0.0,0.0,0.0,0.0,0.0,0.0,0.0,0.0,0.0,0.0,0.0,0.0,0.0,0.0,0.0,0.0,0.0,0.0,0.0,0.0,0.0,0.0,0.0,0.0,0.0,0.0,0.0,0.0,0.0,0.0,0.0,0.0,0.0,0.0,0.0,0.0,0.0,0.0,0.0,0.0,0.0,0.0,0.0,0.0,0.0,0.0,0.0,0.0,0.0,0.0,0.0,0.0,0.0,0.0,0.0,0.0,0.0,0.0,0.0,0.0,0.0,0.0,0.0,0.0,0.0,0.0,0.0,0.0,3.5704,3.5704,3.5704,0.0,3.5588,0.0,0.0,0.0,0.0,0.0,0.0,0.0,0.0,0.0,0.0,0.0,0.0,0.0,0.0,0.0,0.0,0.0,0.0,0.0,0.0,0.0,0.0,0.0,0.0,0.0,0.0,0.0,0.0,0.0,0.0,0.0,0.0,0.0,0.0,0.0,0.0,0.0,0.0,0.0,0.0,0.0,0.0,0.0,0.0,0.0,0.0,0.0,0.0,0.0,0.0,0.0,0.0,0.0,0.0,0.0,0.0,0.0,0.0,0.0,0.0,0.0,0.0,0.0,0.0,0.0,0.0,0.0,0.0,0.0,0.0,0.0,0.0,0.0,0.0,0.0,0.0,0.0,0.0,0.0,0.0,0.0,0.0,0.0,0.0,0.0,0.0,0.0,0.0,0.0,0.0,0.0,0.0,0.0,0.0,0.0,0.0,0.0,0.0,0.0,0.0,0.0,0.0,0.0,0.0,0.0,0.0,0.0,0.0,0.0,0.0,3.5704,3.5704,3.5704,3.5704,0.0,0.0,0.0,0.0,0.0,0.0,0.0,0.0,0.0,0.0,0.0,0.0,0.0,0.0,0.0,0.0,0.0,0.0,0.0,0.0,0.0,0.0,0.0,0.0,0.0,0.0,0.0,0.0,0.0,0.0,0.0,0.0,0.0,0.0,0.0,0.0,0.0,0.0,0.0,0.0,0.0,0.0,0.0,0.0,0.0,0.0,0.0,0.0,0.0,0.0,0.0,0.0,0.0,0.0,0.0,0.0,0.0,0.0,0.0,0.0,0.0,0.0,0.0,0.0,0.0,0.0,0.0,0.0,0.0,0.0,0.0,0.0,0.0,0.0,0.0,0.0,0.0,0.0,0.0,0.0,0.0,0.0,0.0,0.0,0.0,0.0,0.0,0.0,0.0,0.0,0.0,0.0,0.0,0.0,0.0,0.0,0.0,0.0,0.0,0.0,0.0,0.0,0.0,0.0,0.0,0.0,0.0,0.0,0.0,0.0,3.5704,3.5704,3.5704,3.5704,3.5704,3.5704,0.0,0.0,0.0,0.0,0.0,0.0,0.0,0.0,0.0,0.0,0.0,0.0,0.0,0.0,0.0,0.0,0.0,0.0,0.0,0.0,0.0,0.0,0.0,0.0,0.0,0.0,0.0,0.0,0.0,0.0,0.0,0.0,0.0,0.0,0.0,0.0,0.0,0.0,0.0,0.0,0.0,0.0,0.0,0.0,0.0,0.0,0.0,0.0,0.0,0.0,0.0,0.0,0.0,0.0,0.0,0.0,0.0,0.0,0.0,0.0,0.0,0.0,0.0,0.0,0.0,0.0,0.0,0.0,0.0,0.0,0.0,0.0,0.0,0.0,0.0,0.0,0.0,0.0,0.0,0.0,0.0,0.0,0.0,0.0,0.0,0.0,0.0,0.0,0.0,0.0,0.0,0.0,0.0,0.0,0.0,0.0,0.0,0.0,0.0,0.0,0.0,0.0,0.0,0.0,0.0,0.0,0.0,0.0,3.5704,3.5704,3.5704,3.5704,3.5704,3.5704,0.0,0.0,0.0,0.0,0.0,0.0,0.0,0.0,0.0,0.0,0.0,0.0,0.0,0.0,0.0,0.0,0.0,0.0,0.0,0.0,0.0,0.0,0.0,0.0,0.0,0.0,0.0,0.0,0.0,0.0,0.0,0.0,0.0,0.0,0.0,0.0,0.0,0.0,0.0,0.0,0.0,0.0,0.0,0.0,0.0,0.0,0.0,0.0,0.0,0.0,0.0,0.0,0.0,0.0,0.0,0.0,0.0,0.0,0.0,0.0,0.0,0.0,0.0,0.0,0.0,0.0,0.0,0.0,0.0,0.0,0.0,0.0,0.0,0.0,0.0,0.0,0.0,0.0,0.0,0.0,0.0,0.0,0.0,0.0,0.0,0.0,0.0,0.0,0.0,0.0,0.0,0.0,0.0,0.0,0.0,0.0,0.0,0.0,0.0,0.0,0.0,0.0,0.0,0.0,0.0,0.0,0.0,0.0,0.0,3.5704,3.5704,3.5704,3.5704,3.5706,3.5706,0.0,0.0,0.0,0.0,0.0,0.0,0.0,0.0,0.0,0.0,0.0,0.0,0.0,0.0,0.0,0.0,0.0,0.0,0.0,0.0,0.0,0.0,0.0,0.0,0.0,0.0,0.0,0.0,0.0,0.0,0.0,0.0,0.0,0.0,0.0,0.0,0.0,0.0,0.0,0.0,0.0,0.0,0.0,0.0,0.0,0.0,0.0,0.0,0.0,0.0,0.0,0.0,0.0,0.0,0.0,0.0,0.0,0.0,0.0,0.0,0.0,0.0,0.0,0.0,0.0,0.0,0.0,0.0,0.0,0.0,0.0,0.0,0.0,0.0,0.0,0.0,0.0,0.0,0.0,0.0,0.0,0.0,0.0,0.0,0.0,0.0,0.0,0.0,0.0,0.0,0.0,0.0,0.0,0.0,0.0,0.0,0.0,0.0,0.0,0.0,0.0,0.0,0.0,0.0,0.0,0.0,0.0,0.0,0.0,3.6091,0.0,3.6381,0.0,3.6123,3.5979,0.0,0.0,0.0,0.0,0.0,0.0,0.0,0.0,0.0,0.0,0.0,0.0,0.0,0.0,0.0,0.0,0.0,0.0,0.0,0.0,0.0,0.0,0.0,0.0,0.0,0.0,0.0,0.0,0.0,0.0,0.0,0.0,0.0,0.0,0.0,0.0,0.0,0.0,0.0,0.0,0.0,0.0,0.0,0.0,0.0,0.0,0.0,0.0,0.0,0.0,0.0,0.0,0.0,0.0,0.0,0.0,0.0,0.0,0.0,0.0,0.0,0.0,0.0,0.0,0.0,0.0,0.0,0.0,0.0,0.0,0.0,0.0,0.0,0.0,0.0,0.0,0.0,0.0,0.0,0.0,0.0,0.0,0.0,0.0,0.0,0.0,0.0,0.0,0.0,0.0,0.0,0.0,0.0,0.0,0.0,0.0,0.0,0.0,0.0,0.0,0.0,0.0,0.0,0.0,0.0,0.0,0.0,0.0,3.6149,3.6903,3.7715,3.7746,3.7033,3.6985,3.657,0.0,0.0,0.0,0.0,0.0,0.0,0.0,0.0,0.0,0.0,0.0,0.0,0.0,0.0,0.0,0.0,0.0,0.0,0.0,0.0,0.0,0.0,0.0,0.0,0.0,0.0,0.0,0.0,0.0,0.0,0.0,0.0,0.0,0.0,0.0,0.0,0.0,0.0,0.0,0.0,0.0,0.0,0.0,0.0,0.0,0.0,0.0,0.0,0.0,0.0,0.0,0.0,0.0,0.0,0.0,0.0,0.0,0.0,0.0,0.0,0.0,0.0,0.0,0.0,0.0,0.0,0.0,0.0,0.0,0.0,0.0,0.0,0.0,0.0,0.0,0.0,0.0,0.0,0.0,0.0,0.0,0.0,0.0,0.0,0.0,0.0,0.0,0.0,0.0,0.0,0.0,0.0,0.0,0.0,0.0,0.0,0.0,0.0,0.0,0.0,0.0,0.0,0.0,0.0,0.0,0.0,0.0,0.0,0.0,3.7812,3.8063,3.8083,3.7843,3.7276,3.689,0.0,0.0,0.0,0.0,0.0,0.0,0.0,0.0,0.0,0.0,0.0,0.0,0.0,0.0,0.0,0.0,0.0,0.0,0.0,0.0,0.0,0.0,0.0,0.0,0.0,0.0,0.0,0.0,0.0,0.0,0.0,0.0,0.0,0.0,0.0,0.0,0.0,0.0,0.0,0.0,0.0,0.0,0.0,0.0,0.0,0.0,0.0,0.0,0.0,0.0,0.0,0.0,0.0,0.0,0.0,0.0,0.0,0.0,0.0,0.0,0.0,0.0,0.0,0.0,0.0,0.0,0.0,0.0,0.0,0.0,0.0,0.0,0.0,0.0,0.0,0.0,0.0,0.0,0.0,0.0,0.0,0.0,0.0,0.0,0.0,0.0,0.0,0.0,0.0,0.0,0.0,0.0,0.0,0.0,0.0,0.0,0.0,0.0,0.0,0.0,0.0,0.0,0.0,0.0,0.0,0.0,0.0,0.0,0.0,3.9204,3.9475,3.9468,3.9182,3.8382,3.7686,3.7046,0.0,0.0,0.0,0.0,0.0,0.0,0.0,0.0,0.0,0.0,0.0,0.0,0.0,0.0,0.0,0.0,0.0,0.0,0.0,0.0,0.0,0.0,0.0,0.0,0.0,0.0,0.0,0.0,0.0,0.0,0.0,0.0,0.0,0.0,0.0,0.0,0.0,0.0,0.0,0.0,0.0,0.0,0.0,0.0,0.0,0.0,0.0,0.0,0.0,0.0,0.0,0.0,0.0,0.0,0.0,0.0,0.0,0.0,0.0,0.0,0.0,0.0,0.0,0.0,0.0,0.0,0.0,0.0,0.0,0.0,0.0,0.0,0.0,0.0,0.0,0.0,0.0,0.0,0.0,0.0,0.0,0.0,0.0,0.0,0.0,0.0,0.0,0.0,0.0,0.0,0.0,0.0,0.0,0.0,0.0,0.0,0.0,0.0,0.0,0.0,0.0,0.0,0.0,0.0,0.0,0.0,0.0,0.0,4.1003,4.1661,4.1589,4.0796,3.9993,3.8821,0.0,0.0,0.0,0.0,0.0,0.0,0.0,0.0,0.0,0.0,0.0,0.0,0.0,0.0,0.0,0.0,0.0,0.0,0.0,0.0,0.0,0.0,0.0,0.0,0.0,0.0,0.0,0.0,0.0,0.0,0.0,0.0,0.0,0.0,0.0,0.0,0.0,0.0,0.0,0.0,0.0,0.0,0.0,0.0,0.0,0.0,0.0,0.0,0.0,0.0,0.0,0.0,0.0,0.0,0.0,0.0,0.0,0.0,0.0,0.0,0.0,0.0,0.0,0.0,0.0,0.0,0.0,0.0,0.0,0.0,0.0,0.0,0.0,0.0,0.0,0.0,0.0,0.0,0.0,0.0,0.0,0.0,0.0,0.0,0.0,0.0,0.0,0.0,0.0,0.0,0.0,0.0,0.0,0.0,0.0,0.0,0.0,0.0,0.0,0.0,0.0,0.0,0.0,0.0,0.0,0.0,0.0,0.0,0.0,4.3473,4.2615,4.1659,4.0831,4.0014,3.9121,0.0,0.0,0.0,0.0,0.0,0.0,0.0,0.0,0.0,0.0,0.0,0.0,0.0,0.0,0.0,0.0,0.0,0.0,0.0,0.0,0.0,0.0,0.0,0.0,0.0,0.0,0.0,0.0,0.0,0.0,0.0,0.0,0.0,0.0,0.0,0.0,0.0,0.0,0.0,0.0,0.0,0.0,0.0,0.0,0.0,0.0,0.0,0.0,0.0,0.0,0.0,0.0,0.0,0.0,0.0,0.0,0.0,0.0,0.0,0.0,0.0,0.0,0.0,0.0,0.0,0.0,0.0,0.0,0.0,0.0,0.0,0.0,0.0,0.0,0.0,0.0,0.0,0.0,0.0,0.0,0.0,0.0,0.0,0.0,0.0,0.0,0.0,0.0,0.0,0.0,0.0,0.0,0.0,0.0,0.0,0.0,0.0,0.0,0.0,0.0,0.0,0.0,0.0,0.0,0.0,0.0,0.0,0.0,4.2344,4.3505,4.331,4.2617,4.1435,4.0587,3.9615,0.0,0.0,0.0,0.0,0.0,0.0,0.0,0.0,0.0,0.0,0.0,0.0,0.0,0.0,0.0,0.0,0.0,0.0,0.0,0.0,0.0,0.0,0.0,0.0,0.0,0.0,0.0,0.0,0.0,0.0,0.0,0.0,0.0,0.0,0.0,0.0,0.0,0.0,0.0,0.0,0.0,0.0,0.0,0.0,0.0,0.0,0.0,0.0,0.0,0.0,0.0,0.0,0.0,0.0,0.0,0.0,0.0,0.0,0.0,0.0,0.0,0.0,0.0,0.0,0.0,0.0,0.0,0.0,0.0,0.0,0.0,0.0,0.0,0.0,0.0,0.0,0.0,0.0,0.0,0.0,0.0,0.0,0.0,0.0,0.0,0.0,0.0,0.0,0.0,0.0,0.0,0.0,0.0,0.0,0.0,0.0,0.0,0.0,0.0,0.0,0.0,0.0,0.0,0.0,0.0,0.0,0.0,0.0,4.2904,4.24,4.3815,4.3837,4.2392,4.149,4.0243,0.0,0.0,0.0,0.0,0.0,0.0,0.0,0.0,0.0,0.0,0.0,0.0,0.0,0.0,0.0,0.0,0.0,0.0,0.0,0.0,0.0,0.0,0.0,0.0,0.0,0.0,0.0,0.0,0.0,0.0,0.0,0.0,0.0,0.0,0.0,0.0,0.0,0.0,0.0,0.0,0.0,0.0,0.0,0.0,0.0,0.0,0.0,0.0,0.0,0.0,0.0,0.0,0.0,0.0,0.0,0.0,0.0,0.0,0.0,0.0,0.0,0.0,0.0,0.0,0.0,0.0,0.0,0.0,0.0,0.0,0.0,0.0,0.0,0.0,0.0,0.0,0.0,0.0,0.0,0.0,0.0,0.0,0.0,0.0,0.0,0.0,0.0,0.0,0.0,0.0,0.0,0.0,0.0,0.0,0.0,0.0,0.0,0.0,0.0,0.0,0.0,0.0,0.0,0.0,0.0,0.0,0.0,0.0,4.2939,4.4106,4.3837,4.3529,4.3238,4.243,4.0871,0.0,0.0,0.0,0.0,0.0,0.0,0.0,0.0,0.0,0.0,0.0,0.0,0.0,0.0,0.0,0.0,0.0,0.0,0.0,0.0,0.0,0.0,0.0,0.0,0.0,0.0,0.0,0.0,0.0,0.0,0.0,0.0,0.0,0.0,0.0,0.0,0.0,0.0,0.0,0.0,0.0,0.0,0.0,0.0,0.0,0.0,0.0,0.0,3.6748,0.0,0.0,0.0,0.0,0.0,0.0,0.0,0.0,0.0,0.0,0.0,0.0,0.0,0.0,0.0,0.0,0.0,0.0,0.0,0.0,0.0,0.0,0.0,0.0,0.0,0.0,0.0,0.0,0.0,0.0,0.0,0.0,0.0,0.0,0.0,0.0,0.0,0.0,0.0,0.0,0.0,0.0,0.0,0.0,0.0,0.0,0.0,0.0,0.0,0.0,0.0,0.0,0.0,0.0,0.0,0.0,0.0,0.0,0.0,4.3175,4.407,4.4491,4.4297,4.3529,4.3116,4.1517,0.0,0.0,0.0,0.0,0.0,0.0,0.0,0.0,0.0,0.0,0.0,0.0,0.0,0.0,0.0,0.0,0.0,0.0,0.0,0.0,0.0,0.0,0.0,0.0,0.0,0.0,0.0,0.0,0.0,0.0,0.0,0.0,0.0,0.0,0.0,0.0,0.0,0.0,0.0,0.0,0.0,0.0,0.0,0.0,0.0,0.0,0.0,0.0,0.0,0.0,0.0,0.0,0.0,0.0,0.0,0.0,0.0,0.0,0.0,0.0,0.0,0.0,0.0,0.0,0.0,0.0,0.0,0.0,0.0,0.0,0.0,0.0,0.0,0.0,0.0,0.0,0.0,0.0,0.0,0.0,0.0,0.0,0.0,0.0,0.0,0.0,0.0,0.0,0.0,0.0,0.0,0.0,0.0,0.0,0.0,0.0,0.0,0.0,0.0,0.0,0.0,0.0,0.0,0.0,0.0,0.0,0.0,4.2136,4.3391,4.346,4.5162,4.5279,4.3568,4.3564,4.1999,3.8656,0.0,0.0,0.0,0.0,0.0,0.0,0.0,0.0,0.0,0.0,0.0,0.0,0.0,0.0,0.0,0.0,0.0,0.0,0.0,0.0,0.0,0.0,0.0,0.0,0.0,0.0,0.0,0.0,0.0,0.0,0.0,0.0,0.0,0.0,0.0,0.0,0.0,0.0,3.5858,3.6593,0.0,0.0,0.0,0.0,0.0,0.0,0.0,0.0,3.8508,0.0,0.0,0.0,0.0,0.0,0.0,0.0,0.0,0.0,0.0,0.0,0.0,0.0,0.0,0.0,0.0,0.0,0.0,0.0,0.0,0.0,0.0,0.0,0.0,0.0,0.0,0.0,0.0,0.0,0.0,0.0,0.0,0.0,0.0,0.0,0.0,0.0,0.0,0.0,0.0,0.0,0.0,0.0,0.0,0.0,0.0,0.0,0.0,0.0,0.0,0.0,0.0,0.0,0.0,0.0,0.0,4.0563,4.244,4.3432,4.35,4.5211,4.5259,4.3587,4.3564,4.1999,3.8747,0.0,0.0,0.0,0.0,0.0,0.0,0.0,0.0,0.0,0.0,0.0,0.0,0.0,0.0,0.0,0.0,0.0,0.0,0.0,0.0,0.0,0.0,0.0,0.0,0.0,0.0,0.0,0.0,0.0,0.0,0.0,0.0,0.0,0.0,0.0,0.0,0.0,0.0,0.0,3.7444,3.8295,0.0,0.0,0.0,0.0,0.0,0.0,0.0,0.0,4.0365,0.0,0.0,0.0,0.0,0.0,0.0,0.0,0.0,0.0,0.0,0.0,0.0,0.0,0.0,0.0,0.0,0.0,0.0,0.0,0.0,0.0,0.0,0.0,0.0,0.0,0.0,0.0,0.0,0.0,0.0,0.0,0.0,0.0,0.0,0.0,0.0,0.0,0.0,0.0,0.0,0.0,0.0,0.0,0.0,0.0,0.0,0.0,0.0,0.0,0.0,0.0,0.0,0.0,0.0,0.0,4.0787,4.2518,4.3422,4.3549,4.5191,4.5296,4.3639,4.3576,4.2,0.0,0.0,0.0,0.0,0.0,0.0,0.0,0.0,0.0,0.0,0.0,0.0,0.0,0.0,0.0,0.0,0.0,0.0,0.0,0.0,0.0,0.0,0.0,0.0,0.0,0.0,0.0,0.0,0.0,0.0,0.0,0.0,0.0,0.0,0.0,0.0,0.0,0.0,0.0,0.0,3.8357,3.9201,4.0064,0.0,0.0,0.0,0.0,0.0,0.0,4.0551,4.079,0.0,0.0,0.0,0.0,0.0,0.0,0.0,0.0,0.0,0.0,0.0,0.0,0.0,0.0,0.0,0.0,0.0,0.0,0.0,0.0,0.0,0.0,0.0,0.0,0.0,0.0,0.0,0.0,0.0,0.0,0.0,0.0,0.0,0.0,0.0,0.0,0.0,0.0,0.0,0.0,0.0,0.0,0.0,0.0,0.0,0.0,0.0,0.0,0.0,0.0,0.0,0.0,0.0,0.0,0.0,4.0798,4.2537,4.3433,4.3568,4.5209,4.5321,4.3676,4.3611,4.2011,0.0,0.0,0.0,0.0,0.0,0.0,0.0,0.0,0.0,0.0,0.0,0.0,0.0,0.0,0.0,0.0,0.0,0.0,0.0,0.0,0.0,0.0,0.0,0.0,0.0,0.0,0.0,0.0,0.0,0.0,0.0,0.0,0.0,0.0,0.0,0.0,0.0,0.0,0.0,0.0,0.0,3.9835,4.0671,4.0807,0.0,0.0,0.0,0.0,4.0803,4.0803,0.0,0.0,0.0,0.0,0.0,0.0,0.0,0.0,0.0,0.0,0.0,0.0,0.0,0.0,0.0,0.0,0.0,0.0,0.0,0.0,0.0,0.0,0.0,0.0,0.0,0.0,0.0,0.0,0.0,0.0,0.0,0.0,0.0,0.0,0.0,0.0,0.0,0.0,0.0,0.0,0.0,0.0,0.0,0.0,0.0,0.0,0.0,0.0,0.0,0.0,0.0,0.0,0.0,0.0,0.0,0.0,4.0877,4.2626,4.3481,4.3587,4.5265,4.5356,4.3676,4.3668,4.2052,0.0,0.0,0.0,0.0,0.0,0.0,0.0,0.0,0.0,0.0,0.0,0.0,0.0,0.0,0.0,0.0,0.0,0.0,0.0,0.0,0.0,0.0,0.0,0.0,0.0,0.0,0.0,0.0,0.0,0.0,0.0,0.0,0.0,0.0,0.0,0.0,0.0,0.0,0.0,0.0,0.0,3.9876,4.069,4.0807,4.0807,0.0,0.0,4.08,4.0788,4.0815,0.0,0.0,0.0,0.0,0.0,0.0,0.0,0.0,0.0,0.0,0.0,0.0,0.0,0.0,0.0,0.0,0.0,0.0,0.0,0.0,0.0,0.0,0.0,0.0,0.0,0.0,0.0,0.0,0.0,0.0,0.0,0.0,0.0,0.0,0.0,0.0,0.0,0.0,0.0,0.0,0.0,0.0,0.0,0.0,0.0,0.0,0.0,0.0,0.0,0.0,0.0,0.0,0.0,0.0,0.0,3.917,4.0888,4.2674,4.3556,4.3611,4.5297,4.5377,4.3688,4.369,4.2299,0.0,0.0,0.0,0.0,0.0,0.0,0.0,0.0,0.0,0.0,0.0,0.0,0.0,0.0,0.0,0.0,0.0,0.0,0.0,0.0,0.0,0.0,0.0,0.0,0.0,0.0,0.0,0.0,0.0,0.0,0.0,0.0,0.0,0.0,0.0,0.0,0.0,0.0,0.0,0.0,0.0,0.0,4.148,4.1597,0.0,0.0,0.0,4.154,4.1517,0.0,0.0,0.0,0.0,0.0,0.0,0.0,0.0,0.0,0.0,0.0,0.0,0.0,0.0,0.0,0.0,0.0,0.0,0.0,0.0,0.0,0.0,0.0,0.0,0.0,0.0,0.0,0.0,0.0,0.0,0.0,0.0,0.0,0.0,0.0,0.0,0.0,0.0,0.0,0.0,0.0,0.0,0.0,0.0,0.0,0.0,0.0,0.0,0.0,0.0,0.0,0.0,0.0,0.0,0.0,0.0,0.0,4.0917,4.268,4.36,4.3654,4.5319,4.5417,4.3768,4.37,0.0,0.0,0.0,0.0,0.0,0.0,0.0,0.0,0.0,0.0,0.0,0.0,0.0,0.0,0.0,0.0,0.0,0.0,0.0,0.0,0.0,0.0,0.0,0.0,0.0,0.0,0.0,3.2578,0.0,0.0,0.0,0.0,0.0,0.0,0.0,0.0,0.0,0.0,0.0,0.0,0.0,0.0,4.1218,4.2092,4.2209,4.25,0.0,0.0,4.2427,4.2412,4.1872,4.1441,0.0,0.0,0.0,0.0,0.0,0.0,0.0,0.0,0.0,0.0,0.0,0.0,0.0,0.0,0.0,0.0,0.0,0.0,0.0,0.0,0.0,0.0,0.0,0.0,0.0,0.0,0.0,0.0,0.0,0.0,0.0,0.0,0.0,0.0,0.0,0.0,0.0,0.0,0.0,0.0,0.0,0.0,0.0,0.0,0.0,0.0,0.0,0.0,0.0,0.0,0.0,0.0,0.0,0.0,0.0,4.0982,4.2696,4.3615,4.3654,4.5306,4.5409,4.3768,4.37,4.2459,0.0,0.0,0.0,0.0,0.0,0.0,0.0,0.0,0.0,0.0,0.0,0.0,0.0,0.0,0.0,0.0,0.0,0.0,0.0,0.0,0.0,0.0,0.0,0.0,0.0,0.0,0.0,0.0,0.0,0.0,0.0,0.0,0.0,0.0,0.0,0.0,0.0,0.0,0.0,0.0,0.0,4.1218,4.2073,4.2209,4.252,0.0,0.0,4.3303,4.3319,4.3264,4.3208,4.3131,0.0,0.0,0.0,0.0,0.0,0.0,0.0,0.0,0.0,0.0,0.0,0.0,0.0,0.0,0.0,0.0,0.0,0.0,0.0,0.0,0.0,0.0,0.0,0.0,0.0,0.0,0.0,0.0,0.0,0.0,0.0,0.0,0.0,0.0,0.0,0.0,0.0,0.0,0.0,0.0,0.0,0.0,0.0,0.0,0.0,0.0,0.0,0.0,0.0,0.0,0.0,0.0,0.0,3.9799,4.1007,4.27,4.3617,4.3676,4.5312,4.5387,4.3739,4.3712,4.2724,0.0,0.0,0.0,0.0,0.0,0.0,0.0,0.0,0.0,0.0,0.0,0.0,0.0,0.0,0.0,0.0,0.0,0.0,0.0,0.0,0.0,0.0,0.0,0.0,0.0,0.0,0.0,0.0,3.5185,3.562,3.5968,0.0,0.0,0.0,0.0,0.0,0.0,0.0,0.0,0.0,0.0,4.2015,4.2889,4.3452,0.0,0.0,4.4577,4.4206,4.4214,4.3761,4.3395,4.3363,4.3047,0.0,0.0,0.0,0.0,0.0,0.0,0.0,0.0,0.0,0.0,0.0,0.0,0.0,0.0,0.0,0.0,0.0,0.0,0.0,0.0,0.0,0.0,0.0,0.0,0.0,0.0,0.0,0.0,0.0,0.0,0.0,0.0,0.0,0.0,0.0,0.0,0.0,0.0,0.0,0.0,0.0,0.0,0.0,0.0,0.0,0.0,0.0,0.0,0.0,0.0,0.0,0.0,4.0263,4.1365,4.2843,4.3728,4.4005,4.544,4.5528,4.4138,4.3837,4.3001,0.0,0.0,0.0,0.0,0.0,0.0,0.0,0.0,0.0,0.0,0.0,0.0,0.0,0.0,0.0,0.0,0.0,0.0,0.0,0.0,0.0,0.0,0.0,0.0,0.0,0.0,0.0,0.0,3.5623,3.6116,3.6364,0.0,0.0,0.0,0.0,0.0,0.0,0.0,0.0,0.0,0.0,4.2597,4.3724,4.4423,4.5084,4.5861,4.5481,4.509,4.5079,4.4548,4.4163,4.415,0.0,0.0,0.0,0.0,0.0,0.0,0.0,0.0,0.0,0.0,0.0,0.0,0.0,0.0,0.0,0.0,0.0,0.0,0.0,0.0,0.0,0.0,0.0,0.0,0.0,0.0,0.0,3.9909,0.0,0.0,3.8446,0.0,0.0,0.0,0.0,0.0,0.0,0.0,0.0,0.0,0.0,0.0,0.0,0.0,0.0,0.0,0.0,0.0,0.0,0.0,0.0,0.0,0.0,4.056,4.2241,4.3136,4.4001,4.4844,4.5752,4.5802,4.4977,4.4149,4.3274,4.2337,0.0,0.0,0.0,0.0,0.0,0.0,0.0,0.0,0.0,0.0,0.0,0.0,0.0,0.0,0.0,0.0,0.0,0.0,0.0,0.0,0.0,0.0,0.0,0.0,0.0,0.0,3.5934,3.5996,3.6342,0.0,0.0,0.0,0.0,0.0,0.0,0.0,0.0,0.0,0.0,4.217,4.2811,4.452,4.4773,4.5103,4.588,4.5958,4.5947,4.5944,4.5871,4.5854,0.0,0.0,0.0,0.0,0.0,0.0,0.0,0.0,0.0,0.0,0.0,0.0,0.0,0.0,0.0,0.0,0.0,0.0,0.0,0.0,0.0,0.0,0.0,0.0,0.0,0.0,0.0,3.8785,3.9094,0.0,0.0,0.0,0.0,0.0,0.0,0.0,0.0,0.0,0.0,0.0,4.0177,4.0106,0.0,0.0,0.0,0.0,0.0,0.0,0.0,0.0,0.0,0.0,0.0,0.0,4.114,4.226,4.3155,4.4007,4.4894,4.5757,4.5826,4.5024,4.4149,4.2747,4.0737,0.0,0.0,0.0,0.0,0.0,0.0,0.0,0.0,0.0,0.0,0.0,0.0,0.0,0.0,0.0,0.0,0.0,0.0,0.0,0.0,0.0,0.0,0.0,0.0,0.0,3.6021,0.0,0.0,0.0,0.0,0.0,0.0,0.0,0.0,0.0,0.0,0.0,4.1291,4.2081,4.2703,4.3471,4.4637,4.5258,4.5686,0.0,0.0,0.0,0.0,0.0,0.0,0.0,0.0,0.0,0.0,0.0,0.0,0.0,0.0,4.4694,4.3325,4.3073,4.2976,4.2694,0.0,0.0,0.0,0.0,0.0,0.0,0.0,0.0,0.0,0.0,0.0,0.0,0.0,0.0,3.905,0.0,3.9112,0.0,0.0,0.0,0.0,0.0,0.0,0.0,0.0,3.9781,3.9998,4.0215,4.0372,4.0231,0.0,3.9883,3.9637,0.0,0.0,0.0,0.0,0.0,0.0,0.0,0.0,4.1575,4.2708,4.3291,4.4163,4.5323,4.5913,4.5963,4.5453,4.4309,4.2747,4.0776,4.0112,3.9292,0.0,0.0,0.0,0.0,0.0,0.0,0.0,0.0,0.0,0.0,0.0,0.0,0.0,0.0,0.0,0.0,0.0,0.0,0.0,0.0,0.0,0.0,0.0,3.6462,0.0,0.0,0.0,0.0,0.0,0.0,0.0,0.0,0.0,4.1448,4.1454,4.186,4.2963,4.3587,4.4258,4.5143,0.0,0.0,0.0,0.0,0.0,0.0,0.0,4.6108,4.6399,4.6395,4.646,4.6783,4.6865,4.6907,4.6909,0.0,0.0,4.4326,4.3957,4.3879,4.3569,4.3491,4.3588,4.3899,4.42,4.4492,0.0,0.0,0.0,0.0,0.0,0.0,0.0,0.0,4.1151,4.0901,0.0,3.9892,0.0,0.0,0.0,0.0,0.0,3.935,0.0,0.0,3.9804,3.9998,4.0215,4.0339,4.0466,4.0596,4.0648,4.0707,4.0687,3.9165,0.0,0.0,0.0,0.0,0.0,0.0,4.1887,4.3525,4.3642,4.4488,4.6105,4.6201,4.6216,4.6186,4.4598,4.3294,4.2376,4.0756,3.9819,3.9761,3.8258,0.0,0.0,0.0,0.0,0.0,0.0,0.0,0.0,0.0,0.0,0.0,0.0,0.0,0.0,0.0,0.0,0.0,0.0,0.0,0.0,3.6833,0.0,0.0,0.0,0.0,0.0,0.0,0.0,0.0,0.0,0.0,4.2428,4.2377,4.2948,4.4565,0.0,0.0,0.0,0.0,4.6016,4.6035,4.6035,4.6055,4.6113,4.6111,4.638,4.7214,0.0,0.0,4.8417,4.8557,4.8541,4.858,4.8502,4.7822,4.5414,4.5025,4.4734,4.3976,4.3879,4.3996,4.4773,4.5677,4.6416,4.3781,0.0,0.0,0.0,0.0,4.161,4.1658,4.1319,4.2143,4.1628,4.0195,4.0176,0.0,0.0,0.0,0.0,0.0,0.0,3.967,3.9693,3.9914,4.0099,4.0215,4.0444,4.0549,4.0602,4.0713,4.0771,4.0784,4.0304,4.0087,4.0089,0.0,0.0,0.0,0.0,4.2482,4.3553,4.4214,4.5079,4.6183,4.6201,4.5924,4.5379,4.4289,4.3294,4.2435,4.1322,4.0424,3.9839,3.9351,0.0,0.0,0.0,0.0,0.0,0.0,0.0,0.0,0.0,0.0,0.0,0.0,0.0,0.0,0.0,0.0,0.0,0.0,0.0,3.7741,3.8007,3.8159,0.0,0.0,0.0,0.0,0.0,0.0,0.0,0.0,0.0,4.4059,4.3646,4.3637,0.0,0.0,4.5122,4.5988,4.6056,4.621,4.6832,4.6929,0.0,4.7764,4.7861,4.7917,4.8126,4.8133,4.823,4.8483,4.8557,4.858,4.8599,4.858,4.8347,4.7725,4.7512,4.7406,4.7203,4.7135,4.7213,4.7515,4.7796,4.801,4.8443,4.5287,4.3176,4.2681,4.3371,4.3803,4.35,4.2679,4.3195,4.224,4.0329,4.0329,4.0253,4.0196,4.01,0.0,0.0,0.0,4.0314,4.0314,4.081,4.1148,4.1246,4.1133,4.1104,4.1156,4.092,4.079,4.079,4.0815,4.08,4.0804,0.0,0.0,4.1432,4.1974,4.2855,4.4031,4.4616,4.5319,4.6177,4.6195,4.5982,4.5512,4.4676,4.3821,4.2942,4.2084,4.1225,4.0346,3.9976,3.9351,0.0,0.0,0.0,0.0,0.0,0.0,0.0,0.0,0.0,0.0,0.0,3.6155,3.6482,0.0,0.0,0.0,3.7494,3.7975,3.8471,3.8814,0.0,0.0,0.0,0.0,0.0,0.0,0.0,4.232,4.2695,4.3435,4.482,4.5078,4.5216,4.5397,4.5383,4.5663,4.6503,0.0,4.6862,4.7706,4.7803,4.7997,4.8522,4.8588,4.8654,4.898,4.9329,4.9523,4.9555,4.9598,4.9629,4.9648,4.9629,4.9629,4.9629,4.964,4.936,4.8759,4.8633,4.8759,4.9109,4.9196,4.9303,5.2608,5.0677,4.5789,4.4568,4.5781,4.5802,4.5189,4.425,4.4269,4.2813,4.0368,4.0329,4.0291,4.0291,4.0177,0.0,4.0138,4.0893,4.1253,4.1336,4.2142,4.2637,4.285,4.2225,4.1975,4.2058,4.1339,4.0984,4.1023,4.1023,4.1009,4.0994,4.107,4.1461,4.217,4.2325,4.3208,4.477,4.4931,4.5395,4.6176,4.6209,4.6231,4.6284,4.5473,4.4582,4.3723,4.2864,4.2006,4.1127,4.0327,3.9858,3.9761,0.0,0.0,0.0,0.0,0.0,0.0,0.0,0.0,0.0,0.0,0.0,0.0,0.0,0.0,0.0,3.86,0.0,3.8712,3.9433,0.0,0.0,0.0,4.1117,4.1104,4.1166,4.1537,4.2399,0.0,0.0,4.5085,4.6608,4.7302,4.6513,4.6411,4.6668,4.7406,4.7515,4.7777,4.8591,4.8696,4.8735,4.8949,4.8907,4.9116,4.9795,5.0571,5.0991,5.1054,5.1125,5.1163,5.1105,5.1202,5.1163,5.1183,5.1081,5.0703,4.9158,4.8925,4.9196,4.9925,5.009,5.0313,5.3865,5.2705,5.0758,4.9399,4.8561,4.8489,4.7204,4.5189,4.5189,4.335,4.0329,4.0329,4.0635,4.1208,4.115,4.1474,4.2042,4.225,4.2305,4.2284,4.2581,4.2757,4.2833,4.2852,4.2868,4.2898,4.2775,4.2705,4.2705,4.2705,4.2699,4.2698,4.2773,4.2582,4.2186,4.3481,4.4365,4.4802,4.5471,4.5932,4.6196,4.6203,4.624,4.6303,4.5464,4.4594,4.3723,4.2845,4.1986,4.1147,4.0912,4.0483,3.9839,3.9429,0.0,0.0,0.0,0.0,0.0,0.0,0.0,0.0,0.0,3.7352,3.8219,0.0,3.8352,0.0,3.9106,3.9755,4.0398,4.068,0.0,0.0,4.0989,4.1111,4.112,4.169,4.242,4.3297,4.4696,4.5945,4.6788,4.7823,4.8418,4.8209,4.8137,4.8176,4.8382,4.8388,4.8682,4.942,4.9584,4.9826,5.0386,5.0538,5.0513,5.0746,5.0979,5.1095,5.1108,5.119,5.1202,5.1202,5.1202,5.1214,5.1217,5.12,5.1113,5.0743,5.0674,5.0722,5.0953,5.0981,5.1059,5.468,5.3503,5.2972,5.1744,5.013,4.9989,4.8683,4.6627,4.5822,4.4173,4.1972,4.1571,4.1666,4.2067,4.2086,4.2296,4.2714,4.3056,4.3207,4.3185,4.3692,4.3943,4.3981,4.3811,4.3736,4.3762,4.3452,4.3305,4.3305,4.3305,4.3318,4.3312,4.3717,4.3691,4.3264,4.4247,4.4948,4.5337,4.5842,4.613,4.6201,4.6203,4.6209,4.625,4.5831,4.5176,4.4302,4.3427,4.2572,4.1713,4.1303,4.0873,4.0405,4.0015,3.9605,0.0,0.0,0.0,0.0,0.0,0.0,0.0,0.0,0.0,0.0,0.0,3.9263,3.9637,4.0437,4.1148,4.161,4.1968,4.2221,4.2214,4.2214,4.22,4.2217,4.2646,4.328,4.4142,4.505,4.6084,4.7333,4.8263,4.8961,4.9315,4.9677,4.9738,4.9359,4.9289,4.9566,5.0315,5.048,5.0614,5.1093,5.1127,5.1076,5.1076,5.1076,5.1108,5.1139,5.1171,5.1202,5.1202,5.1214,5.1206,5.1208,5.122,5.1249,5.1287,5.1295,5.1304,5.13,5.13,5.13,5.5297,5.3916,5.3781,5.284,5.137,5.0969,4.9778,4.8008,4.6512,4.5189,4.4058,4.3289,4.2943,4.2966,4.2965,4.2983,4.3077,4.3762,4.4067,4.4126,4.4934,4.538,4.5456,4.487,4.4623,4.4622,4.3968,4.3614,4.3634,4.3614,4.3614,4.3653,4.4408,4.4712,4.4615,4.4661,4.5122,4.5977,4.6066,4.6141,4.6197,4.6201,4.6203,4.6203,4.625,4.5889,4.5011,4.4263,4.343,4.2432,4.1654,4.1205,4.1088,4.0385,3.9976,0.0,3.9312,0.0,0.0,0.0,0.0,0.0,0.0,0.0,0.0,4.0102,4.05,4.1354,4.2103,4.2526,4.2474,4.315,4.3617,4.3598,4.3617,4.3604,4.3598,4.3701,4.4039,4.4816,4.5187,4.6008,4.7474,4.8504,4.9441,5.0175,5.081,5.0967,5.0355,5.017,5.041,5.1123,5.121,5.1081,5.1113,5.112,5.1108,5.1108,5.1108,5.1127,5.1171,5.1202,5.1202,5.1214,5.1217,5.1208,5.1219,5.1259,5.1306,5.1295,5.1312,5.13,5.13,5.13,5.13,5.5841,5.5487,5.4849,5.4397,5.4037,5.255,5.048,4.8158,4.7813,4.6338,4.4135,4.3904,4.3846,4.3765,4.3767,4.4149,4.4819,4.4951,4.5027,4.5067,4.5284,4.5438,4.5513,4.5461,4.5484,4.5549,4.538,4.5336,4.5316,4.5316,4.5316,4.5336,4.5551,4.5299,4.4634,0.0,0.0,0.0,4.6056,4.6104,4.6114,4.6177,4.6201,4.6203,4.6203,0.0,4.4977,4.4816,4.4025,4.2498,4.2236,0.0,0.0,0.0,0.0,0.0,0.0,0.0,0.0,0.0,0.0,0.0,4.137,4.1459,4.0932,4.1503,4.2261,4.3044,4.3286,4.3376,4.3364,4.3491,4.3619,4.3615,4.3615,4.3615,4.3622,4.4221,4.4722,4.4884,4.6716,4.8132,4.8514,4.99,5.0907,5.1073,5.1307,5.1336,5.1147,5.1057,5.1113,5.1267,5.124,5.119,5.1178,5.1178,5.1186,5.1202,5.1171,5.119,5.1202,5.1202,5.1214,5.1217,5.1208,5.1229,5.1269,5.1287,5.1295,5.1312,5.1292,5.13,5.13,5.13,5.13,5.5273,5.4742,5.3901,5.3352,0.0,5.2046,5.0859,4.954,4.8593,4.7124,4.5419,4.5841,4.6014,4.5937,4.5554,4.563,4.5994,4.5572,4.5341,4.5341,4.5381,4.5438,4.5513,4.5632,4.5499,4.5162,4.5186,4.4968,4.4581,4.4562,4.4562,4.4581,4.4608,4.4395,4.4028,4.4408,4.4839,4.5297,4.5792,4.6056,4.6056,4.6114,4.5935,4.5543,4.5533,0.0,0.0,0.0,0.0,0.0,0.0,0.0,0.0,4.2162,0.0,4.2396,4.238,4.2385,4.2376,4.2422,4.2419,4.2396,4.2795,4.2842,4.242,4.2773,4.3161,4.3565,4.3966,4.4184,4.4199,4.4565,4.4857,4.4873,4.4853,4.4834,4.4927,4.5239,4.5511,4.5631,4.6695,4.7805,4.869,4.9508,5.0472,5.1234,5.1386,5.1394,5.1394,5.1341,5.1296,5.1295,5.1278,5.124,5.122,5.121,5.119,5.1208,5.1208,5.1217,5.1206,5.1217,5.1208,5.1219,5.121,5.1259,5.1287,5.1295,5.1312,5.13,5.13,5.13,5.1296,5.1296,5.1323,5.4574,5.3756,5.2872,5.2136,5.1546,5.1391,5.1184,5.0879,0.0,0.0,0.0,4.778,4.7932,4.7736,4.695,4.649,4.6317,4.5571,4.5132,4.4978,4.4997,4.513,4.5318,4.5436,4.5132,4.4544,4.4587,4.4253,4.3556,4.3518,4.3614,4.373,4.375,4.3705,4.3673,4.4408,4.4815,4.4867,4.5743,4.6294,4.6452,4.6503,4.6124,4.5267,4.5309,4.4922,4.4098,4.3431,4.2943,4.2639,4.2627,4.2552,4.2435,4.3079,4.3548,4.3684,4.3707,4.3693,4.3702,4.371,4.3768,4.3921,4.3774,4.3755,4.3904,4.3869,4.3903,4.4043,4.4642,4.5043,4.5023,4.5637,4.6113,4.6177,4.6141,4.6102,4.6154,4.6119,4.6072,4.622,4.6532,4.7167,4.8604,4.9189,4.9756,5.1025,5.1398,5.1307,5.1222,5.1224,5.1303,5.1304,5.1295,5.1287,5.122,5.1016,5.0996,5.0899,5.0782,5.0743,5.0761,5.0869,5.0899,5.0606,5.088,5.0927,5.0858,5.0875,5.1047,5.1086,5.1183,5.1308,5.1291,5.1187,5.1057,5.4816,5.4629,5.372,5.3294,5.3194,5.2438,5.1659,5.0887,5.0574,4.9892,4.8991,4.8356,4.7677,4.694,4.6136,4.5355,4.4645,4.4512,4.4051,4.3359,4.3393,4.3827,4.455,4.4635,4.4622,4.4587,4.4587,4.4562,4.4427,4.4407,4.4755,4.5316,4.5452,4.5084,4.4562,4.523,4.5621,4.5641,4.6565,4.7391,4.8128,4.823,4.7845,4.7087,4.6999,4.6664,4.5864,4.5676,4.5011,4.3611,4.3505,4.3177,4.2454,4.2572,4.2923,4.3626,4.3704,4.3707,4.371,4.37,4.4025,4.4687,4.413,4.3989,4.4665,4.4727,4.5033,4.5726,4.5821,4.59,4.5938,4.5959,4.6047,4.6105,4.6105,4.6105,4.6143,4.6152,4.618,4.6275,4.7509,4.8355,4.8857,5.0014,5.0891,5.1297,5.131,5.111,5.0555,5.0887,5.1245,5.13,5.1292,5.1256,5.0996,5.0588,5.0228,5.0079,4.9535,4.9234,4.9301,4.974,4.9867,4.9148,4.9722,4.9867,4.9359,4.9707,5.0151,5.0307,5.077,5.1213,5.131,5.083,5.0297,5.4186,5.3979,5.2739,5.2225,5.2214,5.1871,5.1424,5.0928,5.0422,4.9942,4.9452,4.9065,4.8436,4.7579,4.677,4.6201,4.5777,4.4804,4.4383,4.4441,4.4001,4.4264,4.5063,4.5167,4.4984,4.462,4.4581,4.4369,4.3924,4.3904,4.4078,4.4465,4.491,4.5181,4.5297,4.6085,4.6943,4.7761,4.7781,4.8009,4.8438,4.8483,4.7888,4.6643,4.6638,4.6017,4.4724,4.4764,4.4423,4.3662,4.3641,4.3675,4.3763,4.3753,4.4168,4.5051,4.5079,4.5079,4.5112,4.5119,4.487,4.4371,4.4374,4.4538,4.486,4.4889,4.5248,4.6041,4.6123,4.6105,4.6114,4.6047,4.6017,4.6075,4.6105,4.6105,4.6173,4.656,4.6822,4.6936,4.7918,4.888,4.9383,5.0151,5.0872,5.1238,5.105,5.0389,4.9528,4.9694,4.9945,4.9939,4.9944,4.9929,4.9904,4.9612,4.9526,4.9838,4.9255,4.8954,4.9177,4.945,4.909,4.8778,4.9069,4.9153,4.8772,4.9422,4.9878,5.0034,5.0283,5.0771,5.1082,5.0356,4.9478,5.3293,5.3122,5.1696,5.1082,5.1076,5.0957,5.0933,5.0959,5.0306,4.9749,4.9278,4.9118,4.8655,4.799,4.7182,4.6704,4.638,4.51,4.4703,4.5055,4.445,4.4716,4.5654,4.5776,4.5462,4.4929,4.4871,4.4427,4.3672,4.3595,4.3808,4.4175,4.4833,4.5587,4.638,4.724,4.8295,4.9421,4.9073,4.889,4.8948,4.8972,4.8232,4.6868,4.6804,4.5995,4.437,4.4356,4.4273,4.3911,4.3883,4.4221,4.4844,4.489,4.5325,4.6119,4.6222,4.6228,4.6253,4.6084,4.5508,4.4425,4.4531,4.4861,4.5151,4.5041,4.5248,4.5946,4.6114,4.6095,4.6076,4.6056,4.6047,4.6075,4.628,4.6426,4.6474,4.7135,4.7678,4.7782,4.8463,4.9231,4.9617,4.9878,5.0197,5.0518,5.0207,4.9492,4.8721,4.8509,4.8465,4.8346,4.8535,4.8853,4.8768,4.8604,4.874,4.9336,4.8674,4.8346,4.865,4.8588,4.8491,4.8358,4.8413,4.8441,4.8526,4.8923,4.9379,4.9535,4.9731,4.9945,5.0156,4.94,4.8572,5.2523,5.2363,5.1496,5.1089,5.1017,5.0355,5.0433,5.0998,5.0984,5.0046,4.8591,4.7722,4.7322,4.7105,4.6397,4.5667,4.4982,4.4731,4.4344,4.375,4.3446,4.4258,4.58,4.5814,4.5756,4.5684,4.5664,4.522,4.4523,4.4523,4.5239,4.6593,4.6825,4.7289,4.814,4.8941,4.9451,4.9605,5.0196,5.0506,5.0559,5.0626,5.021,4.9301,4.9238,4.8474,4.6745,4.6876,4.625,4.4859,4.4744,4.4805,4.491,4.4904,4.528,4.6044,4.6164,4.6201,4.6137,4.547,4.534,4.5875,4.4629,4.4527,4.5866,4.5406,4.5293,4.5935,4.6123,4.6154,4.6026,4.6095,4.6144,4.6192,4.6668,4.7212,4.7242,4.8011,4.8506,4.858,4.9145,4.9659,4.9177,4.9508,4.9685,4.921,4.9064,4.8604,4.7812,4.7627,4.7416,4.7084,4.7741,4.8574,4.8514,4.7993,4.777,4.7687,4.6997,4.6831,4.7025,4.7395,4.7514,4.754,4.754,4.7537,4.7545,4.7715,4.8107,4.8756,4.8878,4.879,4.8218,4.7929,4.781,5.2401,5.2311,5.1515,5.1146,5.1035,5.0242,5.0098,5.0301,4.929,4.8421,4.774,4.6842,4.6448,4.6445,4.61,4.5731,4.5429,4.5413,4.553,4.5626,4.5589,4.622,4.724,4.682,4.6573,4.6496,4.6051,4.5626,4.5452,4.5819,4.6438,4.7154,4.8082,4.8817,4.9223,4.9981,5.0356,5.0378,5.0619,5.0757,5.0757,5.0757,5.0387,4.9647,4.9531,4.9006,4.7917,4.7882,4.7391,4.6228,4.5733,4.5502,4.5529,4.5074,4.5191,4.6054,4.6153,4.592,4.5421,4.5547,4.5397,4.4823,4.4599,4.4822,4.5408,4.5193,4.5316,4.6006,4.656,4.6853,4.6824,4.6805,4.6833,4.6795,4.6687,4.657,4.6581,4.7349,4.7903,4.7979,4.8725,4.9208,4.8904,4.9079,4.8918,4.8248,4.8035,4.7689,4.6926,4.6758,4.6653,4.6471,4.6936,4.7195,4.7249,4.6989,4.6936,4.7155,4.6738,4.6251,4.6777,4.6621,4.6699,4.6738,4.6746,4.6734,4.669,4.7203,4.7665,4.8092,4.8489,4.844,4.7128,4.7264,4.7356,5.2078,5.1942,5.1171,5.0989,5.1105,5.0012,4.9692,4.9741,4.8322,4.7553,4.7291,4.6688,4.6406,4.6377,4.6153,4.6017,4.5998,4.5958,4.6327,4.692,4.686,4.7256,4.8031,4.7729,4.7347,4.7076,4.6742,4.6394,4.6245,4.6767,4.7328,4.7927,4.9088,4.9803,5.0074,5.0654,5.0909,5.0897,5.0863,5.0793,5.072,5.0702,5.0432,4.9889,4.9832,4.9409,4.8579,4.8671,4.8213,4.712,4.6545,4.6282,4.6288,4.5526,4.5362,4.5998,4.6061,4.5778,4.5162,4.557,4.5415,4.4575,4.4836,4.5121,4.5311,4.533,4.5562,4.6079,4.6897,4.7319,4.7038,4.698,4.6999,4.698,4.6542,4.6396,4.6484,4.7194,4.7806,4.7823,4.8452,4.8651,4.8456,4.8222,4.7762,4.7268,4.7123,4.6967,4.6397,4.6285,4.6308,4.6288,4.6315,4.6312,4.6226,4.6287,4.6554,4.6742,4.6502,4.6397,4.7021,4.6495,4.6475,4.6846,4.6436,4.6404,4.6768,4.7223,4.7201,4.7338,4.7751,4.7944,4.6699,4.6949,4.69,5.126,5.1163,5.0328,5.0503,5.1047,4.9448,4.9197,4.9907,4.8952,4.8171,4.7525,4.7408,4.7389,4.7311,4.6586,4.6098,4.6084,4.6236,4.638,4.6491,4.6415,4.6649,4.728,4.8023,4.7985,4.7424,4.7821,4.7724,4.7076,4.7154,4.7947,4.9494,4.9687,5.0113,5.0693,5.0848,5.0906,5.0909,5.0877,5.0863,5.0793,5.0739,5.0682,5.0606,5.0625,5.0202,4.9509,4.9481,4.8794,4.7098,4.7099,4.7126,4.7023,4.6329,4.5902,4.5929,4.5937,4.5944,4.5832,4.5418,4.5306,4.5846,4.5414,4.5353,4.6032,4.6071,4.6085,4.6201,4.6843,4.6988,4.6338,4.6416,4.6358,4.6328,4.6853,4.7116,4.7242,4.7689,4.8477,4.8446,4.8405,4.8187,4.7618,4.6819,4.6566,4.6385,4.6306,4.6275,4.6253,4.6254,4.6285,4.6289,4.6306,4.6295,4.6292,4.625,4.6234,4.6371,4.6423,4.6242,4.6222,4.6281,4.669,4.6885,4.6495,4.6501,4.702,4.7021,4.6628,4.6703,4.7144,4.7011,4.6442,4.6334,4.644,5.1202,5.1183,5.0872,5.0922,5.1061,4.9974,4.9693,4.9857,4.851,4.7786,4.7521,4.7482,4.7482,4.7513,4.7749,4.7807,4.7839,4.8346,4.8619,4.8723,4.9136,4.9478,4.9644,4.9489,4.9165,4.8798,4.8508,4.8251,4.8063,4.8469,4.9068,4.9668,5.0229,5.0654,5.0867,5.0906,5.0906,5.089,5.0897,5.0899,5.0863,5.0793,5.0776,5.0758,5.0721,5.0568,5.024,5.0331,4.9575,4.7877,4.7869,4.7423,4.6481,4.608,4.5937,4.597,4.646,4.6596,4.6173,4.6391,4.6397,4.6211,4.5963,4.5858,4.6191,4.6237,4.6206,4.6261,4.6372,4.6367,4.6309,4.6572,4.6902,4.6882,4.6658,4.6542,4.6542,4.6805,4.7009,4.7036,4.7061,4.6968,4.68,4.6391,4.6215,4.6196,4.6209,4.6203,4.6201,4.623,4.6234,4.6241,4.6268,4.6306,4.6295,4.6273,4.625,4.6226,4.622,4.622,4.6201,4.6201,4.6513,4.6571,4.6318,4.6343,4.6743,4.6706,4.6293,4.6381,4.6816,4.6795,4.6362,4.6309,4.6596,5.1202,5.1214,5.1214,5.1217,5.1113,5.0335,4.9984,4.9854,4.8546,4.7917,4.7917,4.7917,4.8054,4.8392,4.8951,4.9412,4.9586,4.9666,4.9633,4.9708,5.0192,5.0391,5.0296,5.0001,4.9672,4.9282,4.8716,4.8527,4.8856,4.9417,4.9823,5.0132,5.0654,5.0906,5.0906,5.0906,5.0906,5.0909,5.0913,5.0897,5.088,5.0863,5.081,5.0793,5.0758,5.0759,5.072,5.0812,5.0212,4.8935,4.8497,4.7574,4.6112,4.6171,4.6203,4.6048,4.6527,4.6696,4.6279,4.6722,4.6801,4.6304,4.62,4.6229,4.6278,4.6238,4.6215,4.6193,4.616,4.6123,4.6211,4.663,4.697,4.6902,4.6386,4.6037,4.6037,4.6085,4.6153,4.6227,4.6298,4.6254,4.6196,4.6215,4.6196,4.6196,4.6203,4.6209,4.6196,4.6206,4.6214,4.6214,4.6237,4.6267,4.6269,4.6248,4.6264,4.6238,4.624,4.624,4.6216,4.6216,4.6216,4.6236,4.6236,4.626,4.6273,4.6293,4.6303,4.6289,4.6386,4.6479,4.6317,4.6309,4.6733,5.1206,5.1208,5.1208,5.121,5.1113,5.0441,5.004,4.9952,4.9189,4.8794,4.8775,4.8821,4.9185,4.9861,5.0017,5.0537,5.0825,4.9801,4.9224,4.9224,4.92,4.9181,4.9191,4.9867,4.969,4.8929,4.8565,4.8948,4.9717,4.9833,5.0167,5.0751,5.0848,5.0906,5.0906,5.0906,5.0906,5.089,5.0909,5.0893,5.0899,5.0899,5.0863,5.081,5.0849,5.085,5.081,5.0866,5.0458,4.9586,4.8879,4.7618,4.6317,4.6577,4.6765,4.6139,4.6134,4.6163,4.6134,4.629,4.6494,4.6262,4.623,4.6226,4.6261,4.624,4.6215,4.6205,4.6197,4.6158,4.6113,4.6183,4.6202,4.6046,4.6085,4.6066,4.6076,4.6105,4.6134,4.6177,4.6208,4.6196,4.6196,4.6196,4.6196,4.6203,4.6209,4.6196,4.6235,4.6312,4.6284,4.6231,4.6366,4.6524,4.6371,4.6219,4.625,4.6258,4.6267,4.6277,4.6273,4.6273,4.6264,4.6264,4.6231,4.6254,4.628,4.6297,4.6289,4.6305,4.63,4.6317,4.6326,4.6456,4.7002,5.1206,5.1208,5.1208,5.122,5.1239,5.0995,5.0906,5.0786,4.9995,4.9644,4.9625,4.9632,4.9802,5.0199,5.0703,5.1138,5.1342,5.0805,5.0594,5.0555,5.0555,5.0499,5.0518,5.0755,5.0705,5.0417,5.0328,5.0456,5.0627,5.0655,5.0829,5.099,5.0937,5.0906,5.0906,5.0906,5.0906,5.0906,5.0906,5.0909,5.0909,5.0913,5.0893,5.0893,5.0897,5.0877,5.0858,5.0893,5.0488,4.973,4.9421,4.8522,4.7099,4.6474,4.6247,4.6162,4.6678,4.6714,4.6322,4.6683,4.6788,4.6393,4.6212,4.6206,4.622,4.6229,4.6208,4.6205,4.6149,4.6122,4.6093,4.6056,4.6047,4.6056,4.6047,4.6047,4.6104,4.6152,4.6177,4.6185,4.6208,4.6196,4.6215,4.6235,4.6313,4.641,4.6378,4.6385,4.6365,4.6963,4.6755,4.6371,4.664,4.7138,4.7186,4.7194,4.7154,4.6835,4.66,4.6319,4.6276,4.6276,4.628,4.6284,4.6247,4.6247,4.628,4.6286,4.6285,4.6295,4.629,4.6323,4.637,4.6761,4.7311,5.1208,5.124,5.124,5.1269,5.1295,5.1304,5.1312,5.1222,5.0735,5.0482,5.0502,5.0482,5.0524,5.0692,5.1167,5.1371,5.1386,5.139,5.1394,5.1394,5.1394,5.1381,5.1336,5.131,5.1281,5.1248,5.1201,5.1211,5.1211,5.1159,5.1144,5.1113,5.1023,5.0966,5.0966,5.0941,5.1003,5.1312,5.1389,5.1389,5.1389,5.1389,5.1235,5.0964,5.0906,5.0906,5.0906,5.0906,5.0693,5.019,4.9881,4.889,4.7365,4.6707,4.6333,4.6231,4.6555,4.6709,4.6351,4.6644,4.6835,4.6323,4.621,4.6214,4.6203,4.6203,4.6208,4.6201,4.6166,4.6149,4.6141,4.6085,4.6056,4.6113,4.6037,4.6027,4.6093,4.6177,4.6212,4.6201,4.6208,4.6352,4.6585,4.6683,4.6995,4.7365,4.7618,4.7618,4.7774,4.8431,4.8139,4.8068,4.862,4.8749,4.8352,4.8226,4.8133,4.7592,4.7024,4.6562,4.6249,4.625,4.625,4.6269,4.6249,4.625,4.6269,4.6247,4.6228,4.6261,4.6335,4.655,4.6722,4.7116,4.7725,5.124,5.1306,5.1306,5.1295,5.13,5.13,5.13,5.13,5.1242,5.1203,5.1222,5.1172,5.1252,5.1341,5.1367,5.1394,5.1394,5.1394,5.1394,5.1355,5.1297,5.1234,5.1367,5.1336,5.1316,5.1288,5.125,5.1239,5.1248,5.121,5.1211,5.1191,5.1136,5.1095,5.1069,5.0966,5.1328,5.195,5.2105,5.2124,5.2221,5.2279,5.195,5.1235,5.1138,5.1099,5.1119,5.0983,5.0906,5.079,5.0094,4.8982,4.7649,4.7311,4.6882,4.6205,4.6164,4.6294,4.628,4.6337,4.6327,4.6275,4.6221,4.621,4.6209,4.6203,4.6196,4.6208,4.6193,4.6205,4.6177,4.6123,4.6095,4.6075,4.6056,4.6056,4.6104,4.6216,4.6407,4.6403,4.6352,4.6741,4.7676,4.7735,4.8397,4.9216,4.9605,4.9488,4.9683,4.9878,5.0521,5.0541,5.0275,5.0146,4.9699,4.9231,4.912,4.8722,4.8123,4.7611,4.6981,4.6881,4.6625,4.6569,4.6749,4.6614,4.6512,4.6667,4.6464,4.6269,4.6479,4.6815,4.7249,4.7678,4.8385,5.124,5.1306,5.1306,5.1304,5.13,5.13,5.13,5.13,5.1296,5.1296,5.1308,5.1349,5.1375,5.1386,5.139,5.1394,5.1394,5.1394,5.1394,5.1297,5.0692,5.0867,5.1277,5.1386,5.1367,5.1371,5.1352,5.1366,5.1361,5.1303,5.1269,5.1269,5.1201,5.1147,5.1108,5.1069,5.146,5.2082,5.2221,5.2589,5.3091,5.3149,5.3072,5.2821,5.2182,5.1892,5.1776,5.1235,5.0906,5.0848,5.0143,4.9243,4.8257,4.7684,4.7115,4.6488,4.6245,4.6238,4.6306,4.6287,4.6276,4.6234,4.6206,4.6206,4.6209,4.6203,4.6208,4.6201,4.6212,4.6205,4.6185,4.6171,4.6124,4.6047,4.6192,4.6211,4.625,4.6694,4.7089,4.7186,4.8156,4.8845,4.9157,4.9372,4.9586,5.0053,5.0248,5.019,5.056,5.0989,5.1495,5.1222,5.1028,5.1145,5.0969,5.0443,5.0061,4.9795,4.9439,4.9192,4.8638,4.8307,4.7833,4.7423,4.8108,4.8216,4.7869,4.7743,4.7209,4.7064,4.744,4.8123,4.8094,4.8391,4.92,5.1258,5.1304,5.1304,5.1312,5.13,5.13,5.1308,5.1296,5.1303,5.131,5.1349,5.1382,5.1391,5.1394,5.1394,5.1394,5.1394,5.1394,5.118,5.0692,4.995,5.0048,5.0731,5.1141,5.1394,5.1394,5.1394,5.1394,5.139,5.1352,5.1347,5.1316,5.1269,5.1219,5.122,5.152,5.2,5.2724,5.3085,5.3556,5.4,5.4039,5.3788,5.3536,5.2956,5.2627,5.2182,5.1386,5.0956,5.0859,5.0448,4.9885,4.9167,4.869,4.8035,4.7345,4.7018,4.682,4.6752,4.6502,4.6241,4.6215,4.6209,4.6196,4.6203,4.6196,4.6208,4.6201,4.6201,4.6201,4.6271,4.6441,4.661,4.6688,4.694,4.7027,4.6737,4.7454,4.7887,4.8304,4.9111,5.019,5.0482,5.0833,5.1242,5.1593,5.1885,5.1612,5.1437,5.1904,5.2177,5.1963,5.2177,5.2469,5.284,5.2547,5.2275,5.1885,5.1339,5.1008,5.0502,5.0034,4.9574,4.9301,4.9652,4.9761,4.9437,4.9281,4.9367,4.9341,4.9406,4.9393,4.9463,4.9494,5.0284,5.1304,5.13,5.13,5.13,5.13,5.13,5.1308,5.131,5.1317,5.1343,5.1388,5.1394,5.1396,5.1394,5.1394,5.1394,5.1394,5.1394,5.0734,5.0032,4.9332,4.9313,4.9989,5.077,5.1199,5.1355,5.1394,5.1511,5.1629,5.1625,5.1668,5.1815,5.1706,5.159,5.1826,5.2143,5.2802,5.3695,5.425,5.4649,5.4885,5.4907,5.4639,5.4116,5.3514,5.2953,5.2253,5.1474,5.102,5.1034,5.1,5.0539,4.9953,4.9838,4.9425,4.8634,4.7896,4.7476,4.7422,4.669,4.621,4.6201,4.6216,4.6203,4.6196,4.6196,4.6332,4.678,4.641,4.6527,4.6812,4.7264,4.7598,4.7708,4.8253,4.8359,4.8048,4.8377,4.8861,4.8994,4.9703,5.0599,5.132,5.2099,5.2762,5.2275,5.2567,5.2353,5.2158,5.243,5.2703,5.2781,5.3268,5.397,5.4398,5.4768,5.4593,5.434,5.3677,5.3171,5.2606,5.2119,5.1659,5.1445,5.1417,5.1339,5.1152,5.1179,5.1367,5.1082,5.0784,5.0986,5.1213,5.118,5.162,5.1292,5.13,5.13,5.13,5.13,5.13,5.1296,5.1317,5.1349,5.1375,5.14,5.1396,5.139,5.1394,5.1355,5.1394,5.1301,5.1203,5.0582,4.9148,4.8941,4.8858,4.9293,5.0051,5.075,5.1199,5.1394,5.1746,5.2195,5.237,5.2761,5.3225,5.2694,5.2698,5.315,5.284,5.3283,5.4439,5.4848,5.5259,5.5714,5.5714,5.5567,5.5219,5.4207,5.3139,5.2322,5.1499,5.1095,5.1095,5.1042,5.0728,5.016,5.0018,4.9711,4.9017,4.816,4.7636,4.748,4.6898,4.6275,4.6294,4.6391,4.6216,4.6196,4.6371,4.6975,4.7676,4.7676,4.7572,4.7954,4.888,4.8922,4.8758,4.9175,4.9651,4.9495,4.9593,4.9737,5.0038,5.1,5.208,5.2255,5.243,5.282,5.2918,5.2879,5.2801,5.2762,5.2762,5.2762,5.2723,5.3034,5.3483,5.4009,5.4593,5.5119,5.5256,5.4983,5.4905,5.434,5.3794,5.3179,5.2957,5.2976,5.2906,5.2925,5.3023,5.321,5.2653,5.2232,5.2473,5.2701,5.2727,5.2597,5.13,5.13,5.13,5.1308,5.1296,5.1296,5.131,5.1355,5.138,5.1391,5.1396,5.139,5.1394,5.1355,5.1004,5.0793,5.0669,5.0322,4.9701,4.8924,4.8828,4.9022,4.9429,4.9893,5.0535,5.1285,5.1385,5.1893,5.2491,5.2804,5.3073,5.3932,5.3522,5.3494,5.3975,5.3774,5.4231,5.4927,5.5404,5.5828,5.6149,5.6151,5.6078,5.5888,5.482,5.3766,5.2952,5.2155,5.1586,5.1264,5.1172,5.1014,5.0677,5.0621,5.0395,4.9958,4.8789,4.822,4.7979,4.7393,4.6883,4.6858,4.7157,4.7606,4.7852,4.7988,4.8573,4.9391,4.9255,4.8799,4.8811,4.9473,4.9601,4.9659,5.0068,5.0583,5.0603,5.0603,5.0603,5.0836,5.1721,5.2314,5.2645,5.2664,5.2723,5.2801,5.2684,5.2567,5.1963,5.1963,5.208,5.2138,5.2353,5.2723,5.3268,5.4009,5.4983,5.5275,5.5411,5.5587,5.5587,5.5041,5.4496,5.4457,5.4457,5.4827,5.4894,5.4983,5.4846,5.4679,5.4387,5.4258,5.3966,5.372,5.3533,5.13,5.1308,5.1308,5.1296,5.1317,5.1336,5.1355,5.1396,5.1396,5.1284,5.118,5.1199,5.0965,5.0809,5.0234,4.9949,4.9878,4.9336,4.8926,4.9179,4.8885,4.9275,4.9804,5.0136,5.0546,5.1333,5.1631,5.2158,5.2797,5.3104,5.3888,5.431,5.4248,5.4424,5.4567,5.4788,5.5151,5.5489,5.595,5.6221,5.631,5.6258,5.6179,5.5996,5.5312,5.4563,5.3747,5.2912,5.2103,5.1463,5.1342,5.1313,5.1351,5.1515,5.1594,5.1517,5.0267,4.9795,4.9586,4.884,4.8281,4.8125,4.8729,4.941,4.9898,4.9859,5.0248,5.0852,5.093,5.0346,4.943,5.0151,5.0424,5.0365,5.0891,5.1222,5.13,5.13,5.1222,5.132,5.1651,5.2041,5.2372,5.2508,5.2586,5.2625,5.2489,5.2255,5.1651,5.1339,5.1554,5.1865,5.2158,5.2801,5.3366,5.3132,5.4145,5.4827,5.5236,5.545,5.5782,5.5119,5.4593,5.5704,5.5996,5.5976,5.5976,5.5899,5.5957,5.6327,5.5996,5.5283,5.4913,5.4652,5.4348,5.1308,5.131,5.131,5.1336,5.1369,5.1369,5.1322,5.1396,5.1284,5.0976,5.0356,5.0301,4.9911,4.941,4.9154,4.9374,4.9551,4.9217,4.9232,4.9582,4.9344,4.9475,5.0103,5.0298,5.0656,5.1405,5.2031,5.2831,5.371,5.4491,5.4898,5.5692,5.5399,5.5355,5.5638,5.5699,5.5689,5.6065,5.6333,5.6387,5.6383,5.6339,5.6275,5.6185,5.5567,5.5063,5.4518,5.341,5.2492,5.2305,5.1728,5.145,5.154,5.201,5.2344,5.2241,5.1865,5.1391,5.134,5.106,5.0771,5.0774,5.0728,5.0813,5.0891,5.0579,5.1008,5.1943,5.2606,5.245,5.1067,5.13,5.1573,5.1378,5.1145,5.13,5.13,5.13,5.13,5.1339,5.1495,5.1612,5.1885,5.2041,5.2002,5.1982,5.1904,5.1807,5.1495,5.13,5.1378,5.171,5.2099,5.2879,5.3677,5.3073,5.3171,5.395,5.434,5.432,5.4476,5.4281,5.4515,5.5353,5.5743,5.5528,5.5762,5.6132,5.6132,5.5821,5.586,5.5918,5.5256,5.4593,5.4613,5.1356,5.1362,5.1343,5.1375,5.1308,5.0898,5.0728,5.0664,5.0254,4.9829,4.9517,4.9403,4.9226,4.8769,4.8318,4.8453,4.8765,4.9461,4.967,4.998,5.0149,5.0301,5.0731,5.0731,5.0992,5.1548,5.2275,5.3122,5.3965,5.4336,5.5351,5.6229,5.6131,5.6207,5.6434,5.6204,5.6185,5.6559,5.6532,5.6499,5.6497,5.6449,5.6396,5.6232,5.5978,5.5587,5.4909,5.402,5.3052,5.255,5.1806,5.1484,5.1659,5.2103,5.2687,5.2641,5.2365,5.2088,5.2175,5.1859,5.1648,5.0864,5.1429,5.1943,5.1904,5.1729,5.171,5.2372,5.2781,5.2723,5.1398,5.1749,5.1671,5.1437,5.13,5.13,5.13,5.13,5.13,5.13,5.1378,5.1437,5.1378,5.1456,5.1359,5.13,5.13,5.13,5.13,5.13,5.13,5.1476,5.1826,5.2294,5.2957,5.2606,5.2411,5.3112,5.3444,5.3405,5.3463,5.3405,5.3853,5.4574,5.4768,5.4632,5.4788,5.4905,5.508,5.5256,5.5041,5.4866,5.4749,5.4574,5.4476,5.1394,5.14,5.14,5.1308,5.103,5.0425,5.0,4.9712,4.915,4.8779,4.856,4.8548,4.8435,4.8189,4.7923,4.7813,4.815,4.9622,5.0126,5.0535,5.0945,5.1336,5.1375,5.1394,5.1375,5.1476,5.1945,5.2895,5.355,5.3984,5.4941,5.5781,5.6289,5.6484,5.6504,5.6517,5.661,5.6605,5.6618,5.6606,5.6602,5.6553,5.6491,5.6449,5.6445,5.6088,5.5504,5.4658,5.3969,5.3221,5.2402,5.1713,5.1745,5.2147,5.2487,5.2565,5.2175,5.1995,5.2147,5.2498,5.2421,5.1604,5.2247,5.2703,5.2762,5.2567,5.243,5.2411,5.2314,5.2138,5.1437,5.1339,5.1339,5.132,5.13,5.13,5.13,5.13,5.13,5.13,5.13,5.13,5.1292,5.13,5.13,5.13,5.13,5.13,5.13,5.13,5.13,5.13,5.1476,5.171,5.1963,5.1924,5.1963,5.2489,5.2567,5.2469,5.2586,5.2684,5.3151,5.3435,5.3288,5.319,5.3424,5.3872,5.4301,5.4437,5.4067,5.3833,5.3775,5.3853,5.3872,5.14,5.1396,5.1377,5.0972,5.0297,5.0063,4.9595,4.8974,4.8743,4.8369,4.7842,4.7689,4.7361,4.7113,4.7588,4.8466,4.9462,5.0048,5.0575,5.1063,5.1297,5.1394,5.1394,5.1394,5.1394,5.1472,5.1629,5.2062,5.295,5.3692,5.4538,5.5464,5.5796,5.5874,5.6715,5.666,5.6619,5.6632,5.6637,5.6606,5.6614,5.6593,5.6593,5.6568,5.6532,5.6479,5.6149,5.5429,5.4863,5.4684,5.3305,5.2593,5.2452,5.1828,5.2097,5.2663,5.3225,5.3665,5.3431,5.3507,5.3318,5.2742,5.3307,5.3658,5.3229,5.2723,5.2177,5.1476,5.1495,5.1507,5.1351,5.1312,5.13,5.1292,5.1256,5.1265,5.1284,5.1248,5.1248,5.1265,5.1265,5.1265,5.1284,5.1292,5.13,5.13,5.13,5.13,5.13,5.13,5.13,5.13,5.13,5.1515,5.1573,5.1437,5.1565,5.1974,5.1896,5.1721,5.1849,5.1985,5.1752,5.1927,5.1877,5.2266,5.2881,5.3349,5.3708,5.3619,5.3249,5.3015,5.2859,5.2995,5.3132,5.0659,5.0664,5.0664,5.0161,4.9345,4.8915,4.847,4.8069,4.7606,4.7484,4.7458,4.7042,4.6894,4.7224,4.8369,4.9384,5.0126,5.0594,5.1004,5.1297,5.1394,5.1394,5.1394,5.1394,5.1394,5.157,5.1882,5.2351,5.2936,5.3678,5.4603,5.5821,5.6035,5.6523,5.6976,5.6783,5.6948,5.7011,5.6912,5.6634,5.6616,5.662,5.6621,5.662,5.6621,5.662,5.6404,5.5776,5.5321,5.4984,5.3643,5.2741,5.2507,5.196,5.1629,5.1863,5.2235,5.2654,5.3142,5.3618,5.3318,5.2828,5.2801,5.2859,5.2528,5.2138,5.1807,5.1359,5.1256,5.1248,5.1239,5.1211,5.1201,5.1201,5.1191,5.1191,5.1191,5.1181,5.1181,5.1181,5.12,5.1201,5.122,5.1248,5.1276,5.1292,5.1292,5.1292,5.13,5.13,5.13,5.13,5.13,5.1339,5.1378,5.1339,5.1343,5.1596,5.1587,5.1451,5.1336,5.1297,5.1239,5.1258,5.1453,5.1901,5.2455,5.2483,5.252,5.2481,5.243,5.2266,5.2111,5.1974,5.2052,4.9868,4.9501,4.9696,4.9286,4.8473,4.7829,4.7486,4.7201,4.6657,4.6695,4.7026,4.6875,4.7159,4.8041,4.9306,5.0145,5.0496,5.1121,5.1336,5.1394,5.1394,5.1394,5.1492,5.1531,5.1765,5.1746,5.2663,5.321,5.36,5.4108,5.5064,5.6235,5.6005,5.6606,5.7094,5.6962,5.6832,5.7176,5.6834,5.6621,5.6621,5.662,5.662,5.662,5.6619,5.6616,5.6512,5.608,5.5681,5.538,5.4049,5.3171,5.3014,5.2097,5.1488,5.1527,5.1645,5.1829,5.2311,5.263,5.2402,5.1998,5.1729,5.206,5.1593,5.13,5.1292,5.1276,5.1239,5.1191,5.1171,5.1128,5.1128,5.1117,5.1097,5.1086,5.1086,5.1117,5.1128,5.1131,5.1131,5.1125,5.1136,5.1201,5.123,5.1256,5.1284,5.1292,5.1292,5.13,5.13,5.13,5.13,5.13,5.1312,5.1312,5.1295,5.1287,5.1287,5.1278,5.122,5.1211,5.1211,5.1211,5.1201,5.1405,5.1843,5.1531,5.1284,5.1607,5.1793,5.1568,5.1373,5.1284,5.1284,4.9169,4.7822,4.8584,4.8398,4.7686,4.7647,4.7105,4.6523,4.6348,4.6386,4.6736,4.7271,4.8158,4.8837,4.9735,5.0614,5.1258,5.1375,5.1394,5.1394,5.1394,5.1472,5.1687,5.2117,5.2546,5.2761,5.3502,5.4303,5.4888,5.4966,5.5298,5.5415,5.5845,5.6118,5.6586,5.6938,5.6723,5.695,5.6744,5.6676,5.6657,5.6671,5.6683,5.663,5.6621,5.661,5.6586,5.6434,5.6337,5.6255,5.4654,5.3756,5.3424,5.2191,5.1507,5.1401,5.1372,5.1497,5.1713,5.1739,5.1522,5.1378,5.1398,5.1515,5.1339,5.13,5.1284,5.122,5.1201,5.115,5.1128,5.1086,5.1049,5.1056,5.1043,5.1037,5.1056,5.1069,5.1081,5.1086,5.1081,5.1037,5.1042,5.1088,5.1171,5.1201,5.1276,5.1284,5.1292,5.13,5.13,5.13,5.13,5.1292,5.1295,5.1295,5.1295,5.1258,5.1249,5.124,5.122,5.122,5.12,5.12,5.1219,5.12,5.12,5.122,5.123,5.1211,5.122,5.123,5.1249,5.1249,5.1249,4.8193,4.7588,4.7369,4.7081,4.6809,4.6815,4.6601,4.6345,4.6301,4.6629,4.721,4.8997,4.9794,4.9887,5.0477,5.1043,5.1375,5.1394,5.1394,5.1394,5.1414,5.1726,5.2117,5.2546,5.2956,5.358,5.4381,5.4888,5.522,5.5747,5.6059,5.6118,5.602,5.6645,5.7074,5.7133,5.6996,5.6821,5.7005,5.7151,5.6738,5.7086,5.7098,5.6614,5.6614,5.6606,5.6606,5.6606,5.6606,5.6177,5.4869,5.4244,5.3737,5.2288,5.1538,5.1396,5.1366,5.133,5.1323,5.1303,5.1296,5.13,5.13,5.13,5.1292,5.1276,5.1239,5.1181,5.1128,5.1081,5.1056,5.1004,5.0961,5.0995,5.0995,5.099,5.099,5.1004,5.1023,5.1017,5.099,5.0966,5.0971,5.0986,5.1069,5.1171,5.123,5.1276,5.1284,5.1292,5.1292,5.1292,5.1292,5.1284,5.1295,5.1267,5.1267,5.1249,5.1201,5.121,5.1219,5.1217,5.1206,5.1206,5.1206,5.1206,5.1217,5.1217,5.1208,5.121,5.1201,5.1211,5.1211,5.121,5.1288,4.7943,4.7852,4.7047,4.6522,4.6346,4.6561,4.6692,4.6725,4.699,4.7334,4.8096,5.0087,5.0711,5.0457,5.0984,5.1355,5.1375,5.1394,5.1394,5.1394,5.1472,5.1941,5.2507,5.3093,5.3639,5.44,5.5201,5.5747,5.5806,5.6333,5.6469,5.6528,5.6645,5.6938,5.7172,5.7406,5.7153,5.6938,5.7289,5.7582,5.7113,5.7406,5.7601,5.6977,5.6801,5.6606,5.6606,5.6606,5.6606,5.6059,5.5123,5.4147,5.3401,5.2576,5.1596,5.1366,5.1355,5.1317,5.131,5.1303,5.1296,5.13,5.13,5.1292,5.1256,5.123,5.1211,5.1128,5.1056,5.099,5.0976,5.0952,5.0921,5.0937,5.0937,5.0952,5.0937,5.0952,5.0937,5.0937,5.0906,5.0921,5.0937,5.0952,5.1009,5.1117,5.1201,5.123,5.1258,5.1276,5.1304,5.1284,5.1276,5.1276,5.1267,5.1249,5.123,5.1229,5.1208,5.1217,5.1206,5.1202,5.1202,5.1214,5.1214,5.1202,5.1202,5.1214,5.1217,5.1208,5.1238,5.1297,5.1208,5.1236,5.1481,4.873,4.8666,4.791,4.7109,4.6601,4.7222,4.7564,4.767,4.833,4.8701,4.8896,4.9969,5.036,5.0418,5.1121,5.1375,5.1394,5.1394,5.1394,5.1394,5.1414,5.1941,5.2702,5.3424,5.4147,5.524,5.5942,5.6352,5.645,5.6528,5.6606,5.6606,5.6626,5.6665,5.6665,5.6665,5.6626,5.6723,5.7406,5.7641,5.7543,5.7621,5.766,5.7289,5.6879,5.6606,5.6606,5.6606,5.6547,5.6079,5.5025,5.4166,5.3615,5.2405,5.1591,5.1394,5.1394,5.1356,5.1308,5.13,5.13,5.13,5.1292,5.1256,5.122,5.1201,5.1139,5.1069,5.1004,5.0961,5.0917,5.0906,5.0906,5.0906,5.0906,5.0906,5.0906,5.0906,5.0906,5.0906,5.0906,5.0906,5.0937,5.0952,5.0981,5.1063,5.1159,5.119,5.1211,5.124,5.1249,5.1267,5.1258,5.1249,5.124,5.122,5.1208,5.1206,5.1214,5.1214,5.1214,5.1202,5.1202,5.1222,5.1202,5.1202,5.1222,5.1241,5.1544,5.1828,5.1466,5.1408,5.1299,5.1486,5.1952,4.8789,4.8785,4.8492,4.8213,4.8023,4.8254,4.8384,4.8545,4.9247,4.9677,4.9852,5.0594,5.0965,5.1102,5.116,5.1394,5.1394,5.1394,5.1394,5.1394,5.1492,5.196,5.2761,5.3678,5.4517,5.5318,5.6138,5.6606,5.6567,5.6606,5.6606,5.6606,5.6606,5.6606,5.6626,5.6606,5.6606,5.6743,5.727,5.7582,5.7172,5.7484,5.7582,5.7133,5.6782,5.6606,5.6606,5.6606,5.6411,5.6001,5.4947,5.4396,5.363,5.2396,5.2005,5.1577,5.1349,5.1335,5.1292,5.1284,5.1256,5.1256,5.1248,5.123,5.1211,5.1128,5.1069,5.1004,5.0961,5.0917,5.0906,5.0906,5.0906,5.0906,5.0906,5.0906,5.0906,5.0906,5.0906,5.0906,5.0906,5.089,5.0906,5.089,5.0921,5.0952,5.1037,5.1136,5.1189,5.1169,5.1169,5.1211,5.122,5.1211,5.122,5.1219,5.1208,5.1206,5.1206,5.1206,5.1206,5.128,5.1299,5.1358,5.128,5.1222,5.1532,5.1901,5.2368,5.2542,5.2387,5.2368,5.2484,5.2717,5.3079,4.9426,4.9648,4.938,4.9427,4.9614,4.938,4.9394,4.9755,5.0301,5.0555,5.0692,5.116,5.1375,5.1375,5.1394,5.1394,5.1414,5.1746,5.1492,5.157,5.2136,5.2702,5.3346,5.3971,5.5005,5.5689,5.6196,5.6606,5.6606,5.6606,5.6606,5.6606,5.6606,5.6606,5.6606,5.6606,5.6606,5.6821,5.7289,5.7621,5.7406,5.7465,5.7562,5.7172,5.684,5.6606,5.6606,5.6508,5.6333,5.5806,5.5294,5.4762,5.3796,5.3175,5.2695,5.2032,5.1432,5.1378,5.1292,5.1265,5.1276,5.1297,5.123,5.115,5.1139,5.1062,5.0998,5.0961,5.0902,5.0906,5.0906,5.0906,5.0906,5.0906,5.089,5.089,5.089,5.089,5.089,5.089,5.0858,5.0858,5.0841,5.0861,5.088,5.0893,5.0925,5.1009,5.1132,5.1125,5.1125,5.1169,5.121,5.1219,5.1208,5.1208,5.1217,5.1217,5.1275,5.1342,5.1466,5.1591,5.1532,5.1552,5.1707,5.1921,5.2232,5.262,5.3183,5.3572,5.3689,5.3689,5.3747,5.3844,5.396,5.0625,5.1223,5.0504,5.0594,5.1121,5.0438,5.0575,5.1297,5.1336,5.1336,5.1375,5.1336,5.1394,5.1394,5.1394,5.1394,5.1472,5.2136,5.1902,5.1902,5.2468,5.3229,5.3873,5.4537,5.5201,5.604,5.6567,5.6606,5.6606,5.6606,5.6606,5.6606,5.6606,5.6606,5.6606,5.6606,5.6606,5.6821,5.7113,5.7387,5.7328,5.7504,5.7484,5.7192,5.6918,5.6665,5.6606,5.6567,5.6469,5.6133,5.5699,5.5318,5.4845,5.4365,5.3546,5.2636,5.1756,5.1417,5.1292,5.1265,5.1258,5.124,5.1156,5.1088,5.1043,5.103,5.0976,5.0932,5.0906,5.0906,5.0906,5.0906,5.0906,5.089,5.089,5.089,5.0874,5.0874,5.0858,5.0841,5.0791,5.0773,5.0738,5.0757,5.0776,5.0773,5.0808,5.0874,5.0961,5.1076,5.1101,5.1186,5.1217,5.1214,5.1214,5.1206,5.1206,5.1214,5.1505,5.1622,5.1766,5.1999,5.2232,5.2368,5.2407,5.2678,5.3222,5.365,5.4058,5.4388,5.4737,5.4737,5.4718,5.4465,5.4543,5.1188,5.1357,5.1128,5.118,5.1336,5.1121,5.118,5.1394,5.1394,5.1394,5.1394,5.1394,5.1394,5.1394,5.1394,5.1394,5.1492,5.159,5.159,5.1882,5.2448,5.2663,5.3288,5.4225,5.4908,5.5669,5.6255,5.6606,5.6606,5.6606,5.6606,5.6606,5.6606,5.6606,5.6606,5.6606,5.6606,5.6665,5.6938,5.7016,5.7035,5.7055,5.7055,5.6918,5.6821,5.6606,5.6606,5.6602,5.6387,5.5694,5.6021,5.5742,5.4229,5.4495,5.4312,5.2699,5.1846,5.13,5.1273,5.122,5.1267,5.1361,5.1199,5.103,5.1017,5.1125,5.1087,5.1076,5.1235,5.1351,5.1219,5.1122,5.1025,5.0893,5.0877,5.0808,5.0808,5.0771,5.0754,5.0738,5.0682,5.0664,5.0645,5.0664,5.0683,5.0664,5.0682,5.0773,5.0839,5.0966,5.1037,5.1127,5.1183,5.1159,5.119,5.1183,5.1202,5.126,5.1513,5.1843,5.2154,5.2465,5.2931,5.3203,5.3281,5.3786,5.4427,5.4737,5.4912,5.5456,5.5786,5.5728,5.5612,5.532,5.5204,5.1394,5.1389,5.1398,5.1394,5.1394,5.1394,5.1394,5.1394,5.1394,5.1394,5.1394,5.1394,5.1394,5.1394,5.1394,5.1394,5.1433,5.1902,5.2038,5.2156,5.2487,5.3405,5.3971,5.4498,5.5396,5.5923,5.6235,5.6606,5.6606,5.6606,5.6606,5.6606,5.6606,5.6606,5.6606,5.6606,5.6606,5.6606,5.6645,5.6606,5.6606,5.6606,5.6606,5.6606,5.6606,5.6606,5.6602,5.6582,5.6202,5.5781,5.6386,5.6088,5.4897,5.5143,5.5019,5.3638,5.2976,5.2567,5.2461,5.2358,5.2216,5.2085,5.1959,5.2089,5.192,5.1911,5.1672,5.1544,5.1776,5.1876,5.1625,5.1377,5.1128,5.0899,5.0829,5.072,5.0701,5.0644,5.0606,5.0586,5.0566,5.0566,5.0565,5.0622,5.0603,5.0604,5.0644,5.072,5.0773,5.0874,5.0952,5.0995,5.1069,5.1114,5.1127,5.1159,5.119,5.1229,5.1358,5.1746,5.2309,5.2756,5.3086,5.363,5.4194,5.4699,5.5204,5.5437,5.5689,5.6136,5.6311,5.6136,5.6019,5.5981,5.5961,5.1394,5.1394,5.1394,5.1394,5.1394,5.1394,5.1394,5.1394,5.1394,5.1394,5.1394,5.1394,5.1394,5.1394,5.1394,5.155,5.1804,5.2253,5.2644,5.2819,5.3795,5.4537,5.5064,5.5981,5.5962,5.6352,5.6606,5.6606,5.6606,5.6606,5.6606,5.6606,5.6606,5.6606,5.6606,5.6606,5.6606,5.6606,5.6606,5.6606,5.6606,5.6606,5.6606,5.6606,5.6606,5.6586,5.6563,5.6533,5.6484,5.6491,5.6478,5.6418,5.6118,5.5556,5.5197,5.4751,5.3933,5.3552,5.334,5.3312,5.3398,5.3432,5.3581,5.3281,5.2864,5.2597,5.2353,5.2337,5.2569,5.2324,5.2037,5.1788,5.1503,5.1026,5.0702,5.0645,5.0606,5.0739,5.0988,5.1083,5.1373,5.1313,5.1312,5.1408,5.1083,5.0832,5.0603,5.0702,5.074,5.081,5.0858,5.0906,5.0966,5.1029,5.1042,5.1056,5.1134,5.1217,5.1334,5.1727,5.2329,5.2756,5.3164,5.3883,5.464,5.5301,5.5786,5.5922,5.6019,5.6175,5.6311,5.6311,5.6311,5.6311,5.6311,5.1394,5.1394,5.1394,5.1394,5.1394,5.1394,5.1394,5.1394,5.1394,5.1394,5.1394,5.1394,5.1394,5.1394,5.1414,5.1629,5.2253,5.2487,5.3073,5.3483,5.4342,5.5044,5.5259,5.5786,5.6079,5.645,5.6606,5.6606,5.6606,5.6606,5.6606,5.6606,5.6606,5.6606,5.6606,5.6606,5.6606,5.6606,5.6606,5.6606,5.6606,5.6606,5.6606,5.6586,5.6567,5.6519,5.6514,5.6503,5.6485,5.6491,5.6484,5.6488,5.6433,5.5665,5.5258,5.4996,5.448,5.4139,5.3993,5.4008,5.3984,5.3797,5.3691,5.3572,5.3433,5.3262,5.3224,5.3304,5.323,5.2887,5.2485,5.2219,5.1855,5.1222,5.072,5.0719,5.0659,5.0907,5.131,5.1619,5.2026,5.2062,5.1981,5.1828,5.1619,5.1237,5.0795,5.0663,5.0702,5.074,5.0793,5.0861,5.089,5.0937,5.0937,5.0966,5.1029,5.1283,5.1457,5.1871,5.2317,5.2756,5.3222,5.4232,5.5068,5.5476,5.5825,5.6155,5.6233,5.6291,5.6311,5.6311,5.6311,5.6311,5.6311,5.1394,5.1394,5.1394,5.1394,5.1394,5.1394,5.1394,5.1394,5.1394,5.1394,5.1394,5.1394,5.1394,5.1394,5.1414,5.1648,5.2273,5.2546,5.3151,5.3795,5.4556,5.522,5.5532,5.5825,5.6177,5.6567,5.6606,5.6606,5.6606,5.6606,5.6606,5.6606,5.6606,5.6606,5.6606,5.6606,5.6606,5.6606,5.6606,5.6606,5.6606,5.6606,5.6582,5.6563,5.6519,5.6494,5.6497,5.6485,5.6491,5.6496,5.6488,5.65,5.6405,5.6037,5.5755,5.5588,5.5266,5.4836,5.4727,5.4615,5.4584,5.452,5.4583,5.4791,5.4849,5.4697,5.4368,5.4445,5.4735,5.4489,5.349,5.3011,5.2453,5.1838,5.1817,5.1912,5.131,5.0878,5.0933,5.0875,5.1127,5.1146,5.1105,5.1089,5.0919,5.0878,5.0536,5.0581,5.0622,5.0663,5.0721,5.0852,5.0924,5.0899,5.0858,5.089,5.0937,5.1199,5.146,5.1806,5.2149,5.2686,5.3319,5.3987,5.4628,5.5184,5.5534,5.5922,5.6233,5.6291,5.6311,5.6311,5.6311,5.6311,5.6311,5.1386,5.139,5.139,5.139,5.1394,5.1394,5.1394,5.1394,5.139,5.139,5.1375,5.1394,5.1394,5.1394,5.1394,5.157,5.1999,5.2839,5.3483,5.4478,5.5181,5.5728,5.6177,5.6528,5.6567,5.6567,5.6606,5.6606,5.6606,5.6606,5.6606,5.6606,5.6606,5.6606,5.6606,5.6606,5.6606,5.6606,5.6606,5.6606,5.6606,5.6606,5.6582,5.6538,5.6494,5.6489,5.6485,5.6496,5.648,5.6472,5.6464,5.6435,5.6417,5.6232,5.6189,5.603,5.5935,5.5793,5.5844,5.5729,5.5788,5.5894,5.6012,5.5973,5.5915,5.5741,5.5412,5.5451,5.5741,5.5397,5.4397,5.3744,5.3128,5.2511,5.2702,5.2564,5.167,5.1082,5.1002,5.0807,5.0998,5.1079,5.1136,5.1063,5.0814,5.0715,5.0505,5.0514,5.056,5.0582,5.0624,5.0856,5.1048,5.0989,5.0852,5.0926,5.1015,5.0948,5.1192,5.1571,5.1878,5.2078,5.2518,5.3294,5.3916,5.4421,5.5074,5.5553,5.5864,5.622,5.6311,5.6311,5.6311,5.6311,5.6311,5.1362,5.14,5.1386,5.1396,5.139,5.1394,5.1394,5.139,5.1341,5.1327,5.1406,5.1351,5.1336,5.1414,5.1394,5.1882,5.3112,5.362,5.4791,5.604,5.602,5.6333,5.6547,5.6606,5.6606,5.6606,5.6606,5.6606,5.6606,5.6606,5.6606,5.6606,5.6606,5.6606,5.6606,5.6606,5.6606,5.6606,5.6606,5.6586,5.6586,5.6586,5.6586,5.6558,5.6523,5.6491,5.6491,5.6488,5.6492,5.6464,5.6417,5.6378,5.6328,5.6275,5.6226,5.6187,5.6126,5.6083,5.6052,5.604,5.6029,5.6012,5.6012,5.6012,5.5973,5.5954,5.5743,5.5743,5.5803,5.5457,5.4707,5.4554,5.4053,5.3242,5.2988,5.2171,5.1312,5.1813,5.2235,5.2621,5.3146,5.3357,5.3621,5.3257,5.2587,5.2238,5.143,5.1322,5.0728,5.0634,5.0579,5.0889,5.12,5.1009,5.0856,5.1087,5.1143,5.0985,5.0938,5.1308,5.1431,5.1149,5.1644,5.2419,5.3009,5.3494,5.4181,5.5087,5.5663,5.6019,5.622,5.6311,5.6291,5.6265,5.6232]},{"header":{"parameterUnit":"m.s-1","parameterCategory":1,"la1":31.0,"la2":29.5877,"lo1":-88.7671,"lo2":-86.6584,"dy":0.0162,"dx":0.0185,"nx":115,"ny":88,"refTime":"2023-11-14T18:00:00:Z","depth":0,"parameterNumber":3,"parameterNumberName":"V-component_of_WINDS"},"data":[0.0,0.0,0.0,0.0,0.0,0.0,0.0,0.0,0.0,0.0,0.0,0.0,0.0,0.0,0.0,0.0,0.0,0.0,0.0,0.0,0.0,0.0,0.0,0.0,0.0,0.0,0.0,0.0,0.0,0.0,0.0,0.0,0.0,0.0,0.0,0.0,0.0,0.0,0.0,0.0,0.0,0.0,0.0,0.0,0.0,0.0,0.0,0.0,0.0,0.0,0.0,0.0,0.0,0.0,0.0,0.0,0.0,0.0,0.0,0.0,0.0,0.0,0.0,0.0,0.0,0.0,0.0,0.0,0.0,0.0,0.0,0.0,0.0,0.0,0.0,0.0,0.0,0.0,0.0,0.0,0.0,0.0,0.0,0.0,0.0,0.0,0.0,0.0,0.0,0.0,0.0,0.0,0.0,0.0,0.0,0.0,0.0,0.0,0.0,0.0,0.0,0.0,0.0,0.0,0.0,0.0,0.0,0.0,0.0,0.0,0.0,0.0,0.0,0.0,0.0,0.0,0.0,0.0,0.0,0.0,0.0,0.0,0.0,0.0,0.0,0.0,0.0,0.0,0.0,0.0,0.0,0.0,0.0,0.0,0.0,0.0,0.0,0.0,0.0,0.0,0.0,0.0,0.0,0.0,0.0,0.0,0.0,0.0,0.0,0.0,0.0,0.0,0.0,0.0,0.0,0.0,0.0,0.0,0.0,0.0,0.0,0.0,0.0,0.0,0.0,0.0,0.0,0.0,0.0,0.0,0.0,0.0,0.0,0.0,0.0,0.0,0.0,0.0,0.0,0.0,0.0,0.0,0.0,0.0,0.0,0.0,0.0,0.0,0.0,0.0,0.0,0.0,0.0,0.0,0.0,0.0,0.0,0.0,0.0,0.0,0.0,0.0,0.0,0.0,0.0,0.0,0.0,0.0,0.0,0.0,0.0,0.0,0.0,0.0,0.0,0.0,0.0,0.0,0.0,0.0,0.0,0.0,0.0,0.0,0.0,0.0,0.0,0.0,0.0,0.0,0.0,0.0,0.0,0.0,0.0,0.0,0.0,0.0,0.0,0.0,0.0,0.0,0.0,0.0,0.0,0.0,0.0,0.0,0.0,0.0,0.0,0.0,0.0,0.0,0.0,0.0,0.0,0.0,0.0,0.0,0.0,0.0,0.0,0.0,0.0,0.0,0.0,0.0,0.0,0.0,0.0,0.0,0.0,0.0,0.0,0.0,0.0,0.0,0.0,0.0,0.0,0.0,0.0,0.0,0.0,0.0,0.0,0.0,0.0,0.0,0.0,0.0,0.0,0.0,0.0,0.0,0.0,0.0,0.0,0.0,0.0,0.0,0.0,0.0,0.0,0.0,0.0,0.0,0.0,0.0,0.0,0.0,0.0,0.0,0.0,0.0,0.0,0.0,0.0,0.0,0.0,0.0,0.0,0.0,0.0,0.0,0.0,0.0,0.0,0.0,0.0,0.0,0.0,0.0,0.0,0.0,0.0,0.0,0.0,0.0,0.0,0.0,0.0,0.0,0.0,0.0,0.0,0.0,0.0,0.0,0.0,0.0,0.0,0.0,0.0,0.0,0.0,0.0,0.0,0.0,0.0,0.0,0.0,0.0,0.0,0.0,0.0,0.0,0.0,0.0,0.0,0.0,0.0,0.0,0.0,0.0,0.0,0.0,0.0,0.0,0.0,0.0,0.0,0.0,0.0,0.0,0.0,0.0,0.0,0.0,0.0,0.0,0.0,0.0,0.0,0.0,0.0,0.0,0.0,0.0,0.0,0.0,0.0,0.0,0.0,0.0,0.0,0.0,0.0,0.0,0.0,0.0,0.0,0.0,0.0,0.0,0.0,0.0,0.0,0.0,0.0,0.0,0.0,0.0,0.0,0.0,0.0,0.0,0.0,0.0,0.0,0.0,0.0,0.0,0.0,0.0,0.0,0.0,0.0,0.0,0.0,0.0,0.0,0.0,0.0,0.0,0.0,0.0,0.0,0.0,0.0,0.0,0.0,0.0,0.0,0.0,0.0,0.0,0.0,0.0,0.0,0.0,0.0,0.0,0.0,0.0,0.0,0.0,0.0,0.0,0.0,0.0,0.0,0.0,0.0,0.0,0.0,0.0,0.0,0.0,0.0,0.0,0.0,0.0,0.0,0.0,0.0,0.0,0.0,0.0,0.0,0.0,0.0,0.0,0.0,0.0,0.0,0.0,0.0,0.0,0.0,0.0,0.0,0.0,0.0,0.0,0.0,0.0,0.0,0.0,0.0,0.0,0.0,0.0,0.0,0.0,0.0,0.0,0.0,0.0,0.0,0.0,0.0,0.0,0.0,0.0,0.0,0.0,0.0,0.0,0.0,0.0,0.0,0.0,0.0,0.0,0.0,0.0,0.0,0.0,0.0,0.0,0.0,0.0,0.0,0.0,0.0,0.0,0.0,0.0,0.0,0.0,0.0,0.0,0.0,0.0,0.0,0.0,0.0,0.0,0.0,0.0,0.0,0.0,0.0,0.0,0.0,0.0,0.0,0.0,0.0,0.0,0.0,0.0,0.0,0.0,0.0,0.0,0.0,0.0,0.0,0.0,0.0,0.0,0.0,0.0,0.0,0.0,0.0,0.0,0.0,0.0,0.0,0.0,0.0,0.0,0.0,0.0,0.0,0.0,0.0,0.0,0.0,0.0,0.0,0.0,0.0,0.0,0.0,0.0,0.0,0.0,0.0,0.0,0.0,0.0,0.0,0.0,0.0,0.0,0.0,0.0,0.0,0.0,0.0,0.0,0.0,0.0,0.0,0.0,0.0,0.0,0.0,0.0,0.0,0.0,0.0,0.0,0.0,0.0,0.0,0.0,0.0,0.0,0.0,0.0,0.0,0.0,0.0,0.0,0.0,0.0,0.0,0.0,0.0,0.0,0.0,0.0,0.0,0.0,0.0,0.0,0.0,0.0,0.0,0.0,0.0,0.0,0.0,0.0,0.0,0.0,0.0,0.0,0.0,0.0,0.0,0.0,0.0,0.0,0.0,0.0,0.0,0.0,0.0,0.0,0.0,0.0,0.0,0.0,0.0,0.0,0.0,0.0,0.0,0.0,0.0,0.0,0.0,0.0,0.0,0.0,0.0,0.0,0.0,0.0,0.0,0.0,0.0,0.0,0.0,0.0,0.0,0.0,0.0,0.0,0.0,0.0,0.0,0.0,0.0,0.0,0.0,0.0,0.0,0.0,0.0,0.0,0.0,0.0,0.0,0.0,0.0,0.0,0.0,0.0,0.0,0.0,0.0,0.0,0.0,0.0,0.0,0.0,0.0,0.0,0.0,0.0,0.0,0.0,0.0,0.0,0.0,0.0,0.0,0.0,0.0,0.0,0.0,0.0,0.0,0.0,0.0,0.0,0.0,0.0,0.0,0.0,0.0,0.0,0.0,0.0,0.0,0.0,0.0,0.0,0.0,0.0,0.0,0.0,0.0,0.0,0.0,0.0,0.0,0.0,0.0,0.0,0.0,0.0,0.0,0.0,0.0,0.0,0.0,0.0,0.0,0.0,0.0,0.0,0.0,0.0,0.0,0.0,0.0,0.0,0.0,0.0,0.0,0.0,0.0,0.0,0.0,0.0,0.0,0.0,0.0,0.0,0.0,0.0,0.0,0.0,0.0,0.0,0.0,0.0,0.0,0.0,0.0,0.0,0.0,0.0,0.0,0.0,0.0,0.0,0.0,0.0,0.0,0.0,0.0,0.0,0.0,0.0,0.0,0.0,0.0,0.0,0.0,0.0,0.0,0.0,0.0,0.0,0.0,0.0,0.0,0.0,0.0,0.0,0.0,0.0,0.0,0.0,0.0,0.0,0.0,0.0,0.0,0.0,0.0,0.0,0.0,0.0,0.0,0.0,0.0,0.0,0.0,0.0,0.0,0.0,0.0,0.0,0.0,0.0,0.0,0.0,0.0,0.0,0.0,0.0,0.0,0.0,0.0,0.0,0.0,0.0,0.0,0.0,0.0,0.0,0.0,0.0,0.0,0.0,0.0,0.0,0.0,0.0,0.0,0.0,0.0,0.0,0.0,0.0,0.0,0.0,0.0,0.0,0.0,0.0,0.0,0.0,0.0,0.0,0.0,0.0,0.0,0.0,0.0,0.0,0.0,0.0,0.0,0.0,0.0,0.0,0.0,0.0,0.0,0.0,0.0,0.0,0.0,0.0,0.0,0.0,0.0,0.0,0.0,0.0,0.0,0.0,0.0,0.0,0.0,0.0,0.0,0.0,0.0,0.0,0.0,0.0,0.0,0.0,-0.4838,0.0,0.0,0.0,0.0,0.0,0.0,0.0,0.0,0.0,0.0,0.0,0.0,0.0,0.0,0.0,0.0,0.0,0.0,0.0,0.0,0.0,0.0,0.0,0.0,0.0,0.0,0.0,0.0,0.0,0.0,0.0,0.0,0.0,0.0,0.0,0.0,0.0,0.0,0.0,0.0,0.0,0.0,0.0,0.0,0.0,0.0,0.0,0.0,0.0,0.0,0.0,0.0,0.0,0.0,0.0,0.0,0.0,0.0,0.0,0.0,0.0,0.0,0.0,0.0,0.0,0.0,0.0,0.0,0.0,0.0,0.0,0.0,0.0,0.0,0.0,0.0,0.0,0.0,0.0,0.0,0.0,0.0,0.0,0.0,0.0,0.0,0.0,0.0,0.0,0.0,0.0,0.0,0.0,0.0,0.0,0.0,0.0,0.0,0.0,0.0,0.0,0.0,0.0,0.0,0.0,0.0,0.0,0.0,0.0,0.0,-0.5018,-0.5018,-0.5018,-0.4958,-0.4841,0.0,0.0,0.0,0.0,0.0,0.0,0.0,0.0,0.0,0.0,0.0,0.0,0.0,0.0,0.0,0.0,0.0,0.0,0.0,0.0,0.0,0.0,0.0,0.0,0.0,0.0,0.0,0.0,0.0,0.0,0.0,0.0,0.0,0.0,0.0,0.0,0.0,0.0,0.0,0.0,0.0,0.0,0.0,0.0,0.0,0.0,0.0,0.0,0.0,0.0,0.0,0.0,0.0,0.0,0.0,0.0,0.0,0.0,0.0,0.0,0.0,0.0,0.0,0.0,0.0,0.0,0.0,0.0,0.0,0.0,0.0,0.0,0.0,0.0,0.0,0.0,0.0,0.0,0.0,0.0,0.0,0.0,0.0,0.0,0.0,0.0,0.0,0.0,0.0,0.0,0.0,0.0,0.0,0.0,0.0,0.0,0.0,0.0,0.0,0.0,0.0,0.0,0.0,0.0,0.0,0.0,0.0,0.0,0.0,0.0,0.0,0.0,-0.5018,-0.4974,-0.4882,0.0,0.0,0.0,0.0,0.0,0.0,0.0,0.0,0.0,0.0,0.0,0.0,0.0,0.0,0.0,0.0,0.0,0.0,0.0,0.0,0.0,0.0,0.0,0.0,0.0,0.0,0.0,0.0,0.0,0.0,0.0,0.0,0.0,0.0,0.0,0.0,0.0,0.0,0.0,0.0,0.0,0.0,0.0,0.0,0.0,0.0,0.0,0.0,0.0,0.0,0.0,0.0,0.0,0.0,0.0,0.0,0.0,0.0,0.0,0.0,0.0,0.0,0.0,0.0,0.0,0.0,0.0,0.0,0.0,0.0,0.0,0.0,0.0,0.0,0.0,0.0,0.0,0.0,0.0,0.0,0.0,0.0,0.0,0.0,0.0,0.0,0.0,0.0,0.0,0.0,0.0,0.0,0.0,0.0,0.0,0.0,0.0,0.0,0.0,0.0,0.0,0.0,0.0,0.0,0.0,0.0,0.0,0.0,0.0,0.0,-0.5018,-0.5018,-0.5018,0.0,-0.5002,0.0,0.0,0.0,0.0,0.0,0.0,0.0,0.0,0.0,0.0,0.0,0.0,0.0,0.0,0.0,0.0,0.0,0.0,0.0,0.0,0.0,0.0,0.0,0.0,0.0,0.0,0.0,0.0,0.0,0.0,0.0,0.0,0.0,0.0,0.0,0.0,0.0,0.0,0.0,0.0,0.0,0.0,0.0,0.0,0.0,0.0,0.0,0.0,0.0,0.0,0.0,0.0,0.0,0.0,0.0,0.0,0.0,0.0,0.0,0.0,0.0,0.0,0.0,0.0,0.0,0.0,0.0,0.0,0.0,0.0,0.0,0.0,0.0,0.0,0.0,0.0,0.0,0.0,0.0,0.0,0.0,0.0,0.0,0.0,0.0,0.0,0.0,0.0,0.0,0.0,0.0,0.0,0.0,0.0,0.0,0.0,0.0,0.0,0.0,0.0,0.0,0.0,0.0,0.0,0.0,0.0,0.0,0.0,0.0,0.0,-0.5018,-0.5018,-0.5018,-0.5018,0.0,0.0,0.0,0.0,0.0,0.0,0.0,0.0,0.0,0.0,0.0,0.0,0.0,0.0,0.0,0.0,0.0,0.0,0.0,0.0,0.0,0.0,0.0,0.0,0.0,0.0,0.0,0.0,0.0,0.0,0.0,0.0,0.0,0.0,0.0,0.0,0.0,0.0,0.0,0.0,0.0,0.0,0.0,0.0,0.0,0.0,0.0,0.0,0.0,0.0,0.0,0.0,0.0,0.0,0.0,0.0,0.0,0.0,0.0,0.0,0.0,0.0,0.0,0.0,0.0,0.0,0.0,0.0,0.0,0.0,0.0,0.0,0.0,0.0,0.0,0.0,0.0,0.0,0.0,0.0,0.0,0.0,0.0,0.0,0.0,0.0,0.0,0.0,0.0,0.0,0.0,0.0,0.0,0.0,0.0,0.0,0.0,0.0,0.0,0.0,0.0,0.0,0.0,0.0,0.0,0.0,0.0,0.0,0.0,0.0,-0.5018,-0.5018,-0.5018,-0.5018,-0.5018,-0.5018,0.0,0.0,0.0,0.0,0.0,0.0,0.0,0.0,0.0,0.0,0.0,0.0,0.0,0.0,0.0,0.0,0.0,0.0,0.0,0.0,0.0,0.0,0.0,0.0,0.0,0.0,0.0,0.0,0.0,0.0,0.0,0.0,0.0,0.0,0.0,0.0,0.0,0.0,0.0,0.0,0.0,0.0,0.0,0.0,0.0,0.0,0.0,0.0,0.0,0.0,0.0,0.0,0.0,0.0,0.0,0.0,0.0,0.0,0.0,0.0,0.0,0.0,0.0,0.0,0.0,0.0,0.0,0.0,0.0,0.0,0.0,0.0,0.0,0.0,0.0,0.0,0.0,0.0,0.0,0.0,0.0,0.0,0.0,0.0,0.0,0.0,0.0,0.0,0.0,0.0,0.0,0.0,0.0,0.0,0.0,0.0,0.0,0.0,0.0,0.0,0.0,0.0,0.0,0.0,0.0,0.0,0.0,0.0,-0.5018,-0.5018,-0.5018,-0.5018,-0.5018,-0.5018,0.0,0.0,0.0,0.0,0.0,0.0,0.0,0.0,0.0,0.0,0.0,0.0,0.0,0.0,0.0,0.0,0.0,0.0,0.0,0.0,0.0,0.0,0.0,0.0,0.0,0.0,0.0,0.0,0.0,0.0,0.0,0.0,0.0,0.0,0.0,0.0,0.0,0.0,0.0,0.0,0.0,0.0,0.0,0.0,0.0,0.0,0.0,0.0,0.0,0.0,0.0,0.0,0.0,0.0,0.0,0.0,0.0,0.0,0.0,0.0,0.0,0.0,0.0,0.0,0.0,0.0,0.0,0.0,0.0,0.0,0.0,0.0,0.0,0.0,0.0,0.0,0.0,0.0,0.0,0.0,0.0,0.0,0.0,0.0,0.0,0.0,0.0,0.0,0.0,0.0,0.0,0.0,0.0,0.0,0.0,0.0,0.0,0.0,0.0,0.0,0.0,0.0,0.0,0.0,0.0,0.0,0.0,0.0,0.0,-0.5018,-0.5018,-0.5018,-0.5018,-0.4859,-0.4859,0.0,0.0,0.0,0.0,0.0,0.0,0.0,0.0,0.0,0.0,0.0,0.0,0.0,0.0,0.0,0.0,0.0,0.0,0.0,0.0,0.0,0.0,0.0,0.0,0.0,0.0,0.0,0.0,0.0,0.0,0.0,0.0,0.0,0.0,0.0,0.0,0.0,0.0,0.0,0.0,0.0,0.0,0.0,0.0,0.0,0.0,0.0,0.0,0.0,0.0,0.0,0.0,0.0,0.0,0.0,0.0,0.0,0.0,0.0,0.0,0.0,0.0,0.0,0.0,0.0,0.0,0.0,0.0,0.0,0.0,0.0,0.0,0.0,0.0,0.0,0.0,0.0,0.0,0.0,0.0,0.0,0.0,0.0,0.0,0.0,0.0,0.0,0.0,0.0,0.0,0.0,0.0,0.0,0.0,0.0,0.0,0.0,0.0,0.0,0.0,0.0,0.0,0.0,0.0,0.0,0.0,0.0,0.0,0.0,-0.5072,0.0,-0.5113,0.0,-0.4836,-0.4737,0.0,0.0,0.0,0.0,0.0,0.0,0.0,0.0,0.0,0.0,0.0,0.0,0.0,0.0,0.0,0.0,0.0,0.0,0.0,0.0,0.0,0.0,0.0,0.0,0.0,0.0,0.0,0.0,0.0,0.0,0.0,0.0,0.0,0.0,0.0,0.0,0.0,0.0,0.0,0.0,0.0,0.0,0.0,0.0,0.0,0.0,0.0,0.0,0.0,0.0,0.0,0.0,0.0,0.0,0.0,0.0,0.0,0.0,0.0,0.0,0.0,0.0,0.0,0.0,0.0,0.0,0.0,0.0,0.0,0.0,0.0,0.0,0.0,0.0,0.0,0.0,0.0,0.0,0.0,0.0,0.0,0.0,0.0,0.0,0.0,0.0,0.0,0.0,0.0,0.0,0.0,0.0,0.0,0.0,0.0,0.0,0.0,0.0,0.0,0.0,0.0,0.0,0.0,0.0,0.0,0.0,0.0,0.0,-0.508,-0.5186,-0.5301,-0.5221,-0.4958,-0.4869,-0.4733,0.0,0.0,0.0,0.0,0.0,0.0,0.0,0.0,0.0,0.0,0.0,0.0,0.0,0.0,0.0,0.0,0.0,0.0,0.0,0.0,0.0,0.0,0.0,0.0,0.0,0.0,0.0,0.0,0.0,0.0,0.0,0.0,0.0,0.0,0.0,0.0,0.0,0.0,0.0,0.0,0.0,0.0,0.0,0.0,0.0,0.0,0.0,0.0,0.0,0.0,0.0,0.0,0.0,0.0,0.0,0.0,0.0,0.0,0.0,0.0,0.0,0.0,0.0,0.0,0.0,0.0,0.0,0.0,0.0,0.0,0.0,0.0,0.0,0.0,0.0,0.0,0.0,0.0,0.0,0.0,0.0,0.0,0.0,0.0,0.0,0.0,0.0,0.0,0.0,0.0,0.0,0.0,0.0,0.0,0.0,0.0,0.0,0.0,0.0,0.0,0.0,0.0,0.0,0.0,0.0,0.0,0.0,0.0,0.0,-0.5314,-0.5349,-0.5352,-0.5234,-0.4907,-0.4693,0.0,0.0,0.0,0.0,0.0,0.0,0.0,0.0,0.0,0.0,0.0,0.0,0.0,0.0,0.0,0.0,0.0,0.0,0.0,0.0,0.0,0.0,0.0,0.0,0.0,0.0,0.0,0.0,0.0,0.0,0.0,0.0,0.0,0.0,0.0,0.0,0.0,0.0,0.0,0.0,0.0,0.0,0.0,0.0,0.0,0.0,0.0,0.0,0.0,0.0,0.0,0.0,0.0,0.0,0.0,0.0,0.0,0.0,0.0,0.0,0.0,0.0,0.0,0.0,0.0,0.0,0.0,0.0,0.0,0.0,0.0,0.0,0.0,0.0,0.0,0.0,0.0,0.0,0.0,0.0,0.0,0.0,0.0,0.0,0.0,0.0,0.0,0.0,0.0,0.0,0.0,0.0,0.0,0.0,0.0,0.0,0.0,0.0,0.0,0.0,0.0,0.0,0.0,0.0,0.0,0.0,0.0,0.0,0.0,-0.551,-0.5548,-0.5459,-0.5245,-0.4883,-0.4627,-0.4385,0.0,0.0,0.0,0.0,0.0,0.0,0.0,0.0,0.0,0.0,0.0,0.0,0.0,0.0,0.0,0.0,0.0,0.0,0.0,0.0,0.0,0.0,0.0,0.0,0.0,0.0,0.0,0.0,0.0,0.0,0.0,0.0,0.0,0.0,0.0,0.0,0.0,0.0,0.0,0.0,0.0,0.0,0.0,0.0,0.0,0.0,0.0,0.0,0.0,0.0,0.0,0.0,0.0,0.0,0.0,0.0,0.0,0.0,0.0,0.0,0.0,0.0,0.0,0.0,0.0,0.0,0.0,0.0,0.0,0.0,0.0,0.0,0.0,0.0,0.0,0.0,0.0,0.0,0.0,0.0,0.0,0.0,0.0,0.0,0.0,0.0,0.0,0.0,0.0,0.0,0.0,0.0,0.0,0.0,0.0,0.0,0.0,0.0,0.0,0.0,0.0,0.0,0.0,0.0,0.0,0.0,0.0,0.0,-0.5763,-0.5855,-0.566,-0.5099,-0.491,-0.4509,0.0,0.0,0.0,0.0,0.0,0.0,0.0,0.0,0.0,0.0,0.0,0.0,0.0,0.0,0.0,0.0,0.0,0.0,0.0,0.0,0.0,0.0,0.0,0.0,0.0,0.0,0.0,0.0,0.0,0.0,0.0,0.0,0.0,0.0,0.0,0.0,0.0,0.0,0.0,0.0,0.0,0.0,0.0,0.0,0.0,0.0,0.0,0.0,0.0,0.0,0.0,0.0,0.0,0.0,0.0,0.0,0.0,0.0,0.0,0.0,0.0,0.0,0.0,0.0,0.0,0.0,0.0,0.0,0.0,0.0,0.0,0.0,0.0,0.0,0.0,0.0,0.0,0.0,0.0,0.0,0.0,0.0,0.0,0.0,0.0,0.0,0.0,0.0,0.0,0.0,0.0,0.0,0.0,0.0,0.0,0.0,0.0,0.0,0.0,0.0,0.0,0.0,0.0,0.0,0.0,0.0,0.0,0.0,0.0,-0.6013,-0.58,-0.5577,-0.5285,-0.4736,-0.4284,0.0,0.0,0.0,0.0,0.0,0.0,0.0,0.0,0.0,0.0,0.0,0.0,0.0,0.0,0.0,0.0,0.0,0.0,0.0,0.0,0.0,0.0,0.0,0.0,0.0,0.0,0.0,0.0,0.0,0.0,0.0,0.0,0.0,0.0,0.0,0.0,0.0,0.0,0.0,0.0,0.0,0.0,0.0,0.0,0.0,0.0,0.0,0.0,0.0,0.0,0.0,0.0,0.0,0.0,0.0,0.0,0.0,0.0,0.0,0.0,0.0,0.0,0.0,0.0,0.0,0.0,0.0,0.0,0.0,0.0,0.0,0.0,0.0,0.0,0.0,0.0,0.0,0.0,0.0,0.0,0.0,0.0,0.0,0.0,0.0,0.0,0.0,0.0,0.0,0.0,0.0,0.0,0.0,0.0,0.0,0.0,0.0,0.0,0.0,0.0,0.0,0.0,0.0,0.0,0.0,0.0,0.0,0.0,-0.5763,-0.5921,-0.5606,-0.5327,-0.5179,-0.4535,-0.4076,0.0,0.0,0.0,0.0,0.0,0.0,0.0,0.0,0.0,0.0,0.0,0.0,0.0,0.0,0.0,0.0,0.0,0.0,0.0,0.0,0.0,0.0,0.0,0.0,0.0,0.0,0.0,0.0,0.0,0.0,0.0,0.0,0.0,0.0,0.0,0.0,0.0,0.0,0.0,0.0,0.0,0.0,0.0,0.0,0.0,0.0,0.0,0.0,0.0,0.0,0.0,0.0,0.0,0.0,0.0,0.0,0.0,0.0,0.0,0.0,0.0,0.0,0.0,0.0,0.0,0.0,0.0,0.0,0.0,0.0,0.0,0.0,0.0,0.0,0.0,0.0,0.0,0.0,0.0,0.0,0.0,0.0,0.0,0.0,0.0,0.0,0.0,0.0,0.0,0.0,0.0,0.0,0.0,0.0,0.0,0.0,0.0,0.0,0.0,0.0,0.0,0.0,0.0,0.0,0.0,0.0,0.0,0.0,-0.5553,-0.5488,-0.5186,-0.4995,-0.4736,-0.4361,-0.3875,0.0,0.0,0.0,0.0,0.0,0.0,0.0,0.0,0.0,0.0,0.0,0.0,0.0,0.0,0.0,0.0,0.0,0.0,0.0,0.0,0.0,0.0,0.0,0.0,0.0,0.0,0.0,0.0,0.0,0.0,0.0,0.0,0.0,0.0,0.0,0.0,0.0,0.0,0.0,0.0,0.0,0.0,0.0,0.0,0.0,0.0,0.0,0.0,0.0,0.0,0.0,0.0,0.0,0.0,0.0,0.0,0.0,0.0,0.0,0.0,0.0,0.0,0.0,0.0,0.0,0.0,0.0,0.0,0.0,0.0,0.0,0.0,0.0,0.0,0.0,0.0,0.0,0.0,0.0,0.0,0.0,0.0,0.0,0.0,0.0,0.0,0.0,0.0,0.0,0.0,0.0,0.0,0.0,0.0,0.0,0.0,0.0,0.0,0.0,0.0,0.0,0.0,0.0,0.0,0.0,0.0,0.0,0.0,-0.5272,-0.522,-0.4995,-0.4767,-0.4354,-0.3992,-0.3666,0.0,0.0,0.0,0.0,0.0,0.0,0.0,0.0,0.0,0.0,0.0,0.0,0.0,0.0,0.0,0.0,0.0,0.0,0.0,0.0,0.0,0.0,0.0,0.0,0.0,0.0,0.0,0.0,0.0,0.0,0.0,0.0,0.0,0.0,0.0,0.0,0.0,0.0,0.0,0.0,0.0,0.0,0.0,0.0,0.0,0.0,0.0,0.0,-0.5165,0.0,0.0,0.0,0.0,0.0,0.0,0.0,0.0,0.0,0.0,0.0,0.0,0.0,0.0,0.0,0.0,0.0,0.0,0.0,0.0,0.0,0.0,0.0,0.0,0.0,0.0,0.0,0.0,0.0,0.0,0.0,0.0,0.0,0.0,0.0,0.0,0.0,0.0,0.0,0.0,0.0,0.0,0.0,0.0,0.0,0.0,0.0,0.0,0.0,0.0,0.0,0.0,0.0,0.0,0.0,0.0,0.0,0.0,0.0,-0.511,-0.5021,-0.4774,-0.4558,-0.4191,-0.3772,-0.345,0.0,0.0,0.0,0.0,0.0,0.0,0.0,0.0,0.0,0.0,0.0,0.0,0.0,0.0,0.0,0.0,0.0,0.0,0.0,0.0,0.0,0.0,0.0,0.0,0.0,0.0,0.0,0.0,0.0,0.0,0.0,0.0,0.0,0.0,0.0,0.0,0.0,0.0,0.0,0.0,0.0,0.0,0.0,0.0,0.0,0.0,0.0,0.0,0.0,0.0,0.0,0.0,0.0,0.0,0.0,0.0,0.0,0.0,0.0,0.0,0.0,0.0,0.0,0.0,0.0,0.0,0.0,0.0,0.0,0.0,0.0,0.0,0.0,0.0,0.0,0.0,0.0,0.0,0.0,0.0,0.0,0.0,0.0,0.0,0.0,0.0,0.0,0.0,0.0,0.0,0.0,0.0,0.0,0.0,0.0,0.0,0.0,0.0,0.0,0.0,0.0,0.0,0.0,0.0,0.0,0.0,0.0,-0.508,-0.4944,-0.4856,-0.4548,-0.436,-0.4195,-0.3811,-0.3305,-0.2957,0.0,0.0,0.0,0.0,0.0,0.0,0.0,0.0,0.0,0.0,0.0,0.0,0.0,0.0,0.0,0.0,0.0,0.0,0.0,0.0,0.0,0.0,0.0,0.0,0.0,0.0,0.0,0.0,0.0,0.0,0.0,0.0,0.0,0.0,0.0,0.0,0.0,0.0,-0.504,-0.5143,0.0,0.0,0.0,0.0,0.0,0.0,0.0,0.0,-0.5412,0.0,0.0,0.0,0.0,0.0,0.0,0.0,0.0,0.0,0.0,0.0,0.0,0.0,0.0,0.0,0.0,0.0,0.0,0.0,0.0,0.0,0.0,0.0,0.0,0.0,0.0,0.0,0.0,0.0,0.0,0.0,0.0,0.0,0.0,0.0,0.0,0.0,0.0,0.0,0.0,0.0,0.0,0.0,0.0,0.0,0.0,0.0,0.0,0.0,0.0,0.0,0.0,0.0,0.0,0.0,0.0,-0.507,-0.4835,-0.4757,-0.4668,-0.4453,-0.4358,-0.4197,-0.3811,-0.3305,-0.2794,0.0,0.0,0.0,0.0,0.0,0.0,0.0,0.0,0.0,0.0,0.0,0.0,0.0,0.0,0.0,0.0,0.0,0.0,0.0,0.0,0.0,0.0,0.0,0.0,0.0,0.0,0.0,0.0,0.0,0.0,0.0,0.0,0.0,0.0,0.0,0.0,0.0,0.0,0.0,-0.5262,-0.5382,0.0,0.0,0.0,0.0,0.0,0.0,0.0,0.0,-0.5673,0.0,0.0,0.0,0.0,0.0,0.0,0.0,0.0,0.0,0.0,0.0,0.0,0.0,0.0,0.0,0.0,0.0,0.0,0.0,0.0,0.0,0.0,0.0,0.0,0.0,0.0,0.0,0.0,0.0,0.0,0.0,0.0,0.0,0.0,0.0,0.0,0.0,0.0,0.0,0.0,0.0,0.0,0.0,0.0,0.0,0.0,0.0,0.0,0.0,0.0,0.0,0.0,0.0,0.0,0.0,-0.5008,-0.4844,-0.466,-0.4385,-0.4252,-0.3963,-0.3626,-0.343,-0.3029,0.0,0.0,0.0,0.0,0.0,0.0,0.0,0.0,0.0,0.0,0.0,0.0,0.0,0.0,0.0,0.0,0.0,0.0,0.0,0.0,0.0,0.0,0.0,0.0,0.0,0.0,0.0,0.0,0.0,0.0,0.0,0.0,0.0,0.0,0.0,0.0,0.0,0.0,0.0,0.0,-0.522,-0.5248,-0.5275,0.0,0.0,0.0,0.0,0.0,0.0,-0.5609,-0.5733,0.0,0.0,0.0,0.0,0.0,0.0,0.0,0.0,0.0,0.0,0.0,0.0,0.0,0.0,0.0,0.0,0.0,0.0,0.0,0.0,0.0,0.0,0.0,0.0,0.0,0.0,0.0,0.0,0.0,0.0,0.0,0.0,0.0,0.0,0.0,0.0,0.0,0.0,0.0,0.0,0.0,0.0,0.0,0.0,0.0,0.0,0.0,0.0,0.0,0.0,0.0,0.0,0.0,0.0,0.0,-0.4919,-0.4847,-0.4565,-0.4195,-0.4055,-0.3666,-0.315,-0.2954,-0.257,0.0,0.0,0.0,0.0,0.0,0.0,0.0,0.0,0.0,0.0,0.0,0.0,0.0,0.0,0.0,0.0,0.0,0.0,0.0,0.0,0.0,0.0,0.0,0.0,0.0,0.0,0.0,0.0,0.0,0.0,0.0,0.0,0.0,0.0,0.0,0.0,0.0,0.0,0.0,0.0,0.0,-0.5068,-0.4994,-0.501,0.0,0.0,0.0,0.0,-0.5644,-0.5644,0.0,0.0,0.0,0.0,0.0,0.0,0.0,0.0,0.0,0.0,0.0,0.0,0.0,0.0,0.0,0.0,0.0,0.0,0.0,0.0,0.0,0.0,0.0,0.0,0.0,0.0,0.0,0.0,0.0,0.0,0.0,0.0,0.0,0.0,0.0,0.0,0.0,0.0,0.0,0.0,0.0,0.0,0.0,0.0,0.0,0.0,0.0,0.0,0.0,0.0,0.0,0.0,0.0,0.0,0.0,0.0,-0.4748,-0.4386,-0.4282,-0.4197,-0.3861,-0.347,-0.315,-0.2671,-0.2204,0.0,0.0,0.0,0.0,0.0,0.0,0.0,0.0,0.0,0.0,0.0,0.0,0.0,0.0,0.0,0.0,0.0,0.0,0.0,0.0,0.0,0.0,0.0,0.0,0.0,0.0,0.0,0.0,0.0,0.0,0.0,0.0,0.0,0.0,0.0,0.0,0.0,0.0,0.0,0.0,0.0,-0.4896,-0.4996,-0.501,-0.501,0.0,0.0,-0.5371,-0.546,-0.5555,0.0,0.0,0.0,0.0,0.0,0.0,0.0,0.0,0.0,0.0,0.0,0.0,0.0,0.0,0.0,0.0,0.0,0.0,0.0,0.0,0.0,0.0,0.0,0.0,0.0,0.0,0.0,0.0,0.0,0.0,0.0,0.0,0.0,0.0,0.0,0.0,0.0,0.0,0.0,0.0,0.0,0.0,0.0,0.0,0.0,0.0,0.0,0.0,0.0,0.0,0.0,0.0,0.0,0.0,0.0,-0.4376,-0.4478,-0.4109,-0.3906,-0.372,-0.3466,-0.3173,-0.2672,-0.229,-0.1939,0.0,0.0,0.0,0.0,0.0,0.0,0.0,0.0,0.0,0.0,0.0,0.0,0.0,0.0,0.0,0.0,0.0,0.0,0.0,0.0,0.0,0.0,0.0,0.0,0.0,0.0,0.0,0.0,0.0,0.0,0.0,0.0,0.0,0.0,0.0,0.0,0.0,0.0,0.0,0.0,0.0,0.0,-0.4634,-0.4647,0.0,0.0,0.0,-0.5285,-0.5466,0.0,0.0,0.0,0.0,0.0,0.0,0.0,0.0,0.0,0.0,0.0,0.0,0.0,0.0,0.0,0.0,0.0,0.0,0.0,0.0,0.0,0.0,0.0,0.0,0.0,0.0,0.0,0.0,0.0,0.0,0.0,0.0,0.0,0.0,0.0,0.0,0.0,0.0,0.0,0.0,0.0,0.0,0.0,0.0,0.0,0.0,0.0,0.0,0.0,0.0,0.0,0.0,0.0,0.0,0.0,0.0,0.0,-0.421,-0.3828,-0.3623,-0.3436,-0.3169,-0.2877,-0.2294,-0.2099,0.0,0.0,0.0,0.0,0.0,0.0,0.0,0.0,0.0,0.0,0.0,0.0,0.0,0.0,0.0,0.0,0.0,0.0,0.0,0.0,0.0,0.0,0.0,0.0,0.0,0.0,0.0,-0.0,0.0,0.0,0.0,0.0,0.0,0.0,0.0,0.0,0.0,0.0,0.0,0.0,0.0,0.0,-0.4514,-0.4424,-0.4436,-0.4467,0.0,0.0,-0.5115,-0.5395,-0.5606,-0.5732,0.0,0.0,0.0,0.0,0.0,0.0,0.0,0.0,0.0,0.0,0.0,0.0,0.0,0.0,0.0,0.0,0.0,0.0,0.0,0.0,0.0,0.0,0.0,0.0,0.0,0.0,0.0,0.0,0.0,0.0,0.0,0.0,0.0,0.0,0.0,0.0,0.0,0.0,0.0,0.0,0.0,0.0,0.0,0.0,0.0,0.0,0.0,0.0,0.0,0.0,0.0,0.0,0.0,0.0,0.0,-0.3946,-0.3642,-0.3433,-0.3436,-0.3069,-0.2678,-0.2294,-0.2099,-0.1854,0.0,0.0,0.0,0.0,0.0,0.0,0.0,0.0,0.0,0.0,0.0,0.0,0.0,0.0,0.0,0.0,0.0,0.0,0.0,0.0,0.0,0.0,0.0,0.0,0.0,0.0,0.0,0.0,0.0,0.0,0.0,0.0,0.0,0.0,0.0,0.0,0.0,0.0,0.0,0.0,0.0,-0.4332,-0.4422,-0.4436,-0.4469,0.0,0.0,-0.5029,-0.5223,-0.5504,-0.5784,-0.6062,0.0,0.0,0.0,0.0,0.0,0.0,0.0,0.0,0.0,0.0,0.0,0.0,0.0,0.0,0.0,0.0,0.0,0.0,0.0,0.0,0.0,0.0,0.0,0.0,0.0,0.0,0.0,0.0,0.0,0.0,0.0,0.0,0.0,0.0,0.0,0.0,0.0,0.0,0.0,0.0,0.0,0.0,0.0,0.0,0.0,0.0,0.0,0.0,0.0,0.0,0.0,0.0,0.0,-0.4008,-0.3678,-0.3361,-0.3146,-0.2863,-0.2672,-0.2379,-0.2101,-0.1813,-0.1585,0.0,0.0,0.0,0.0,0.0,0.0,0.0,0.0,0.0,0.0,0.0,0.0,0.0,0.0,0.0,0.0,0.0,0.0,0.0,0.0,0.0,0.0,0.0,0.0,0.0,0.0,0.0,0.0,-0.0845,-0.1322,-0.1413,0.0,0.0,0.0,0.0,0.0,0.0,0.0,0.0,0.0,0.0,-0.4416,-0.4508,-0.4567,0.0,0.0,-0.4882,-0.5037,-0.5135,-0.547,-0.5713,-0.5805,-0.5954,0.0,0.0,0.0,0.0,0.0,0.0,0.0,0.0,0.0,0.0,0.0,0.0,0.0,0.0,0.0,0.0,0.0,0.0,0.0,0.0,0.0,0.0,0.0,0.0,0.0,0.0,0.0,0.0,0.0,0.0,0.0,0.0,0.0,0.0,0.0,0.0,0.0,0.0,0.0,0.0,0.0,0.0,0.0,0.0,0.0,0.0,0.0,0.0,0.0,0.0,0.0,0.0,-0.3877,-0.3619,-0.3278,-0.2962,-0.2595,-0.2481,-0.2286,-0.1927,-0.1627,-0.1502,0.0,0.0,0.0,0.0,0.0,0.0,0.0,0.0,0.0,0.0,0.0,0.0,0.0,0.0,0.0,0.0,0.0,0.0,0.0,0.0,0.0,0.0,0.0,0.0,0.0,0.0,0.0,0.0,-0.0389,-0.1103,-0.127,0.0,0.0,0.0,0.0,0.0,0.0,0.0,0.0,0.0,0.0,-0.4477,-0.4596,-0.4669,-0.4738,-0.482,-0.4881,-0.5038,-0.5136,-0.547,-0.5716,-0.5812,0.0,0.0,0.0,0.0,0.0,0.0,0.0,0.0,0.0,0.0,0.0,0.0,0.0,0.0,0.0,0.0,0.0,0.0,0.0,0.0,0.0,0.0,0.0,0.0,0.0,0.0,0.0,-0.8483,0.0,0.0,-1.1388,0.0,0.0,0.0,0.0,0.0,0.0,0.0,0.0,0.0,0.0,0.0,0.0,0.0,0.0,0.0,0.0,0.0,0.0,0.0,0.0,0.0,0.0,-0.3638,-0.3696,-0.33,-0.298,-0.2645,-0.2498,-0.23,-0.1964,-0.1638,-0.1511,-0.1478,0.0,0.0,0.0,0.0,0.0,0.0,0.0,0.0,0.0,0.0,0.0,0.0,0.0,0.0,0.0,0.0,0.0,0.0,0.0,0.0,0.0,0.0,0.0,0.0,0.0,0.0,0.047,-0.0079,-0.0634,0.0,0.0,0.0,0.0,0.0,0.0,0.0,0.0,0.0,0.0,-0.4432,-0.45,-0.4679,-0.4706,-0.4741,-0.4822,-0.483,-0.4931,-0.5133,-0.5429,-0.5732,0.0,0.0,0.0,0.0,0.0,0.0,0.0,0.0,0.0,0.0,0.0,0.0,0.0,0.0,0.0,0.0,0.0,0.0,0.0,0.0,0.0,0.0,0.0,0.0,0.0,0.0,0.0,-0.8776,-0.9838,0.0,0.0,0.0,0.0,0.0,0.0,0.0,0.0,0.0,0.0,0.0,-0.8723,-0.7705,0.0,0.0,0.0,0.0,0.0,0.0,0.0,0.0,0.0,0.0,0.0,0.0,-0.3509,-0.3697,-0.3302,-0.2884,-0.2451,-0.2398,-0.2201,-0.1769,-0.1638,-0.1493,-0.1423,0.0,0.0,0.0,0.0,0.0,0.0,0.0,0.0,0.0,0.0,0.0,0.0,0.0,0.0,0.0,0.0,0.0,0.0,0.0,0.0,0.0,0.0,0.0,0.0,0.0,0.1022,0.0,0.0,0.0,0.0,0.0,0.0,0.0,0.0,0.0,0.0,0.0,-0.3794,-0.4145,-0.4206,-0.4377,-0.4692,-0.4757,-0.4802,0.0,0.0,0.0,0.0,0.0,0.0,0.0,0.0,0.0,0.0,0.0,0.0,0.0,0.0,-0.4895,-0.4649,-0.4622,-0.4612,-0.4487,0.0,0.0,0.0,0.0,0.0,0.0,0.0,0.0,0.0,0.0,0.0,0.0,0.0,0.0,-0.9105,0.0,-1.0389,0.0,0.0,0.0,0.0,0.0,0.0,0.0,0.0,-1.0381,-0.951,-0.8548,-0.7665,-0.6913,0.0,-0.5872,-0.5659,0.0,0.0,0.0,0.0,0.0,0.0,0.0,0.0,-0.3455,-0.3736,-0.3312,-0.2895,-0.2474,-0.2406,-0.2208,-0.1786,-0.1547,-0.1493,-0.1424,-0.1401,-0.1372,0.0,0.0,0.0,0.0,0.0,0.0,0.0,0.0,0.0,0.0,0.0,0.0,0.0,0.0,0.0,0.0,0.0,0.0,0.0,0.0,0.0,0.0,0.0,0.1273,0.0,0.0,0.0,0.0,0.0,0.0,0.0,0.0,0.0,-0.308,-0.3262,-0.357,-0.3948,-0.4197,-0.4359,-0.4546,0.0,0.0,0.0,0.0,0.0,0.0,0.0,-0.5253,-0.5286,-0.5491,-0.5602,-0.5537,-0.534,-0.5137,-0.493,0.0,0.0,-0.4659,-0.462,-0.4612,-0.4579,-0.4571,-0.4581,-0.4614,-0.4548,-0.4578,0.0,0.0,0.0,0.0,0.0,0.0,0.0,0.0,-0.8653,-0.9161,0.0,-0.9946,0.0,0.0,0.0,0.0,0.0,-1.1843,0.0,0.0,-1.0294,-0.951,-0.8548,-0.7841,-0.7044,-0.6248,-0.6166,-0.5902,-0.5628,-0.5069,0.0,0.0,0.0,0.0,0.0,0.0,-0.3481,-0.3808,-0.3339,-0.3013,-0.282,-0.2522,-0.222,-0.2017,-0.1655,-0.1512,-0.148,-0.1423,-0.1391,-0.1388,-0.1336,0.0,0.0,0.0,0.0,0.0,0.0,0.0,0.0,0.0,0.0,0.0,0.0,0.0,0.0,0.0,0.0,0.0,0.0,0.0,0.0,0.1286,0.0,0.0,0.0,0.0,0.0,0.0,0.0,0.0,0.0,0.0,-0.2781,-0.2963,-0.3192,-0.3801,0.0,0.0,0.0,0.0,-0.4836,-0.4839,-0.4839,-0.4841,-0.4847,-0.505,-0.5284,-0.5379,0.0,0.0,-0.5516,-0.5318,-0.5102,-0.5106,-0.5098,-0.5026,-0.4773,-0.4732,-0.4702,-0.4622,-0.4612,-0.4624,-0.4706,-0.4499,-0.4367,-0.6739,0.0,0.0,0.0,0.0,-0.7524,-0.7909,-0.8219,-0.8383,-0.8659,-0.9003,-0.8999,0.0,0.0,0.0,0.0,0.0,0.0,-1.0722,-1.0636,-0.9859,-0.9165,-0.8548,-0.7496,-0.6786,-0.634,-0.5994,-0.573,-0.5641,-0.5396,-0.51,-0.4922,0.0,0.0,0.0,0.0,-0.3623,-0.3715,-0.3286,-0.2955,-0.2825,-0.2522,-0.2206,-0.1684,-0.1547,-0.1512,-0.1482,-0.1443,-0.1412,-0.1391,-0.1374,0.0,0.0,0.0,0.0,0.0,0.0,0.0,0.0,0.0,0.0,0.0,0.0,0.0,0.0,0.0,0.0,0.0,0.0,0.0,0.1565,0.1742,0.1833,0.0,0.0,0.0,0.0,0.0,0.0,0.0,0.0,0.0,-0.1924,-0.2383,-0.286,0.0,0.0,-0.4146,-0.4327,-0.4638,-0.4857,-0.4922,-0.4932,0.0,-0.502,-0.503,-0.5248,-0.5483,-0.5591,-0.5602,-0.5631,-0.5318,-0.5106,-0.5108,-0.5106,-0.5081,-0.5016,-0.4994,-0.4878,-0.4753,-0.4642,-0.465,-0.4366,-0.4287,-0.4306,-0.7132,-0.697,-0.7419,-0.7526,-0.755,-0.802,-0.8259,-0.8489,-0.8396,-0.8498,-0.8572,-0.8572,-0.8648,-0.8636,-0.8982,0.0,0.0,0.0,-1.0426,-1.0426,-0.9892,-0.9217,-0.8485,-0.7531,-0.6786,-0.6334,-0.5933,-0.5733,-0.5733,-0.5555,-0.5371,-0.5191,0.0,0.0,-0.4355,-0.4042,-0.3844,-0.3852,-0.3413,-0.3169,-0.2925,-0.2623,-0.2209,-0.1788,-0.1658,-0.153,-0.15,-0.147,-0.144,-0.1409,-0.1396,-0.1374,0.0,0.0,0.0,0.0,0.0,0.0,0.0,0.0,0.0,0.0,0.0,0.1105,0.1274,0.0,0.0,0.0,0.1391,0.1575,0.1848,0.2034,0.0,0.0,0.0,0.0,0.0,0.0,0.0,0.0554,0.0186,-0.0474,-0.1467,-0.187,-0.2271,-0.2876,-0.3373,-0.3794,-0.4273,0.0,-0.4822,-0.5014,-0.5024,-0.5045,-0.51,-0.5214,-0.5329,-0.5581,-0.562,-0.5642,-0.5537,-0.5322,-0.5216,-0.5218,-0.5216,-0.5216,-0.5216,-0.5108,-0.497,-0.4695,-0.4576,-0.448,-0.4296,-0.4196,-0.4097,-0.7394,-0.7235,-0.7662,-0.7959,-0.8279,-0.8489,-0.8682,-0.8902,-0.8605,-0.8516,-0.858,-0.8572,-0.8656,-0.8656,-0.8907,0.0,-1.0008,-1.0291,-1.0381,-1.021,-1.0117,-0.9452,-0.8329,-0.7636,-0.7024,-0.6379,-0.5902,-0.576,-0.5765,-0.5765,-0.5581,-0.5397,-0.4952,-0.4632,-0.4432,-0.4262,-0.4065,-0.3917,-0.3635,-0.3473,-0.3229,-0.2725,-0.2322,-0.2021,-0.1787,-0.1557,-0.1527,-0.1497,-0.1467,-0.1436,-0.1408,-0.1392,-0.1388,0.0,0.0,0.0,0.0,0.0,0.0,0.0,0.0,0.0,0.0,0.0,0.0,0.0,0.0,0.0,0.1601,0.0,0.2113,0.2153,0.0,0.0,0.0,0.1705,0.1525,0.1438,0.1451,0.1388,0.0,0.0,-0.1082,-0.1119,-0.1445,-0.2539,-0.294,-0.3468,-0.4043,-0.4366,-0.4706,-0.5,-0.5118,-0.5122,-0.5145,-0.5356,-0.5596,-0.5673,-0.5762,-0.5697,-0.5479,-0.5373,-0.5377,-0.5371,-0.5382,-0.5377,-0.538,-0.5031,-0.4882,-0.4625,-0.4388,-0.4196,-0.4148,-0.4052,-0.396,-0.757,-0.7407,-0.736,-0.7603,-0.8017,-0.8441,-0.8749,-0.8784,-0.8682,-0.8623,-0.8572,-0.8572,-0.873,-0.8947,-0.8935,-0.91,-0.9513,-0.9657,-0.9767,-0.9859,-0.9343,-0.8893,-0.852,-0.746,-0.6886,-0.6698,-0.6202,-0.6002,-0.6002,-0.6002,-0.5906,-0.5621,-0.5347,-0.5134,-0.4993,-0.4474,-0.4272,-0.4215,-0.3978,-0.3615,-0.323,-0.2826,-0.2524,-0.2022,-0.1985,-0.1752,-0.1527,-0.1496,-0.1466,-0.1437,-0.1429,-0.1414,-0.1391,-0.1377,0.0,0.0,0.0,0.0,0.0,0.0,0.0,0.0,0.0,0.0897,0.1335,0.0,0.1423,0.0,0.2049,0.2344,0.2382,0.2577,0.0,0.0,0.2327,0.2244,0.2065,0.2003,0.1852,0.1417,0.1658,0.1705,0.1634,0.0939,0.0,-0.1157,-0.2523,-0.3474,-0.3595,-0.4021,-0.4473,-0.4759,-0.4884,-0.5017,-0.5296,-0.5535,-0.5755,-0.5782,-0.5808,-0.5822,-0.571,-0.5493,-0.5382,-0.5382,-0.5382,-0.527,-0.5044,-0.4817,-0.4472,-0.4216,-0.4099,-0.3992,-0.3786,-0.3677,-0.3682,-0.7077,-0.7044,-0.7327,-0.7503,-0.7604,-0.8477,-0.8694,-0.8537,-0.87,-0.8687,-0.8635,-0.8931,-0.9047,-0.9134,-0.9042,-0.9183,-0.9372,-0.9545,-0.9678,-0.9772,-0.9287,-0.894,-0.8549,-0.7528,-0.7025,-0.6736,-0.63,-0.6086,-0.6086,-0.6086,-0.5992,-0.5894,-0.5658,-0.5558,-0.5504,-0.4846,-0.4526,-0.4565,-0.4212,-0.3833,-0.3433,-0.313,-0.2725,-0.2323,-0.2101,-0.1874,-0.1741,-0.1611,-0.1487,-0.1457,-0.1442,-0.1427,-0.1411,-0.1397,-0.1383,0.0,0.0,0.0,0.0,0.0,0.0,0.0,0.0,0.0,0.0,0.0,0.1628,0.1991,0.2385,0.2607,0.2727,0.2935,0.2952,0.2767,0.2767,0.2674,0.2397,0.2422,0.2268,0.1831,0.2065,0.2516,0.2895,0.1896,0.0641,-0.0323,-0.1735,-0.2933,-0.3343,-0.3771,-0.4228,-0.4623,-0.475,-0.4985,-0.5483,-0.5712,-0.5819,-0.5819,-0.5819,-0.571,-0.5601,-0.5491,-0.5382,-0.5382,-0.527,-0.5156,-0.4931,-0.4594,-0.4258,-0.4036,-0.3924,-0.3813,-0.3587,-0.3587,-0.3587,-0.6545,-0.674,-0.7319,-0.7426,-0.722,-0.8301,-0.8553,-0.8357,-0.8516,-0.8579,-0.8664,-0.93,-0.9422,-0.9133,-0.923,-0.9332,-0.9451,-0.9702,-0.9769,-0.9682,-0.9551,-0.913,-0.8425,-0.771,-0.7167,-0.6669,-0.6277,-0.613,-0.6132,-0.613,-0.613,-0.6135,-0.5945,-0.5886,-0.5874,-0.5187,-0.4743,-0.4832,-0.4334,-0.3935,-0.3737,-0.3433,-0.313,-0.2826,-0.2323,-0.2104,-0.2064,-0.1739,-0.1517,-0.1574,-0.1455,-0.1439,-0.1435,-0.141,-0.1396,0.0,-0.1373,0.0,0.0,0.0,0.0,0.0,0.0,0.0,0.0,0.1663,0.1945,0.2439,0.2667,0.2787,0.297,0.3112,0.3146,0.3144,0.3146,0.3049,0.2858,0.2769,0.2694,0.2447,0.2467,0.2814,0.3424,0.2224,0.1079,0.0328,-0.0998,-0.2225,-0.308,-0.3508,-0.3967,-0.436,-0.4706,-0.5031,-0.5485,-0.5599,-0.571,-0.571,-0.571,-0.5712,-0.5491,-0.5382,-0.5382,-0.527,-0.5044,-0.4931,-0.4819,-0.4372,-0.4038,-0.3924,-0.3701,-0.3587,-0.3587,-0.3587,-0.3587,-0.6609,-0.7675,-0.7587,-0.7282,-0.6874,-0.7385,-0.777,-0.8059,-0.8108,-0.8379,-0.8979,-0.9132,-0.922,-0.9502,-0.9403,-0.9485,-0.9527,-0.9657,-0.9674,-0.9579,-0.911,-0.873,-0.8333,-0.7608,-0.7102,-0.6807,-0.6479,-0.6372,-0.6369,-0.6369,-0.6369,-0.6372,-0.6098,-0.6064,-0.6174,0.0,0.0,0.0,-0.4435,-0.4135,-0.4237,-0.3736,-0.3433,-0.313,-0.2826,0.0,-0.2357,-0.2055,-0.1826,-0.1856,-0.1567,0.0,0.0,0.0,0.0,0.0,0.0,0.0,0.0,0.0,0.0,0.0,0.1174,0.1448,0.1429,0.1812,0.2307,0.2633,0.3122,0.3223,0.3127,0.3518,0.3624,0.3433,0.3433,0.3433,0.3337,0.3189,0.3029,0.2942,0.3062,0.326,0.3392,0.3161,0.2668,0.1449,-0.0448,-0.1793,-0.2121,-0.2787,-0.3462,-0.4035,-0.437,-0.4704,-0.5041,-0.5041,-0.5154,-0.5382,-0.5491,-0.5493,-0.5382,-0.5382,-0.527,-0.5044,-0.4931,-0.4707,-0.426,-0.4036,-0.3924,-0.3701,-0.3699,-0.3587,-0.3587,-0.3587,-0.3587,-0.642,-0.7207,-0.7455,-0.7142,0.0,-0.6737,-0.6922,-0.7183,-0.7696,-0.8309,-0.8931,-0.8807,-0.884,-0.9033,-0.8855,-0.887,-0.894,-0.9065,-0.9225,-0.9225,-0.8924,-0.8627,-0.8333,-0.7534,-0.7003,-0.675,-0.6451,-0.632,-0.6265,-0.6263,-0.6263,-0.6265,-0.6071,-0.6042,-0.5992,-0.5649,-0.5506,-0.5461,-0.4914,-0.4638,-0.4638,-0.4237,-0.3817,-0.3584,-0.3184,0.0,0.0,0.0,0.0,0.0,0.0,0.0,0.0,-0.1472,0.0,-0.148,-0.1387,-0.1202,-0.074,-0.0,0.0463,0.074,0.1214,0.159,0.1852,0.2242,0.264,0.3046,0.346,0.3671,0.3479,0.3801,0.3826,0.363,0.3629,0.3627,0.3437,0.3461,0.3482,0.3191,0.3368,0.3448,0.3405,0.3462,0.3087,0.1901,0.0224,-0.1121,-0.1795,-0.2578,-0.3362,-0.3924,-0.4148,-0.437,-0.4594,-0.4706,-0.4704,-0.4931,-0.4931,-0.5044,-0.5156,-0.5044,-0.4931,-0.4819,-0.4706,-0.4372,-0.4036,-0.3924,-0.3701,-0.3587,-0.3587,-0.3587,-0.3362,-0.3362,-0.3251,-0.6339,-0.66,-0.7196,-0.7095,-0.6329,-0.631,-0.6398,-0.6473,0.0,0.0,0.0,-0.864,-0.8452,-0.8095,-0.8173,-0.8197,-0.8167,-0.8446,-0.8671,-0.8641,-0.8543,-0.8364,-0.8093,-0.74,-0.6947,-0.6657,-0.6365,-0.6219,-0.6121,-0.6116,-0.613,-0.6146,-0.6149,-0.6045,-0.5847,-0.5945,-0.5999,-0.5907,-0.5515,-0.5172,-0.4985,-0.4683,-0.434,-0.406,-0.3566,-0.324,-0.2987,-0.2371,-0.1969,-0.1768,-0.1582,-0.1486,-0.1482,-0.1504,-0.1521,-0.1525,-0.1431,-0.124,-0.0858,-0.0286,0.0286,0.0671,0.1146,0.1719,0.2301,0.2587,0.2974,0.3466,0.3808,0.3941,0.3939,0.4093,0.4034,0.3736,0.3935,0.3932,0.3531,0.3731,0.3828,0.3435,0.3458,0.3609,0.3505,0.3547,0.3261,0.2228,0.0897,-0.0448,-0.1677,-0.2573,-0.325,-0.3813,-0.3924,-0.4036,-0.4369,-0.4463,-0.4462,-0.4677,-0.4666,-0.4663,-0.4888,-0.4786,-0.4677,-0.4873,-0.4451,-0.412,-0.4003,-0.3781,-0.357,-0.3572,-0.3579,-0.3475,-0.3137,-0.2907,-0.2787,-0.7095,-0.6708,-0.7192,-0.7135,-0.6531,-0.6439,-0.6686,-0.7152,-0.7671,-0.8349,-0.8859,-0.8635,-0.7978,-0.7015,-0.772,-0.7997,-0.7973,-0.8049,-0.7966,-0.7841,-0.7651,-0.7432,-0.7255,-0.697,-0.6669,-0.6365,-0.6365,-0.6263,-0.6244,-0.6241,-0.629,-0.6369,-0.6388,-0.6336,-0.6263,-0.6558,-0.6716,-0.6719,-0.6027,-0.5714,-0.5803,-0.5069,-0.4607,-0.4534,-0.4215,-0.3775,-0.3207,-0.2794,-0.2457,-0.1904,-0.1614,-0.1508,-0.1483,-0.1487,-0.1499,-0.1523,-0.1526,-0.1431,-0.1335,-0.2099,-0.1826,-0.0097,0.0963,0.1728,0.2341,0.2638,0.305,0.3498,0.4009,0.4218,0.4019,0.4425,0.4535,0.4338,0.4338,0.4338,0.4138,0.4038,0.3939,0.3743,0.3739,0.3699,0.3524,0.3497,0.3559,0.3025,0.1344,-0.0558,-0.1765,-0.2667,-0.3246,-0.3587,-0.3699,-0.3921,-0.4237,-0.4426,-0.4505,-0.5043,-0.4988,-0.4849,-0.4964,-0.4899,-0.4802,-0.4732,-0.4459,-0.4144,-0.3885,-0.3694,-0.3507,-0.3518,-0.3328,-0.3132,-0.2801,-0.2219,-0.1866,-0.6294,-0.6867,-0.6709,-0.6412,-0.618,-0.591,-0.62,-0.6705,-0.7086,-0.7798,-0.8831,-0.8321,-0.7563,-0.6687,-0.7094,-0.7318,-0.725,-0.7397,-0.7427,-0.7437,-0.7462,-0.7308,-0.7137,-0.6851,-0.6623,-0.6271,-0.6265,-0.6236,-0.6173,-0.617,-0.6195,-0.6249,-0.6312,-0.635,-0.6366,-0.6785,-0.712,-0.7458,-0.6928,-0.6427,-0.6162,-0.5953,-0.5668,-0.5211,-0.4902,-0.4634,-0.4208,-0.3523,-0.3106,-0.2766,-0.2478,-0.2193,-0.2006,-0.2197,-0.2122,-0.1573,-0.1279,-0.1279,-0.1477,-0.2266,-0.2155,-0.0581,0.0194,0.1069,0.1959,0.2549,0.3065,0.3725,0.4137,0.4338,0.4237,0.4535,0.4634,0.4234,0.4338,0.4338,0.4243,0.4073,0.3993,0.3797,0.3771,0.374,0.3562,0.3507,0.3557,0.3358,0.156,-0.033,-0.1513,-0.2278,-0.2727,-0.3164,-0.3383,-0.3601,-0.3928,-0.3905,-0.4006,-0.4251,-0.4201,-0.4283,-0.4411,-0.4435,-0.4295,-0.4268,-0.4077,-0.3761,-0.3624,-0.3564,-0.3488,-0.3499,-0.3296,-0.2994,-0.2677,-0.1868,-0.1188,-0.5484,-0.664,-0.6233,-0.5933,-0.5819,-0.5468,-0.5691,-0.6144,-0.6177,-0.7103,-0.8467,-0.7999,-0.7163,-0.6425,-0.6421,-0.646,-0.6518,-0.664,-0.6781,-0.6935,-0.714,-0.7082,-0.7027,-0.6739,-0.6592,-0.6314,-0.6306,-0.6244,-0.6138,-0.6127,-0.6157,-0.6208,-0.6301,-0.6407,-0.6518,-0.685,-0.7326,-0.7717,-0.7663,-0.7307,-0.677,-0.6883,-0.6671,-0.5962,-0.585,-0.5546,-0.5153,-0.4369,-0.3776,-0.3649,-0.3261,-0.2898,-0.2645,-0.2844,-0.2772,-0.2215,-0.1614,-0.1412,-0.1817,-0.2113,-0.1887,-0.0872,-0.0194,0.0489,0.1478,0.2262,0.3065,0.3919,0.4237,0.4438,0.4437,0.4638,0.4535,0.4234,0.4354,0.447,0.4168,0.4227,0.4067,0.3761,0.3814,0.3767,0.3578,0.3488,0.34,0.2979,0.1644,0.0108,-0.0957,-0.1588,-0.2222,-0.2639,-0.3075,-0.3309,-0.341,-0.3505,-0.3515,-0.3666,-0.3617,-0.3805,-0.3936,-0.3717,-0.371,-0.3912,-0.3704,-0.36,-0.35,-0.3421,-0.3345,-0.3355,-0.3042,-0.2727,-0.1971,-0.1186,-0.0424,-0.552,-0.5735,-0.6095,-0.6047,-0.5813,-0.5404,-0.5412,-0.581,-0.5584,-0.6367,-0.7587,-0.7452,-0.6967,-0.6411,-0.58,-0.581,-0.6222,-0.5889,-0.5838,-0.6149,-0.6203,-0.6319,-0.6437,-0.6337,-0.6329,-0.642,-0.6418,-0.6355,-0.6257,-0.6257,-0.6358,-0.6548,-0.6581,-0.6646,-0.6766,-0.7096,-0.739,-0.7414,-0.8063,-0.8225,-0.7895,-0.7453,-0.7056,-0.6929,-0.681,-0.6489,-0.5843,-0.5237,-0.4657,-0.4023,-0.3521,-0.3231,-0.314,-0.2943,-0.3166,-0.3927,-0.3127,-0.2522,-0.262,-0.2284,-0.1682,-0.0601,0.0,0.0583,0.1101,0.1982,0.2969,0.3817,0.4137,0.4444,0.4736,0.4642,0.4545,0.4651,0.4802,0.4858,0.4549,0.4517,0.4457,0.3823,0.3868,0.3799,0.3439,0.3462,0.3148,0.2579,0.1928,0.0954,-0.0104,-0.0935,-0.1552,-0.2056,-0.2606,-0.3077,-0.3392,-0.3566,-0.3655,-0.3962,-0.4008,-0.3891,-0.3908,-0.3938,-0.4157,-0.3846,-0.3846,-0.3637,-0.3533,-0.3337,-0.3048,-0.2982,-0.2562,-0.1917,-0.0631,0.0105,0.0522,-0.5739,-0.5845,-0.5756,-0.5714,-0.5477,-0.517,-0.5045,-0.5176,-0.5072,-0.5303,-0.5756,-0.5855,-0.5703,-0.5394,-0.5151,-0.5109,-0.5176,-0.5475,-0.549,-0.5501,-0.6103,-0.6393,-0.6429,-0.6476,-0.6545,-0.6535,-0.6472,-0.6412,-0.6388,-0.6439,-0.6526,-0.6627,-0.6757,-0.6861,-0.6918,-0.7136,-0.7413,-0.7529,-0.8017,-0.8266,-0.8266,-0.8266,-0.7981,-0.7531,-0.7513,-0.7324,-0.6948,-0.6198,-0.5714,-0.5574,-0.4908,-0.4281,-0.3983,-0.4241,-0.4252,-0.4029,-0.4241,-0.4219,-0.3874,-0.2985,-0.2181,-0.1369,-0.0973,-0.0391,0.0396,0.0394,0.1187,0.3419,0.4073,0.4305,0.4406,0.461,0.4716,0.4712,0.4804,0.4792,0.469,0.4455,0.4191,0.3987,0.3728,0.3549,0.342,0.3432,0.3206,0.2634,0.2202,0.1561,0.0819,-0.0102,-0.0814,-0.1115,-0.1844,-0.2577,-0.2993,-0.308,-0.3282,-0.3504,-0.3576,-0.3539,-0.3579,-0.3567,-0.3573,-0.3576,-0.3474,-0.337,-0.3163,-0.3094,-0.2915,-0.2626,-0.2117,-0.1268,-0.0206,0.0412,0.0827,-0.5818,-0.5803,-0.5491,-0.5359,-0.5371,-0.4926,-0.4785,-0.468,-0.4546,-0.437,-0.4241,-0.4393,-0.4468,-0.4364,-0.4241,-0.4228,-0.4429,-0.483,-0.4869,-0.4828,-0.5546,-0.6012,-0.611,-0.6602,-0.6654,-0.6616,-0.6465,-0.6417,-0.6499,-0.6573,-0.6651,-0.6736,-0.6899,-0.6999,-0.7037,-0.7119,-0.7268,-0.7493,-0.7715,-0.8045,-0.8374,-0.8598,-0.8553,-0.8125,-0.8116,-0.8157,-0.7912,-0.7057,-0.6669,-0.6727,-0.6025,-0.5273,-0.4865,-0.5187,-0.5068,-0.4429,-0.5146,-0.5216,-0.4548,-0.3486,-0.2579,-0.1751,-0.1566,-0.1182,-0.0395,-0.0396,0.0596,0.2919,0.3794,0.414,0.4426,0.4627,0.4629,0.4627,0.4687,0.4774,0.4681,0.444,0.4182,0.3974,0.3707,0.3402,0.3388,0.3372,0.3235,0.2995,0.247,0.2051,0.162,0.0606,-0.0101,-0.0303,-0.1112,-0.182,-0.2423,-0.273,-0.2847,-0.2961,-0.3048,-0.3143,-0.3185,-0.3149,-0.3148,-0.3173,-0.3145,-0.3041,-0.286,-0.2785,-0.2474,-0.2067,-0.1459,-0.0732,0.0102,0.0615,0.1126,-0.5388,-0.5377,-0.529,-0.5308,-0.5365,-0.487,-0.4629,-0.4366,-0.4068,-0.3791,-0.3532,-0.3523,-0.3522,-0.3516,-0.2951,-0.3224,-0.4133,-0.374,-0.365,-0.3965,-0.4163,-0.4595,-0.5491,-0.6322,-0.6744,-0.6665,-0.6508,-0.6495,-0.6616,-0.6627,-0.6738,-0.6956,-0.6983,-0.7043,-0.7124,-0.7146,-0.7154,-0.7268,-0.749,-0.7715,-0.8045,-0.8377,-0.8595,-0.8696,-0.8813,-0.8739,-0.8507,-0.7837,-0.7292,-0.7144,-0.6305,-0.5786,-0.567,-0.5381,-0.5331,-0.5436,-0.5539,-0.5133,-0.4111,-0.3674,-0.2771,-0.11,-0.1189,-0.1287,-0.0502,0.0503,0.1609,0.2522,0.3481,0.4111,0.4564,0.4367,0.4362,0.4665,0.4718,0.464,0.4549,0.4592,0.4348,0.4026,0.381,0.3581,0.333,0.3274,0.3256,0.304,0.2731,0.2223,0.1817,0.1211,0.0606,0.0101,-0.0505,-0.1111,-0.1819,-0.2323,-0.2625,-0.2633,-0.2738,-0.2828,-0.2827,-0.2831,-0.2856,-0.2868,-0.2844,-0.2742,-0.2567,-0.2156,-0.173,-0.1223,-0.0617,0.0103,0.0507,0.1112,0.152,-0.5382,-0.538,-0.5347,-0.524,-0.5029,-0.4702,-0.4348,-0.4033,-0.3711,-0.3446,-0.3323,-0.332,-0.332,-0.3427,-0.2816,-0.2819,-0.324,-0.3275,-0.3293,-0.3194,-0.3975,-0.4764,-0.5437,-0.6406,-0.691,-0.6858,-0.6817,-0.6674,-0.6755,-0.6812,-0.6896,-0.698,-0.7059,-0.7119,-0.7149,-0.7154,-0.7154,-0.7265,-0.7493,-0.7607,-0.7715,-0.8045,-0.8269,-0.838,-0.8716,-0.8803,-0.8633,-0.8084,-0.7741,-0.7476,-0.6728,-0.6243,-0.5913,-0.5658,-0.5539,-0.5746,-0.5602,-0.5103,-0.4446,-0.3753,-0.3143,-0.2321,-0.1103,-0.04,0.0202,0.111,0.2017,0.3133,0.3751,0.4261,0.4459,0.4382,0.4413,0.4618,0.4698,0.4687,0.4687,0.461,0.432,0.4012,0.3704,0.3387,0.3273,0.3244,0.3232,0.323,0.3029,0.2826,0.2522,0.1917,0.1211,0.0908,0.0303,-0.0505,-0.1111,-0.1818,-0.2323,-0.2423,-0.2523,-0.2523,-0.2522,-0.2522,-0.2539,-0.2543,-0.2529,-0.2429,-0.2245,-0.1733,-0.1212,-0.0708,-0.0102,0.0408,0.0708,0.1314,0.1525,-0.5382,-0.527,-0.527,-0.5044,-0.4697,-0.4404,-0.4153,-0.3814,-0.3501,-0.3246,-0.3246,-0.3246,-0.3255,-0.3172,-0.2994,-0.2806,-0.249,-0.282,-0.271,-0.2388,-0.318,-0.3966,-0.4622,-0.5586,-0.6209,-0.6488,-0.6738,-0.682,-0.6866,-0.6945,-0.7002,-0.7046,-0.7119,-0.7154,-0.7154,-0.7154,-0.7154,-0.7268,-0.7382,-0.7493,-0.7604,-0.7715,-0.7934,-0.8045,-0.838,-0.8494,-0.8374,-0.8048,-0.7841,-0.7532,-0.7032,-0.658,-0.6173,-0.5874,-0.5775,-0.5756,-0.5198,-0.4908,-0.4762,-0.378,-0.2965,-0.2427,-0.1008,0.0303,0.101,0.1716,0.2624,0.3534,0.3937,0.4137,0.4246,0.4387,0.4523,0.4619,0.4671,0.4636,0.4636,0.4539,0.4241,0.3841,0.3441,0.3234,0.323,0.3232,0.323,0.323,0.313,0.3029,0.2927,0.2422,0.1816,0.1816,0.111,0.0505,0.0101,-0.0404,-0.1515,-0.1716,-0.212,-0.212,-0.222,-0.222,-0.222,-0.2221,-0.2221,-0.2121,-0.1818,-0.1212,-0.0707,-0.0202,0.0202,0.071,0.1011,0.1314,0.153,-0.5156,-0.4931,-0.4931,-0.4706,-0.4472,-0.4081,-0.3938,-0.3822,-0.3547,-0.3305,-0.3304,-0.32,-0.3008,-0.2831,-0.3169,-0.298,-0.233,-0.2066,-0.1826,-0.1826,-0.1933,-0.2362,-0.3224,-0.4144,-0.5004,-0.5683,-0.6394,-0.677,-0.6766,-0.6782,-0.6939,-0.7133,-0.7146,-0.7154,-0.7154,-0.7154,-0.7154,-0.7265,-0.7268,-0.7379,-0.7607,-0.7607,-0.7715,-0.7934,-0.794,-0.8054,-0.7934,-0.7829,-0.7654,-0.7411,-0.6978,-0.6692,-0.6406,-0.6235,-0.5846,-0.5155,-0.4442,-0.4343,-0.4645,-0.3542,-0.2132,-0.0808,-0.0202,0.0605,0.1615,0.2524,0.3232,0.3636,0.3737,0.3734,0.4034,0.4345,0.4551,0.4738,0.4539,0.4537,0.4437,0.4338,0.4239,0.3736,0.3332,0.323,0.323,0.323,0.323,0.313,0.3029,0.2927,0.2929,0.263,0.2426,0.2322,0.1923,0.132,0.1214,0.1009,-0.0101,-0.1009,-0.1414,-0.1717,-0.1818,-0.1818,-0.1515,-0.1515,-0.1312,-0.1211,-0.1616,-0.101,0.0,0.0606,0.0909,0.1011,0.1415,0.1622,0.1641,-0.5156,-0.4931,-0.4931,-0.4594,-0.4145,-0.4013,-0.3895,-0.3663,-0.3496,-0.3471,-0.347,-0.3362,-0.3155,-0.2741,-0.2435,-0.2345,-0.2129,-0.1885,-0.1767,-0.1765,-0.1765,-0.2205,-0.2979,-0.3549,-0.4436,-0.5188,-0.529,-0.5192,-0.5433,-0.5883,-0.6241,-0.6374,-0.6932,-0.7154,-0.7154,-0.7154,-0.7154,-0.7154,-0.7154,-0.7268,-0.7268,-0.7382,-0.7379,-0.7379,-0.7493,-0.749,-0.7487,-0.7379,-0.732,-0.71,-0.7056,-0.6711,-0.6305,-0.6118,-0.5576,-0.475,-0.4289,-0.3882,-0.3646,-0.2651,-0.0919,0.1114,0.1311,0.1513,0.2523,0.303,0.3332,0.3636,0.3835,0.3934,0.4033,0.4435,0.4535,0.4232,0.4535,0.4535,0.4135,0.4038,0.3736,0.3635,0.3332,0.323,0.3232,0.3233,0.3238,0.3245,0.3141,0.304,0.3039,0.2872,0.2757,0.2633,0.2342,0.2161,0.1957,0.1751,0.1132,0.0204,-0.0407,-0.091,-0.1111,-0.1111,-0.0909,-0.0707,-0.0504,-0.0504,-0.0909,-0.0505,0.0606,0.1111,0.1313,0.1516,0.1822,0.1837,0.1755,-0.4931,-0.4596,-0.4596,-0.426,-0.3924,-0.3813,-0.3701,-0.3582,-0.3548,-0.353,-0.3531,-0.353,-0.3201,-0.2657,-0.2122,-0.1906,-0.2019,-0.1907,-0.1795,-0.1795,-0.1795,-0.2131,-0.269,-0.3138,-0.3586,-0.4033,-0.4367,-0.448,-0.448,-0.5039,-0.5375,-0.5485,-0.6265,-0.671,-0.671,-0.7046,-0.7168,-0.7211,-0.7222,-0.7222,-0.7222,-0.7222,-0.7201,-0.7163,-0.7154,-0.7154,-0.7154,-0.7154,-0.7124,-0.7054,-0.701,-0.6762,-0.6236,-0.5838,-0.5177,-0.4248,-0.3664,-0.3164,-0.2632,-0.1833,-0.0204,0.2023,0.1917,0.1816,0.2826,0.313,0.3332,0.3433,0.3633,0.3835,0.3935,0.4336,0.4435,0.4034,0.4433,0.4533,0.4033,0.3736,0.3536,0.3433,0.3332,0.3241,0.3258,0.3264,0.3286,0.3312,0.333,0.333,0.3341,0.3174,0.3155,0.3045,0.2974,0.2768,0.2534,0.2316,0.2207,0.1558,0.0821,0.0203,-0.0303,-0.0101,0.0101,0.0,0.0202,0.0101,-0.0202,0.0504,0.1412,0.1615,0.1719,0.1727,0.1836,0.1748,0.1667,-0.4596,-0.4038,-0.4038,-0.3924,-0.3587,-0.3587,-0.3587,-0.3587,-0.3583,-0.358,-0.3582,-0.3466,-0.3135,-0.2578,-0.2018,-0.1795,-0.1795,-0.1795,-0.1795,-0.1793,-0.1791,-0.1901,-0.2018,-0.269,-0.2689,-0.2464,-0.3471,-0.4145,-0.4033,-0.4255,-0.448,-0.4479,-0.5262,-0.5822,-0.6044,-0.671,-0.7099,-0.7301,-0.7323,-0.7326,-0.7339,-0.7347,-0.7301,-0.7201,-0.7187,-0.7182,-0.7184,-0.7165,-0.7154,-0.7138,-0.704,-0.6666,-0.6167,-0.539,-0.4618,-0.3636,-0.2823,-0.2224,-0.1616,-0.1011,0.0303,0.2223,0.2119,0.1917,0.2725,0.313,0.323,0.3332,0.3534,0.3636,0.3736,0.4137,0.4236,0.4234,0.4435,0.4435,0.4135,0.3739,0.355,0.3347,0.3241,0.3268,0.3334,0.3338,0.3384,0.3441,0.3469,0.3461,0.3474,0.3488,0.3533,0.3534,0.3405,0.3287,0.2931,0.2903,0.2789,0.2553,0.1996,0.1559,0.1025,0.1125,0.1221,0.1118,0.0918,0.0814,0.1015,0.1732,0.1927,0.1919,0.2029,0.1942,0.1856,0.1873,0.1795,-0.437,-0.4038,-0.4038,-0.3813,-0.3587,-0.3587,-0.3587,-0.3587,-0.3362,-0.3362,-0.3475,-0.3141,-0.2692,-0.2019,-0.1907,-0.1795,-0.1795,-0.1795,-0.1795,-0.1791,-0.177,-0.1776,-0.1791,-0.2019,-0.2018,-0.1906,-0.2354,-0.2467,-0.2579,-0.325,-0.3473,-0.3473,-0.4367,-0.515,-0.571,-0.6044,-0.6547,-0.7204,-0.7339,-0.7391,-0.7462,-0.747,-0.7459,-0.7423,-0.7334,-0.7293,-0.7277,-0.7201,-0.7154,-0.7146,-0.6824,-0.6483,-0.6032,-0.5222,-0.4226,-0.3251,-0.2424,-0.1716,-0.1415,-0.0404,0.1111,0.2625,0.2422,0.2422,0.3029,0.313,0.3332,0.3433,0.3536,0.3636,0.3635,0.4039,0.434,0.4535,0.4448,0.4246,0.425,0.388,0.3603,0.361,0.3473,0.3416,0.3437,0.3452,0.3467,0.35,0.3514,0.351,0.3536,0.3565,0.3601,0.3582,0.3568,0.3576,0.3564,0.3527,0.3391,0.3264,0.3024,0.2901,0.2655,0.2637,0.2716,0.2693,0.2311,0.2105,0.2404,0.292,0.2681,0.2467,0.2382,0.2417,0.2205,0.2113,0.1933,-0.4147,-0.3813,-0.3813,-0.3701,-0.3587,-0.3587,-0.3475,-0.3362,-0.325,-0.3138,-0.3141,-0.2918,-0.2356,-0.1795,-0.1795,-0.1795,-0.1795,-0.1795,-0.1787,-0.177,-0.1744,-0.1748,-0.1772,-0.1786,-0.1795,-0.1795,-0.1795,-0.1795,-0.1907,-0.2354,-0.2466,-0.2689,-0.3473,-0.4143,-0.4594,-0.5529,-0.6155,-0.6824,-0.7225,-0.7527,-0.7589,-0.7595,-0.7559,-0.7524,-0.7442,-0.7396,-0.7334,-0.7107,-0.6935,-0.6922,-0.6754,-0.6236,-0.5493,-0.4796,-0.378,-0.2688,-0.1745,-0.1226,-0.0714,0.0406,0.1615,0.2624,0.2725,0.2927,0.313,0.323,0.3332,0.3433,0.3433,0.3433,0.354,0.3859,0.418,0.4393,0.421,0.4114,0.4294,0.3943,0.3664,0.359,0.3542,0.351,0.353,0.3555,0.3583,0.3608,0.3628,0.3609,0.3597,0.363,0.3649,0.3634,0.3649,0.3669,0.3695,0.3674,0.3655,0.3628,0.359,0.3567,0.3531,0.3499,0.3358,0.3339,0.3363,0.348,0.3349,0.3338,0.3236,0.3018,0.2914,0.2805,0.2592,0.2377,0.2195,-0.3813,-0.3587,-0.3587,-0.3587,-0.3587,-0.3587,-0.3475,-0.3138,-0.3026,-0.2915,-0.2806,-0.2693,-0.2244,-0.1795,-0.1795,-0.1795,-0.1795,-0.1795,-0.1661,-0.1638,-0.1507,-0.1507,-0.1746,-0.1773,-0.1788,-0.1793,-0.1795,-0.1799,-0.1803,-0.1916,-0.1804,-0.2036,-0.271,-0.3042,-0.3624,-0.4791,-0.5666,-0.6118,-0.6901,-0.7316,-0.7469,-0.7595,-0.7679,-0.7606,-0.7402,-0.7324,-0.7111,-0.6891,-0.6604,-0.6492,-0.6601,-0.587,-0.492,-0.4251,-0.3239,-0.1911,-0.115,-0.0621,-0.0,0.0917,0.1917,0.2522,0.2928,0.313,0.323,0.323,0.324,0.3271,0.3245,0.3253,0.3376,0.3616,0.3851,0.4174,0.4222,0.4125,0.4098,0.3914,0.3738,0.3533,0.3476,0.3538,0.3589,0.3643,0.3689,0.3655,0.3676,0.3661,0.3647,0.3666,0.3685,0.3691,0.3725,0.3774,0.3804,0.383,0.3818,0.38,0.3753,0.3718,0.3679,0.3644,0.3499,0.3485,0.3595,0.359,0.3465,0.3354,0.3479,0.3348,0.3106,0.3007,0.2796,0.2682,0.2479,-0.3699,-0.3587,-0.3587,-0.3587,-0.3587,-0.3587,-0.3362,-0.3026,-0.2803,-0.2692,-0.2581,-0.2244,-0.1907,-0.1795,-0.1793,-0.1795,-0.1679,-0.1676,-0.1545,-0.1072,-0.0641,-0.0959,-0.1506,-0.1639,-0.1772,-0.1788,-0.1795,-0.1807,-0.1823,-0.1829,-0.1842,-0.1975,-0.207,-0.2416,-0.3134,-0.3695,-0.431,-0.5002,-0.6007,-0.654,-0.6841,-0.7459,-0.7809,-0.7761,-0.7377,-0.7114,-0.6888,-0.6551,-0.6161,-0.5822,-0.559,-0.522,-0.4609,-0.3717,-0.2714,-0.1605,-0.063,-0.0104,0.0207,0.1228,0.2223,0.2933,0.2939,0.2928,0.323,0.3243,0.3285,0.3334,0.3334,0.3431,0.3564,0.374,0.3958,0.4051,0.3978,0.3908,0.3895,0.3903,0.3805,0.3718,0.3678,0.3642,0.3654,0.3666,0.3694,0.37,0.3698,0.3692,0.3689,0.3689,0.3689,0.3687,0.3709,0.374,0.3777,0.3818,0.3854,0.3864,0.3845,0.3839,0.38,0.3762,0.3602,0.3703,0.3704,0.3584,0.3585,0.3591,0.3721,0.3566,0.3423,0.3324,0.3108,0.2994,0.2872,-0.3587,-0.3587,-0.3587,-0.3475,-0.3362,-0.3362,-0.3138,-0.2691,-0.258,-0.2356,-0.2244,-0.1907,-0.1795,-0.1793,-0.1781,-0.1663,-0.1216,-0.0988,-0.0759,-0.0427,-0.0107,-0.0321,-0.0647,-0.098,-0.1103,-0.1567,-0.1458,-0.1472,-0.1718,-0.1729,-0.1853,-0.1883,-0.1869,-0.2102,-0.2711,-0.3171,-0.3673,-0.4082,-0.4725,-0.5253,-0.5778,-0.6646,-0.7383,-0.7482,-0.7217,-0.684,-0.6736,-0.6173,-0.565,-0.5162,-0.4477,-0.4015,-0.3544,-0.2874,-0.187,-0.0545,-0.0,0.0526,0.0942,0.1655,0.256,0.3277,0.3194,0.3225,0.3346,0.3356,0.3397,0.3454,0.3444,0.3519,0.3627,0.3676,0.3795,0.3799,0.3831,0.3759,0.376,0.376,0.376,0.3778,0.373,0.3658,0.3681,0.3683,0.3687,0.3692,0.3684,0.3676,0.3634,0.3634,0.3642,0.3646,0.3661,0.3687,0.3725,0.3777,0.3845,0.3865,0.3875,0.3887,0.3887,0.3849,0.3811,0.3808,0.3808,0.3834,0.3718,0.3845,0.3835,0.3704,0.3684,0.3556,0.3537,0.3403,0.3274,-0.3587,-0.3475,-0.3475,-0.3362,-0.3026,-0.3027,-0.2691,-0.2244,-0.2244,-0.2127,-0.1787,-0.1788,-0.178,-0.1774,-0.1425,-0.109,-0.0653,-0.0108,0.0107,0.0107,0.0427,0.043,0.0217,0.0219,-0.0221,-0.1232,-0.1014,-0.1024,-0.1267,-0.1507,-0.1411,-0.1659,-0.1776,-0.1782,-0.2144,-0.2871,-0.3373,-0.3272,-0.3422,-0.4055,-0.4679,-0.5665,-0.6401,-0.6628,-0.6424,-0.6096,-0.6005,-0.5561,-0.5017,-0.4502,-0.3253,-0.2353,-0.1905,-0.1686,-0.0901,0.0787,0.0768,0.0978,0.1515,0.2132,0.2742,0.3365,0.3407,0.3455,0.3489,0.3486,0.3514,0.3556,0.3561,0.3521,0.3456,0.3507,0.3526,0.3522,0.3559,0.3582,0.3587,0.3587,0.3582,0.3589,0.3612,0.3639,0.3662,0.3672,0.3677,0.368,0.367,0.3654,0.3612,0.359,0.3605,0.3627,0.3647,0.3692,0.3732,0.3715,0.3786,0.3834,0.3862,0.3877,0.3901,0.3854,0.3818,0.3895,0.3916,0.3914,0.3914,0.3909,0.3913,0.3939,0.3916,0.3745,0.372,0.3822,0.3681,-0.3475,-0.3138,-0.3138,-0.3027,-0.2805,-0.2805,-0.2577,-0.2244,-0.2127,-0.2003,-0.1868,-0.1757,-0.1743,-0.151,-0.0751,-0.0215,0.0,0.043,0.0752,0.0865,0.1077,0.1296,0.1203,0.1207,0.0884,0.0336,0.0114,-0.0231,-0.0352,-0.0357,-0.0719,-0.1094,-0.1088,-0.1329,-0.17,-0.2188,-0.2431,-0.2325,-0.246,-0.2955,-0.3696,-0.4558,-0.5295,-0.541,-0.5106,-0.4817,-0.477,-0.4438,-0.3901,-0.2856,-0.2258,-0.1235,-0.0562,-0.0454,-0.0,0.0684,0.1018,0.1234,0.1681,0.2341,0.2994,0.355,0.3658,0.3553,0.3559,0.3537,0.3567,0.3632,0.3679,0.3668,0.3571,0.3587,0.3606,0.3593,0.3576,0.3587,0.3587,0.3587,0.3587,0.359,0.3601,0.3609,0.3628,0.3639,0.3636,0.3635,0.363,0.3623,0.3601,0.3587,0.3593,0.3616,0.3643,0.3698,0.3753,0.3711,0.3718,0.3773,0.38,0.3798,0.3809,0.3796,0.3812,0.3871,0.3898,0.3883,0.3899,0.3925,0.3925,0.3903,0.3906,0.391,0.3864,0.3818,0.3819,-0.3029,-0.2917,-0.2915,-0.2692,-0.2464,-0.2445,-0.2326,-0.1991,-0.1974,-0.1849,-0.1837,-0.1725,-0.1074,-0.0213,0.0422,0.0634,0.0638,0.1079,0.1301,0.1418,0.1642,0.1757,0.1772,0.1772,0.1558,0.1237,0.1027,0.0579,0.0,0.0,0.0,-0.0368,-0.049,-0.0613,-0.1108,-0.1717,-0.1717,-0.1605,-0.1851,-0.222,-0.2714,-0.3576,-0.4067,-0.4426,-0.416,-0.3887,-0.3479,-0.3304,-0.278,-0.172,-0.1017,-0.0225,0.0338,0.0796,0.092,0.1264,0.1371,0.1478,0.1822,0.2378,0.3046,0.3668,0.3709,0.3632,0.363,0.3617,0.3616,0.3662,0.3691,0.3687,0.3594,0.3619,0.3613,0.3597,0.3587,0.3587,0.3587,0.3587,0.3587,0.3587,0.3593,0.3597,0.3593,0.3598,0.3591,0.3587,0.3587,0.3587,0.3587,0.3587,0.3587,0.36,0.3624,0.3657,0.3703,0.3679,0.3665,0.3714,0.3737,0.3734,0.3739,0.3734,0.3766,0.3816,0.383,0.382,0.3831,0.3839,0.3852,0.3864,0.3849,0.3837,0.3828,0.3816,0.3809,-0.2693,-0.2581,-0.2581,-0.2464,-0.2116,-0.2091,-0.1965,-0.1845,-0.1716,-0.1703,-0.1802,-0.1589,-0.0528,0.1157,0.1569,0.1356,0.1156,0.1624,0.175,0.1765,0.1779,0.1793,0.1794,0.1795,0.1794,0.1685,0.17,0.127,0.0701,0.0,0.0,0.0122,0.0123,0.0123,-0.0123,-0.0863,-0.1112,-0.1359,-0.1606,-0.1977,-0.21,-0.2346,-0.2837,-0.3576,-0.3329,-0.2694,-0.2181,-0.1789,-0.1295,-0.0464,0.0229,0.079,0.1129,0.1479,0.1833,0.1836,0.1822,0.1929,0.2049,0.2522,0.3206,0.3722,0.3768,0.3685,0.3689,0.3676,0.3666,0.3665,0.3658,0.3646,0.3597,0.359,0.359,0.3589,0.3587,0.3587,0.3587,0.3587,0.3587,0.3587,0.3587,0.3587,0.3699,0.3587,0.3587,0.3587,0.3587,0.3587,0.3587,0.3587,0.3587,0.3587,0.36,0.3616,0.3634,0.3631,0.3634,0.367,0.3676,0.3669,0.3677,0.3684,0.3717,0.3854,0.3726,0.3719,0.3736,0.3767,0.3797,0.3807,0.3781,0.3764,0.376,0.3766,0.3767,-0.2581,-0.2244,-0.2243,-0.2114,-0.1866,-0.1858,-0.184,-0.171,-0.1596,-0.1689,-0.1671,-0.1561,-0.0413,0.1234,0.1662,0.1692,0.1727,0.1748,0.1766,0.1783,0.1791,0.1795,0.1795,0.1795,0.1795,0.1797,0.1803,0.1704,0.1387,0.1406,0.119,0.0726,0.073,0.0731,0.0619,0.0124,-0.0494,-0.0989,-0.1607,-0.1977,-0.173,-0.0988,-0.0988,-0.1234,-0.111,-0.0739,-0.0613,-0.0242,0.0239,0.0597,0.1279,0.1607,0.1717,0.1697,0.1819,0.1839,0.1975,0.2226,0.2216,0.2687,0.3261,0.3688,0.3728,0.3752,0.3722,0.3687,0.3649,0.36,0.3601,0.3715,0.3703,0.3701,0.3587,0.3699,0.3921,0.381,0.3811,0.4033,0.4033,0.381,0.381,0.381,0.3811,0.3699,0.3587,0.3587,0.3587,0.3587,0.3587,0.3587,0.3587,0.3587,0.3587,0.3602,0.3606,0.3597,0.3719,0.3748,0.3743,0.373,0.3853,0.3863,0.3846,0.3859,0.3741,0.3769,0.393,0.3965,0.3873,0.3749,0.3724,0.3707,0.3696,0.3706,0.3715,-0.2101,-0.1991,-0.1991,-0.1861,-0.1723,-0.1708,-0.1587,-0.1259,-0.1039,-0.1243,-0.145,-0.0924,0.0205,0.1443,0.1689,0.1725,0.175,0.1767,0.1781,0.1791,0.1795,0.1795,0.1795,0.1795,0.1795,0.1801,0.1812,0.1828,0.1849,0.1874,0.1668,0.1462,0.1467,0.148,0.1368,0.1239,0.0745,0.0124,-0.0497,-0.0865,-0.0741,-0.0371,-0.0124,-0.0371,-0.0124,0.0247,0.0492,0.073,0.1086,0.132,0.1756,0.1842,0.1834,0.1814,0.1803,0.1811,0.2281,0.2529,0.2553,0.281,0.3261,0.3578,0.3692,0.3696,0.3673,0.3646,0.3623,0.3591,0.3921,0.4033,0.4145,0.448,0.4592,0.4592,0.4479,0.4479,0.4479,0.459,0.459,0.4365,0.4142,0.4367,0.4369,0.4033,0.3923,0.3699,0.3699,0.3699,0.3587,0.3587,0.3587,0.3587,0.3587,0.359,0.3593,0.359,0.3815,0.3834,0.3947,0.3936,0.4153,0.415,0.4145,0.4147,0.4162,0.4199,0.4128,0.4015,0.3788,0.3785,0.3666,0.3769,0.3758,0.3748,0.3754,-0.185,-0.1729,-0.1735,-0.1721,-0.1481,-0.1461,-0.114,-0.0721,-0.0509,-0.0611,-0.0718,-0.0,0.0926,0.1573,0.1722,0.1751,0.1763,0.1785,0.1793,0.1795,0.1795,0.1795,0.1798,0.18,0.1808,0.1807,0.1839,0.1858,0.1872,0.1889,0.1923,0.1964,0.1833,0.1977,0.1994,0.1865,0.1612,0.1123,0.0496,0.0124,0.0,0.0371,0.0371,0.0371,0.0494,0.0741,0.111,0.1224,0.158,0.1813,0.1887,0.1857,0.1851,0.1819,0.191,0.1912,0.2368,0.2603,0.2741,0.2989,0.3205,0.3408,0.3617,0.364,0.3608,0.3587,0.3699,0.3923,0.4145,0.4479,0.4702,0.5148,0.5148,0.526,0.5258,0.5369,0.5369,0.526,0.5148,0.4923,0.4923,0.5373,0.5262,0.4592,0.4257,0.3921,0.3811,0.3699,0.3699,0.3587,0.3587,0.3587,0.3587,0.3587,0.3701,0.3701,0.3924,0.4036,0.4036,0.4148,0.4369,0.448,0.448,0.448,0.4592,0.4497,0.4422,0.4169,0.3811,0.3948,0.4076,0.3945,0.393,0.3811,0.3811,-0.1717,-0.167,-0.1697,-0.1373,-0.0936,-0.0936,-0.0617,-0.0101,-0.0,0.0202,0.0408,0.1135,0.1577,0.1705,0.1737,0.1767,0.179,0.1794,0.1795,0.1795,0.1795,0.1797,0.1805,0.182,0.1835,0.1842,0.1868,0.1896,0.1917,0.1919,0.1931,0.1935,0.195,0.196,0.1976,0.1988,0.1981,0.1616,0.1238,0.0618,0.0618,0.0989,0.1361,0.1112,0.1483,0.1853,0.1976,0.1847,0.1844,0.1964,0.1909,0.1877,0.1866,0.1937,0.1911,0.2132,0.2355,0.2586,0.2937,0.3165,0.349,0.3593,0.3594,0.3602,0.359,0.3587,0.3811,0.4369,0.4592,0.4925,0.5148,0.5369,0.5704,0.5817,0.5929,0.5815,0.5817,0.5706,0.5594,0.5369,0.5594,0.6154,0.6267,0.5708,0.4702,0.4367,0.3923,0.3811,0.3699,0.3587,0.3587,0.3587,0.3587,0.3699,0.3924,0.3924,0.3924,0.4147,0.4258,0.437,0.4594,0.4594,0.4817,0.4817,0.4819,0.4817,0.4817,0.4594,0.4482,0.448,0.4369,0.4257,0.4258,0.4258,0.4258,-0.1683,-0.1662,-0.1137,-0.0925,-0.0817,-0.0306,0.0203,0.0506,0.0808,0.1017,0.1236,0.1604,0.1739,0.1851,0.1763,0.1782,0.1794,0.1795,0.1795,0.1795,0.1795,0.1806,0.182,0.1835,0.1849,0.1871,0.1899,0.1917,0.1928,0.1947,0.1958,0.196,0.1956,0.1978,0.1993,0.1995,0.199,0.1984,0.1742,0.1372,0.1486,0.1619,0.1869,0.173,0.173,0.1977,0.1977,0.1977,0.1977,0.1962,0.1916,0.1894,0.1877,0.194,0.2138,0.2244,0.2467,0.2802,0.2914,0.325,0.3362,0.3587,0.3587,0.3587,0.3699,0.3923,0.4145,0.459,0.5148,0.5594,0.5817,0.6262,0.6596,0.6487,0.6487,0.6374,0.6374,0.6262,0.6265,0.6151,0.6374,0.671,0.6824,0.6712,0.5706,0.4702,0.4257,0.3923,0.3811,0.3699,0.3699,0.3699,0.3699,0.3811,0.3924,0.4035,0.4035,0.4258,0.4592,0.4706,0.4819,0.5044,0.5156,0.5156,0.5156,0.5156,0.5044,0.5044,0.4931,0.4706,0.4592,0.448,0.448,0.4706,0.4713,-0.1569,-0.1358,-0.0616,-0.0406,-0.0404,0.0305,0.0815,0.1122,0.1436,0.1653,0.168,0.1749,0.1771,0.1762,0.178,0.1793,0.1794,0.1795,0.1795,0.1795,0.1797,0.1814,0.1834,0.1854,0.1873,0.19,0.1928,0.1947,0.1949,0.1967,0.1972,0.1974,0.1978,0.1988,0.1996,0.2005,0.1996,0.1988,0.2001,0.2011,0.1994,0.2005,0.2011,0.199,0.1984,0.1977,0.1977,0.1977,0.1977,0.1958,0.1925,0.1891,0.1981,0.2066,0.214,0.2467,0.2691,0.3026,0.3138,0.325,0.3362,0.3587,0.3587,0.3699,0.3921,0.4257,0.448,0.5148,0.5817,0.6374,0.6485,0.6821,0.7043,0.6932,0.6932,0.6821,0.6932,0.6821,0.6932,0.6932,0.7154,0.7043,0.6932,0.6821,0.6376,0.526,0.4592,0.4257,0.4147,0.3923,0.3813,0.3811,0.3923,0.3923,0.4035,0.4258,0.4482,0.4707,0.4931,0.5044,0.5156,0.5382,0.5382,0.527,0.527,0.5382,0.5382,0.527,0.5044,0.4931,0.4821,0.4826,0.4931,0.5046,0.4957,-0.1382,-0.0743,-0.0105,0.0103,0.0102,0.0618,0.1142,0.1561,0.1688,0.1701,0.1707,0.1745,0.1759,0.1761,0.1785,0.1794,0.1795,0.1795,0.1795,0.1795,0.1795,0.1814,0.184,0.1866,0.1891,0.1929,0.1954,0.1968,0.1971,0.1974,0.1977,0.1977,0.1977,0.1979,0.1979,0.1979,0.1977,0.1981,0.2005,0.2013,0.2009,0.2012,0.2014,0.2001,0.1986,0.1977,0.1977,0.1977,0.1975,0.1958,0.1922,0.1892,0.1989,0.1945,0.2253,0.2693,0.2693,0.3029,0.3475,0.3587,0.3587,0.3587,0.3699,0.3921,0.4369,0.4592,0.5037,0.5706,0.6262,0.6596,0.693,0.7154,0.7154,0.7154,0.7154,0.7154,0.7154,0.7154,0.7154,0.7154,0.7154,0.7154,0.6932,0.6821,0.6599,0.5931,0.5039,0.4704,0.448,0.437,0.4258,0.4035,0.4147,0.4258,0.437,0.4594,0.4931,0.5156,0.527,0.527,0.527,0.5382,0.5382,0.5384,0.5382,0.5382,0.5384,0.5386,0.5304,0.5219,0.5296,0.529,0.5392,0.5298,0.5346,-0.1384,-0.0639,0.0635,0.0947,0.0629,0.0842,0.1161,0.1695,0.172,0.1735,0.1741,0.1767,0.178,0.1785,0.1787,0.1795,0.1795,0.1795,0.1795,0.1795,0.1798,0.1814,0.1842,0.1874,0.1904,0.1932,0.196,0.1977,0.1975,0.1977,0.1977,0.1977,0.1977,0.1977,0.1977,0.1977,0.1977,0.1981,0.2,0.2011,0.1996,0.2007,0.2011,0.1995,0.1983,0.1977,0.1977,0.1977,0.197,0.1956,0.1919,0.2018,0.2107,0.2173,0.2612,0.2929,0.3141,0.3365,0.3699,0.3811,0.3921,0.3921,0.4033,0.4257,0.448,0.5148,0.5706,0.6262,0.6596,0.693,0.7154,0.7154,0.7154,0.7154,0.7154,0.7154,0.7154,0.7154,0.7154,0.7154,0.7154,0.7265,0.7154,0.7265,0.7043,0.6821,0.6154,0.5262,0.4929,0.4927,0.4927,0.448,0.4369,0.448,0.4594,0.4819,0.4931,0.5156,0.5156,0.5156,0.5156,0.539,0.5392,0.5398,0.539,0.5384,0.5416,0.5455,0.5504,0.5522,0.5506,0.5504,0.5516,0.5541,0.5462,-0.0863,-0.0108,0.1185,0.1618,0.1191,0.1185,0.1401,0.1737,0.1757,0.1765,0.177,0.1787,0.1794,0.1794,0.1795,0.1795,0.1795,0.1807,0.1798,0.1801,0.1821,0.184,0.1863,0.1885,0.1921,0.1945,0.1962,0.1977,0.1977,0.1977,0.1977,0.1977,0.1977,0.1977,0.1977,0.1977,0.1977,0.1984,0.2001,0.2012,0.2005,0.2007,0.201,0.1996,0.1985,0.1977,0.1977,0.1973,0.1967,0.1949,0.2052,0.2152,0.2349,0.267,0.2877,0.3182,0.3371,0.3593,0.3699,0.381,0.3923,0.415,0.4482,0.4925,0.5037,0.5592,0.6149,0.6596,0.7041,0.7154,0.7154,0.7154,0.7154,0.7154,0.7265,0.7265,0.7265,0.7265,0.7265,0.7265,0.7487,0.7487,0.7598,0.7601,0.7604,0.7379,0.7157,0.6376,0.5487,0.5373,0.5373,0.4927,0.4706,0.4819,0.4931,0.4931,0.5044,0.5044,0.505,0.517,0.5296,0.5422,0.5416,0.5418,0.5435,0.5457,0.549,0.5531,0.559,0.5631,0.5643,0.5643,0.5649,0.5659,0.5671,0.0,0.0894,0.1543,0.1767,0.1785,0.1761,0.1766,0.1791,0.1793,0.1793,0.1794,0.1793,0.1795,0.1795,0.1795,0.1795,0.1797,0.1821,0.1812,0.1812,0.1832,0.1859,0.1881,0.1904,0.1928,0.1957,0.1975,0.1977,0.1977,0.1977,0.1977,0.1977,0.1977,0.1977,0.1977,0.1977,0.1977,0.1984,0.1994,0.2004,0.2002,0.2008,0.2007,0.1997,0.1988,0.1979,0.1977,0.1975,0.1972,0.2083,0.2188,0.2415,0.2514,0.273,0.3041,0.3219,0.3506,0.3595,0.3699,0.381,0.4147,0.4596,0.5264,0.5708,0.5929,0.604,0.6485,0.6818,0.7154,0.7154,0.7154,0.7154,0.7154,0.7265,0.7265,0.7265,0.7376,0.7376,0.7487,0.7598,0.7931,0.8042,0.8263,0.8266,0.8269,0.8042,0.782,0.7376,0.6596,0.5819,0.5596,0.5154,0.5044,0.527,0.527,0.5156,0.5156,0.527,0.53,0.5312,0.5441,0.5465,0.549,0.5504,0.5508,0.5537,0.5594,0.5639,0.5682,0.5716,0.5753,0.5753,0.5751,0.5725,0.5733,0.0558,0.1009,0.1562,0.1787,0.1793,0.1785,0.1787,0.1795,0.1795,0.1795,0.1795,0.1795,0.1795,0.1795,0.1795,0.1795,0.1798,0.1802,0.1802,0.1812,0.1832,0.1839,0.1861,0.1894,0.1917,0.1944,0.1964,0.1977,0.1977,0.1977,0.1977,0.1977,0.1977,0.1977,0.1977,0.1977,0.1977,0.1979,0.1988,0.1991,0.1992,0.1992,0.1992,0.1988,0.1984,0.1977,0.1977,0.21,0.2092,0.231,0.2446,0.2556,0.3079,0.3214,0.3322,0.3454,0.3625,0.3587,0.3698,0.4369,0.4936,0.5172,0.5947,0.604,0.6151,0.6391,0.6839,0.7065,0.7201,0.7217,0.7312,0.7299,0.7285,0.7379,0.749,0.782,0.782,0.7928,0.8039,0.8263,0.8595,0.8706,0.8816,0.8933,0.8823,0.8706,0.8481,0.8042,0.7485,0.671,0.6154,0.5712,0.538,0.5603,0.5493,0.538,0.5382,0.5388,0.5414,0.5449,0.5482,0.5514,0.5563,0.5592,0.56,0.5653,0.572,0.5753,0.5772,0.5829,0.5863,0.5857,0.5845,0.5814,0.5802,0.1121,0.1346,0.1683,0.1795,0.1795,0.1795,0.1795,0.1795,0.1795,0.1795,0.1795,0.1795,0.1795,0.1795,0.1795,0.1795,0.1796,0.1812,0.1817,0.1821,0.1833,0.1865,0.1885,0.1903,0.1934,0.1953,0.1964,0.1977,0.1977,0.1977,0.1977,0.1977,0.1977,0.1977,0.1977,0.1977,0.1977,0.1977,0.1978,0.1977,0.1977,0.1977,0.1977,0.1977,0.1977,0.1977,0.21,0.2099,0.2331,0.2557,0.2585,0.3062,0.3358,0.3493,0.3606,0.3751,0.3704,0.3676,0.3783,0.4581,0.5258,0.5934,0.6495,0.6396,0.649,0.6719,0.7032,0.7244,0.7277,0.7406,0.737,0.7449,0.7527,0.7607,0.7937,0.8374,0.8484,0.8702,0.8923,0.9147,0.9258,0.9258,0.9372,0.9382,0.9379,0.9265,0.893,0.8488,0.8042,0.7376,0.6821,0.6487,0.6044,0.5824,0.5712,0.5603,0.5493,0.5497,0.5398,0.5439,0.5498,0.5545,0.558,0.5637,0.5696,0.5749,0.5802,0.5827,0.5853,0.59,0.5919,0.59,0.5888,0.5884,0.5882,0.1795,0.1795,0.1795,0.1795,0.1795,0.1795,0.1795,0.1795,0.1795,0.1795,0.1795,0.1795,0.1795,0.1795,0.1795,0.18,0.1809,0.1825,0.1838,0.1844,0.1879,0.1904,0.1923,0.1955,0.1954,0.1968,0.1977,0.1977,0.1977,0.1977,0.1977,0.1977,0.1977,0.1977,0.1977,0.1977,0.1977,0.1977,0.1977,0.1977,0.1977,0.1977,0.1977,0.1977,0.1977,0.1976,0.2099,0.2345,0.259,0.2837,0.3083,0.3451,0.3555,0.3763,0.386,0.4069,0.4008,0.3862,0.4081,0.4664,0.5966,0.6679,0.7054,0.6778,0.696,0.7041,0.7241,0.7355,0.7388,0.7587,0.7661,0.774,0.7927,0.8196,0.8598,0.8816,0.9037,0.9175,0.9335,0.9468,0.9405,0.951,0.9626,0.9644,0.9468,0.9536,0.9379,0.8826,0.8491,0.7934,0.7487,0.7154,0.671,0.6379,0.6267,0.6156,0.5826,0.5609,0.5622,0.5437,0.55,0.5545,0.5588,0.5663,0.5743,0.5812,0.5863,0.5878,0.5888,0.5904,0.5919,0.5919,0.5919,0.5919,0.5919,0.1795,0.1795,0.1795,0.1795,0.1795,0.1795,0.1795,0.1795,0.1795,0.1795,0.1795,0.1795,0.1795,0.1795,0.1795,0.1803,0.1825,0.1833,0.1853,0.1868,0.1898,0.1922,0.193,0.1948,0.1958,0.1971,0.1977,0.1977,0.1977,0.1977,0.1977,0.1977,0.1977,0.1977,0.1977,0.1977,0.1977,0.1977,0.1977,0.1977,0.1977,0.1977,0.1977,0.1976,0.1975,0.2221,0.2344,0.259,0.296,0.3208,0.3331,0.3579,0.3822,0.3892,0.4106,0.4449,0.4527,0.438,0.4487,0.52,0.6509,0.7202,0.7546,0.741,0.7272,0.7367,0.7362,0.7491,0.7599,0.7786,0.7961,0.8154,0.8329,0.8802,0.9172,0.9286,0.9503,0.9665,0.9741,0.9684,0.9525,0.9649,0.9869,0.984,0.9684,0.9496,0.9414,0.9161,0.894,0.8491,0.8045,0.7601,0.7265,0.6932,0.6932,0.671,0.6379,0.607,0.609,0.591,0.5614,0.5545,0.5594,0.57,0.5788,0.5831,0.5867,0.5902,0.591,0.5916,0.5919,0.5919,0.5919,0.5919,0.5919,0.1795,0.1795,0.1795,0.1795,0.1795,0.1795,0.1795,0.1795,0.1795,0.1795,0.1795,0.1795,0.1795,0.1795,0.1795,0.1804,0.1825,0.1835,0.1856,0.1879,0.1905,0.1928,0.1939,0.1949,0.1962,0.1975,0.1977,0.1977,0.1977,0.1977,0.1977,0.1977,0.1977,0.1977,0.1977,0.1977,0.1977,0.1977,0.1977,0.1977,0.1977,0.1977,0.2099,0.2099,0.2221,0.2343,0.2714,0.296,0.3208,0.3455,0.3579,0.3703,0.3944,0.4164,0.451,0.4863,0.4957,0.5159,0.527,0.5981,0.7065,0.7541,0.7793,0.7578,0.7587,0.7687,0.7641,0.7652,0.7693,0.79,0.8113,0.8396,0.8543,0.8907,0.9253,0.9387,0.9741,1.012,1.0247,1.0235,1.017,1.0174,1.0281,1.0162,1.0013,1.012,0.9938,0.9603,0.9382,0.9161,0.8602,0.8168,0.7838,0.7607,0.7487,0.7265,0.6932,0.674,0.6547,0.6132,0.5711,0.5654,0.5604,0.5793,0.5862,0.58,0.5837,0.5878,0.591,0.5916,0.5919,0.5919,0.5919,0.5919,0.5919,0.2019,0.1907,0.1907,0.1907,0.1795,0.1795,0.1795,0.1795,0.1907,0.1907,0.1794,0.1795,0.1795,0.1795,0.1795,0.1801,0.1816,0.1845,0.1868,0.1902,0.1927,0.1946,0.1962,0.1974,0.1975,0.1975,0.1977,0.1977,0.1977,0.1977,0.1977,0.1977,0.1977,0.1977,0.1977,0.1977,0.1977,0.1977,0.1977,0.1977,0.1977,0.1977,0.2099,0.2221,0.2343,0.2466,0.296,0.3455,0.3702,0.3825,0.3948,0.407,0.4316,0.4673,0.5163,0.5395,0.5756,0.5987,0.6239,0.6719,0.7345,0.7731,0.7872,0.7867,0.7858,0.7834,0.7788,0.7793,0.7834,0.8032,0.8251,0.8512,0.8772,0.9141,0.9293,0.9624,1.0044,1.0393,1.0492,1.0568,1.0608,1.0508,1.052,1.0389,1.0338,1.0433,1.039,1.0048,0.9713,0.9489,0.9154,0.8853,0.8657,0.8418,0.8168,0.7952,0.7624,0.7274,0.7081,0.6446,0.6025,0.6164,0.61,0.5837,0.5905,0.596,0.591,0.5839,0.5872,0.6033,0.5919,0.5919,0.5919,0.5919,0.5919,0.2917,0.2581,0.2468,0.2244,0.1907,0.1795,0.1795,0.1907,0.2578,0.2465,0.202,0.1905,0.1793,0.1795,0.1795,0.1812,0.1855,0.1872,0.1913,0.1957,0.1956,0.1967,0.1975,0.1977,0.1977,0.1977,0.1977,0.1977,0.1977,0.1977,0.1977,0.1977,0.1977,0.1977,0.1977,0.1977,0.1977,0.1977,0.1977,0.1976,0.1976,0.1976,0.1976,0.2222,0.2591,0.2837,0.3208,0.3579,0.3826,0.3948,0.4316,0.4561,0.4928,0.5295,0.5786,0.6154,0.6519,0.6886,0.7131,0.7378,0.775,0.7872,0.7872,0.7872,0.7867,0.7864,0.7958,0.7958,0.8091,0.8164,0.842,0.8518,0.8803,0.9268,0.9582,1.0023,1.044,1.0424,1.0509,1.0467,1.033,1.0371,1.0544,1.0473,1.0341,1.0391,1.0347,1.0092,0.9975,0.9842,0.9717,0.9547,0.9374,0.9109,0.8853,0.8664,0.8444,0.8075,0.7613,0.7097,0.6771,0.6961,0.6799,0.6436,0.6274,0.6331,0.6173,0.6155,0.6096,0.6259,0.6033,0.5919,0.5916,0.6162,0.6283]}]]